Ship Status Report: callsign 000000

sailwx.info

Track history (hours):
 
Tides and Currents Weather Stations Pressure Air Temp Water Temp Dewpoint Dewpoint Depression Visibility Wind Speed Wind Dir Waves Ship Positions

Callsign 000000 (name unknown)

Last reported at 2014-Dec-21 03:33 UTC. Time now 2014-Dec-21 04:03 UTC.
Position N 31°28' E 121°47'.

Type: Fishing. MMSI: 200007452.

Date/timePositionNaut miles runAvg speedWind from/ knotsBaromVisibWave heightAir tempDewpointWater temp
2014-Dec-21 03:33N 31°28' E 121°47'72128714.1
2014-Dec-21 03:33N 32°01' E 120°32'6919061.8
2014-Dec-21 03:33N 31°11' E 121°28'646155060.0
2014-Dec-21 03:33N 23°05' E 113°29'661793271.4
2014-Dec-21 03:33N 32°02' E 120°43'446160707.0
2014-Dec-21 03:33N 24°46' E 118°54'4563256651.2
2014-Dec-21 03:32S 20°09' E 057°30'48881353520.0
2014-Dec-21 03:31N 31°58' E 120°26'732971.9
2014-Dec-21 03:30N 31°07' E 121°28'39810535.8
2014-Dec-21 03:28N 24°52' E 118°58'32126904.7
2014-Dec-21 03:27N 22°57' E 113°30'48200.0
2014-Dec-21 03:13N 22°09' E 113°28'70934972.9
2014-Dec-21 03:11N 31°60' E 120°49'66513608.8
2014-Dec-21 03:08N 22°58' E 113°33'6461106.6
2014-Dec-21 02:33N 31°07' E 121°28'2327133.6
2014-Dec-21 02:33N 31°29' E 121°24'65798618.4
2014-Dec-21 02:33N 23°05' E 113°29'654123914.8
2014-Dec-21 02:33N 32°01' E 120°32'44647226.0
2014-Dec-21 02:32N 24°43' E 118°54'433173085.1
2014-Dec-21 02:32N 31°28' E 121°47'49321109745.9
2014-Dec-21 02:32S 20°09' E 057°30'48881353516.9
2014-Dec-21 02:31N 31°58' E 120°26'65215654.9
2014-Dec-21 02:29N 22°59' E 113°33'551.3
2014-Dec-21 02:23N 22°55' E 113°36'32012377.6
2014-Dec-21 02:22N 24°51' E 119°02'3225676.5
2014-Dec-21 02:18N 23°03' E 113°30'659.6
2014-Dec-21 02:12N 23°02' E 113°23'66768570.2
2014-Dec-21 02:11N 32°02' E 120°43'5297.3
2014-Dec-21 02:10N 31°60' E 120°49'1422.0
2014-Dec-21 01:33N 32°00' E 120°33'7164068.5
2014-Dec-21 01:33N 31°07' E 121°28'224037.5
2014-Dec-21 01:33N 31°29' E 121°24'65757711.8
2014-Dec-21 01:32N 23°05' E 113°29'4243391700.2
2014-Dec-21 01:32S 20°09' E 057°30'48881353517.9
2014-Dec-21 01:31N 31°58' E 120°26'15760.3
2014-Dec-21 01:30N 32°02' E 120°43'66299265.5
2014-Dec-21 01:30N 23°04' E 113°29'6416.5
2014-Dec-21 01:29N 22°59' E 113°33'32115631.5
2014-Dec-21 01:28N 24°50' E 119°02'437224942.2
2014-Dec-21 01:28N 32°00' E 120°34'6559179.7
2014-Dec-21 01:23N 23°04' E 113°29'1110058.8
2014-Dec-21 01:23N 22°55' E 113°36'64133915.8
2014-Dec-21 01:22N 30°60' E 121°25'69316.0
2014-Dec-21 01:09N 32°00' E 120°46'45130652.4
2014-Dec-21 01:08N 24°40' E 118°54'311538.0
2014-Dec-21 00:33N 22°57' E 113°33'109073.8
2014-Dec-21 00:33N 23°06' E 113°27'658118426.9
2014-Dec-21 00:33N 31°29' E 121°24'223361.9
2014-Dec-21 00:33N 31°07' E 121°28'7112202.0
2014-Dec-21 00:32N 32°00' E 120°33'52723.0
2014-Dec-21 00:32N 32°02' E 120°27'4890704210.7
2014-Dec-21 00:32S 20°09' E 057°30'48881256840.0
2014-Dec-21 00:31N 31°58' E 120°26'65024106.2
2014-Dec-21 00:30N 23°04' E 113°29'6389.4
2014-Dec-21 00:29N 22°59' E 113°33'32216307.1
2014-Dec-21 00:28N 24°49' E 119°03'12461.6
2014-Dec-21 00:26N 24°40' E 118°54'3985194.8
2014-Dec-21 00:22N 30°57' E 121°17'711357.1
2014-Dec-21 00:18N 32°02' E 120°43'4763.4
2014-Dec-20 23:33N 31°29' E 121°24'65898690.5
2014-Dec-20 23:33N 23°06' E 113°27'655168332.4
2014-Dec-20 23:33N 32°00' E 120°33'2139.0
2014-Dec-20 23:32N 32°02' E 120°35'6591187096.7
2014-Dec-20 23:32N 22°59' E 113°33'42431388487.1
2014-Dec-20 23:32S 20°09' E 057°30'48881256839.1
2014-Dec-20 23:31N 31°58' E 120°26'65024875.2
2014-Dec-20 23:30N 23°04' E 113°29'3229141.1
2014-Dec-20 23:28N 24°48' E 119°03'12436.2
2014-Dec-20 23:26N 24°39' E 118°54'45485960.9
2014-Dec-20 23:26N 32°02' E 120°43'6712033.8
2014-Dec-20 23:06N 22°51' E 113°34'6641226.6
2014-Dec-20 22:34N 32°00' E 120°33'5327477.7
2014-Dec-20 22:33N 31°29' E 121°24'578533.8
2014-Dec-20 22:33N 32°04' E 120°31'75269904.9
2014-Dec-20 22:33N 31°07' E 121°28'673597.1
2014-Dec-20 22:32N 32°02' E 120°43'49041765279.9
2014-Dec-20 22:32S 20°09' E 057°30'48881173049.6
2014-Dec-20 22:31N 31°58' E 120°26'111949.0
2014-Dec-20 22:31N 31°56' E 120°13'4347650.2
2014-Dec-20 22:28N 24°47' E 119°03'3221958.5
2014-Dec-20 22:18N 23°04' E 113°29'0 2.0
2014-Dec-20 22:14N 23°04' E 113°29'656.8
2014-Dec-20 22:08N 22°59' E 113°33'6461117.4
2014-Dec-20 21:33N 31°07' E 121°28'7515875.8
2014-Dec-20 21:33N 32°04' E 120°31'65937681.6
2014-Dec-20 21:32N 22°59' E 113°33'424315273358.3
2014-Dec-20 21:32S 20°09' E 057°30'4904840610.2
2014-Dec-20 21:31N 32°02' E 120°43'4817104.4
2014-Dec-20 21:31N 31°29' E 121°23'65828528.1
2014-Dec-20 21:30N 23°04' E 113°29'65028515.5
2014-Dec-20 21:28N 31°58' E 120°26'43936716.6
2014-Dec-20 21:28N 24°46' E 119°03'442176742.9
2014-Dec-20 21:28N 32°00' E 120°33'65530222.4
2014-Dec-20 21:26N 23°04' E 113°29'658747.6
2014-Dec-20 20:34N 31°29' E 121°23'579741.5
2014-Dec-20 20:33N 32°04' E 120°31'7530017.8
2014-Dec-20 20:33N 31°07' E 121°28'677775.0
2014-Dec-20 20:32N 32°02' E 120°43'4904375591.8
2014-Dec-20 20:32S 20°09' E 057°30'48881256839.1
2014-Dec-20 20:31N 31°58' E 120°26'6582.4
2014-Dec-20 20:31N 32°00' E 120°33'6559821.6
2014-Dec-20 20:27N 23°04' E 113°29'6313.4
2014-Dec-20 20:26N 22°59' E 113°33'3221942.3
2014-Dec-20 20:16N 24°49' E 119°04'32313690.1
2014-Dec-20 20:14N 23°04' E 113°29'6396689.6
2014-Dec-20 20:09N 31°55' E 120°10'2034.3
2014-Dec-20 19:33N 32°00' E 120°33'5347944.8
2014-Dec-20 19:33N 31°29' E 121°23'224044.9
2014-Dec-20 19:33N 31°07' E 121°28'7554045.2
2014-Dec-20 19:33N 32°04' E 120°31'4895225915.1
2014-Dec-20 19:32S 20°09' E 057°30'424315273358.3
2014-Dec-20 19:32N 22°59' E 113°33'652180620.2
2014-Dec-20 19:31N 31°58' E 120°26'4347006.0
2014-Dec-20 19:28N 24°50' E 119°04'44179351.5
2014-Dec-20 19:27N 32°02' E 120°43'66214009.8
2014-Dec-20 19:25N 23°04' E 113°30'125.2
2014-Dec-20 19:23N 23°04' E 113°29'3135748.7
2014-Dec-20 19:20N 24°41' E 118°55'3153120.3
2014-Dec-20 19:14N 23°06' E 113°27'657969.0
2014-Dec-20 18:33N 32°04' E 120°31'415370.3
2014-Dec-20 18:33N 32°00' E 120°33'7992.4
2014-Dec-20 18:33N 31°58' E 120°26'739446.8
2014-Dec-20 18:33N 31°07' E 121°28'645178484.3
2014-Dec-20 18:32N 23°06' E 113°27'4242509033.1
2014-Dec-20 18:32S 20°09' E 057°30'4904107639.1
2014-Dec-20 18:29N 32°02' E 120°43'706967.3
2014-Dec-20 18:28N 30°58' E 121°14'38529511.9
2014-Dec-20 18:28N 24°52' E 118°57'41853685.6
2014-Dec-20 18:27N 31°29' E 121°23'42622867.1
2014-Dec-20 18:26N 24°43' E 118°58'31643708.2
2014-Dec-20 18:26N 22°59' E 113°33'6237.6
2014-Dec-20 18:24N 23°04' E 113°30'134.3
2014-Dec-20 18:23N 23°04' E 113°29'10129.9
2014-Dec-20 18:19N 22°54' E 113°28'665881.7
2014-Dec-20 17:33N 32°04' E 120°31'657337764.2
2014-Dec-20 17:33N 23°06' E 113°27'645165734.3
2014-Dec-20 17:33N 31°07' E 121°28'7366127.9
2014-Dec-20 17:33N 31°58' E 120°26'7521.2
2014-Dec-20 17:32N 32°00' E 120°33'444159806.3
2014-Dec-20 17:32N 24°44' E 119°01'4567782964.8
2014-Dec-20 17:32S 20°09' E 057°30'4904248631.0
2014-Dec-20 17:31N 32°02' E 120°43'471722.4
2014-Dec-20 17:29N 31°29' E 121°23'66614535.9
2014-Dec-20 17:26N 22°54' E 113°28'6664.7
2014-Dec-20 17:26N 22°59' E 113°33'634.2
2014-Dec-20 17:15N 23°04' E 113°30'655941.2
2014-Dec-20 16:34N 32°00' E 120°33'97913.0
2014-Dec-20 16:33N 32°02' E 120°43'113576.5
2014-Dec-20 16:33N 32°04' E 120°31'71518.5
2014-Dec-20 16:33N 31°58' E 120°26'7324047.9
2014-Dec-20 16:33N 31°07' E 121°28'4905263560.7
2014-Dec-20 16:32S 20°09' E 057°30'4899801650.1
2014-Dec-20 16:31N 30°60' E 121°25'292939.2
2014-Dec-20 16:31N 31°29' E 121°23'6586055.4
2014-Dec-20 16:24N 23°04' E 113°30'511800.7
2014-Dec-20 16:23N 22°14' E 113°23'46182.7
2014-Dec-20 16:07N 22°59' E 113°33'6581161.9
2014-Dec-20 15:34N 32°00' E 120°33'6551179005.5
2014-Dec-20 15:33N 23°06' E 113°27'655235792.1
2014-Dec-20 15:33N 32°04' E 120°28'61077.6
2014-Dec-20 15:33N 31°58' E 120°26'157927.8
2014-Dec-20 15:33N 32°02' E 120°43'303060.4
2014-Dec-20 15:32N 31°42' E 121°09'385738.1
2014-Dec-20 15:32N 31°07' E 121°28'49051765859.4
2014-Dec-20 15:32S 20°09' E 057°30'490353654.3
2014-Dec-20 15:26N 31°03' E 121°28'68311702.1
2014-Dec-20 15:23N 22°19' E 113°19'42972.0
2014-Dec-20 15:20N 22°59' E 113°33'666.0
2014-Dec-20 15:14N 23°04' E 113°29'1 3.6
2014-Dec-20 15:04N 23°04' E 113°30'6551288.9
2014-Dec-20 14:33N 32°00' E 120°34'655112272.5
2014-Dec-20 14:33N 23°06' E 113°27'650137730.0
2014-Dec-20 14:33N 32°01' E 120°23'172585.1
2014-Dec-20 14:32N 32°02' E 120°43'309737.6
2014-Dec-20 14:32N 31°42' E 121°09'385297.4
2014-Dec-20 14:32N 31°07' E 121°28'49052943097.0
2014-Dec-20 14:32S 20°09' E 057°30'4888169189.9
2014-Dec-20 14:30N 31°58' E 120°26'64936525.2
2014-Dec-20 14:29N 23°04' E 113°30'152.1
2014-Dec-20 14:28N 23°04' E 113°29'6328.1
2014-Dec-20 14:27N 22°59' E 113°33'6503795.3
2014-Dec-20 14:17N 32°15' E 119°53'9080638.0
2014-Dec-20 14:17N 31°29' E 121°23'6285.9
2014-Dec-20 13:33N 31°58' E 120°19'645464632.4
2014-Dec-20 13:33N 23°06' E 113°27'644193294.3
2014-Dec-20 13:33N 31°07' E 121°28'7322043.9
2014-Dec-20 13:33N 31°58' E 120°26'6502338846.4
2014-Dec-20 13:33N 23°04' E 113°30'65584242.9
2014-Dec-20 13:33N 32°00' E 120°33'3514166.3
2014-Dec-20 13:32N 31°42' E 121°09'4911465220.4
2014-Dec-20 13:32S 20°09' E 057°30'4904103233.1
2014-Dec-20 13:29N 32°02' E 120°43'38960.1
2014-Dec-20 13:27N 32°00' E 119°59'6383686.6
2014-Dec-20 13:16N 23°04' E 113°29'65811902.6
2014-Dec-20 13:13N 31°29' E 121°23'0 0.0
2014-Dec-20 12:33N 31°29' E 121°23'5312660.3
2014-Dec-20 12:33N 32°00' E 120°33'75980.9
2014-Dec-20 12:33N 31°58' E 120°26'649166995.6
2014-Dec-20 12:33N 23°06' E 113°27'659107850.5
2014-Dec-20 12:32N 31°42' E 121°09'4911465217.7
2014-Dec-20 12:32S 20°09' E 057°30'49055886198.2
2014-Dec-20 12:32N 31°07' E 121°28'671052.7
2014-Dec-20 12:28N 32°02' E 120°43'281890.8
2014-Dec-20 12:27N 31°56' E 120°12'7929.8
2014-Dec-20 12:27N 31°58' E 120°04'63811845.5
2014-Dec-20 12:23N 23°04' E 113°29'694.7
2014-Dec-20 12:19N 22°59' E 113°33'643841.0
2014-Dec-20 11:33N 31°57' E 120°08'225988.2
2014-Dec-20 11:33N 32°00' E 120°33'48948810099.6
2014-Dec-20 11:33S 20°09' E 057°30'49051605265.3
2014-Dec-20 11:33N 31°07' E 121°28'7388170.5
2014-Dec-20 11:33N 31°58' E 120°26'404625.8
2014-Dec-20 11:32N 31°42' E 121°09'302095.9
2014-Dec-20 11:32N 32°02' E 120°43'471564.2
2014-Dec-20 11:30N 31°29' E 121°23'65811843.1
2014-Dec-20 11:26N 23°04' E 113°29'6257.3
2014-Dec-20 11:25N 22°59' E 113°33'64274512.8
2014-Dec-20 11:24N 32°02' E 119°57'6392766.2
2014-Dec-20 11:11N 23°06' E 113°27'0 0.0
2014-Dec-20 10:33N 23°06' E 113°27'42421527109.5
2014-Dec-20 10:33S 20°09' E 057°30'48881353466.7
2014-Dec-20 10:33N 31°58' E 120°26'738016.0
2014-Dec-20 10:32N 31°07' E 121°28'385996.9
2014-Dec-20 10:32N 31°42' E 121°09'357955.9
2014-Dec-20 10:32N 32°00' E 120°33'283884.1
2014-Dec-20 10:31N 31°59' E 120°00'772112.7
2014-Dec-20 10:29N 31°29' E 121°23'6529358.8
2014-Dec-20 10:29N 31°57' E 120°14'66420246.7
2014-Dec-20 10:27N 22°19' E 114°06'424639096.4
2014-Dec-20 10:21S 20°08' E 057°28'4244203720.6
2014-Dec-20 10:19N 23°04' E 113°30'6783.9
2014-Dec-20 10:19N 22°59' E 113°33'658869.6
2014-Dec-20 09:33N 32°00' E 120°33'655471584.8
2014-Dec-20 09:33N 23°06' E 113°27'639287517.1
2014-Dec-20 09:33N 31°58' E 120°06'48728769308.4
2014-Dec-20 09:33S 20°09' E 057°30'48881256791.7
2014-Dec-20 09:33N 31°58' E 120°26'6631.6
2014-Dec-20 09:32N 31°58' E 120°19'469688.4
2014-Dec-20 09:32N 31°42' E 121°09'0935.7
2014-Dec-20 09:32N 31°42' E 121°08'398168.7
2014-Dec-20 09:32N 31°07' E 121°28'49051103659.5
2014-Dec-20 09:32S 20°09' E 057°30'42431091161.0
2014-Dec-20 09:31N 23°04' E 113°30'65814797.7
2014-Dec-20 09:29N 31°29' E 121°23'66010423.2
2014-Dec-20 09:25N 22°59' E 113°33'66411724.7
2014-Dec-20 09:21N 32°02' E 120°43'662826.8
2014-Dec-20 08:33N 23°06' E 113°27'6512343268.7
2014-Dec-20 08:33N 32°01' E 120°25'5971002.9
2014-Dec-20 08:33N 31°29' E 121°23'2320277.5
2014-Dec-20 08:33N 31°07' E 121°28'49055885964.3
2014-Dec-20 08:33S 20°09' E 057°30'489417620047.0
2014-Dec-20 08:33N 32°00' E 120°33'71698.1
2014-Dec-20 08:33N 31°58' E 120°26'408065.6
2014-Dec-20 08:33N 31°42' E 121°10'4912256257.9
2014-Dec-20 08:32S 20°09' E 057°30'4898464037.5
2014-Dec-20 08:31N 30°60' E 121°25'837121.3
2014-Dec-20 08:30N 31°57' E 120°14'6453383.7
2014-Dec-20 08:19N 22°59' E 113°33'6659309.1
2014-Dec-20 08:14N 31°58' E 120°51'4373762.9
2014-Dec-20 08:08N 24°52' E 118°59'3205970.2
2014-Dec-20 08:04N 23°04' E 113°30'6321231.2
2014-Dec-20 07:34N 30°58' E 121°19'7524569.3
2014-Dec-20 07:33N 32°02' E 120°32'48942516949.7
2014-Dec-20 07:33S 20°09' E 057°30'49053531572.7
2014-Dec-20 07:33N 31°07' E 121°28'78279788.2
2014-Dec-20 07:33N 31°59' E 120°21'434312171.1
2014-Dec-20 07:33N 24°52' E 118°55'433779686.3
2014-Dec-20 07:33N 31°58' E 120°26'4011153.4
2014-Dec-20 07:33N 31°42' E 121°09'4912260024.7
2014-Dec-20 07:32S 20°09' E 057°30'424376001.3
2014-Dec-20 07:28N 23°04' E 113°30'339.9
2014-Dec-20 07:24N 23°06' E 113°27'6623873.4
2014-Dec-20 07:14N 32°02' E 120°43'1420.6
2014-Dec-20 06:34N 32°04' E 120°27'610998.4
2014-Dec-20 06:33N 32°00' E 120°33'6551178933.3
2014-Dec-20 06:33N 23°06' E 113°27'454528.7
2014-Dec-20 06:33N 22°27' E 113°53'42401090196.4
2014-Dec-20 06:33S 20°09' E 057°30'0318.3
2014-Dec-20 06:33S 20°09' E 057°30'4932269015.3
2014-Dec-20 06:31N 31°26' E 121°48'677608896.2
2014-Dec-20 06:31N 22°52' E 113°34'66986064.5
2014-Dec-20 06:31N 32°02' E 120°43'664199320.0
2014-Dec-20 06:31N 22°59' E 113°33'63112410.5
2014-Dec-20 06:28N 30°58' E 121°13'7567651.5
2014-Dec-20 06:28N 31°58' E 120°21'43251861.1
2014-Dec-20 06:27N 24°53' E 118°55'3989124.1
2014-Dec-20 06:25N 31°07' E 121°28'6447501.5
2014-Dec-20 06:19N 23°04' E 113°30'6603676.4
2014-Dec-20 06:09N 31°42' E 121°09'3965.8
2014-Dec-20 05:33N 31°07' E 121°28'644110447.3
2014-Dec-20 05:33N 23°06' E 113°27'662595786.8
2014-Dec-20 05:33N 31°58' E 120°51'146157.9
2014-Dec-20 05:33N 32°02' E 120°35'4897979341.2
2014-Dec-20 05:33S 20°09' E 057°30'49285913287.4
2014-Dec-20 05:33N 31°19' E 121°48'492817739168.7
2014-Dec-20 05:33S 20°09' E 057°30'48941355387.9
2014-Dec-20 05:32N 32°00' E 120°33'11372.9
2014-Dec-20 05:31N 31°58' E 120°21'441432.7
2014-Dec-20 05:29N 31°42' E 121°09'660103260.2
2014-Dec-20 05:28N 23°04' E 113°30'3174271.1
2014-Dec-20 05:24N 24°53' E 118°55'3163579.4
2014-Dec-20 05:19N 22°59' E 113°33'53320.3
2014-Dec-20 05:09N 22°18' E 114°10'61104.5
2014-Dec-20 04:34N 23°06' E 113°27'661264273.6
2014-Dec-20 04:33N 32°01' E 120°44'1831770.3
2014-Dec-20 04:33N 31°58' E 120°23'97977.4
2014-Dec-20 04:33N 32°00' E 120°33'368573.0
2014-Dec-20 04:33N 31°42' E 121°09'3969335.9
2014-Dec-20 04:33N 31°07' E 121°28'398716245.1
2014-Dec-20 04:33N 24°53' E 118°55'4567865345.6
2014-Dec-20 04:33S 20°09' E 057°30'4924537203.0
2014-Dec-20 04:32N 31°15' E 121°47'49254432139.2
2014-Dec-20 04:32S 20°09' E 057°30'4884214417.7
2014-Dec-20 04:31N 31°58' E 120°21'201634.0
2014-Dec-20 04:30N 32°02' E 120°43'552276.5
2014-Dec-20 04:28N 31°21' E 121°26'595214021.4
2014-Dec-20 04:28N 23°04' E 115°19'59151913.7
2014-Dec-20 04:28N 31°56' E 120°09'573028.6
2014-Dec-20 04:26N 31°19' E 120°60'6392763.8
2014-Dec-20 04:13N 22°59' E 113°33'6581008.0
2014-Dec-20 03:33N 32°00' E 120°33'7150949.2
2014-Dec-20 03:33N 31°07' E 121°28'64472474.0
2014-Dec-20 03:33N 23°06' E 113°27'3181146240.4
2014-Dec-20 03:33N 24°53' E 118°55'45671264735.9
2014-Dec-20 03:33S 20°09' E 057°30'49114420263.5
2014-Dec-20 03:33N 31°42' E 121°09'309766.5
2014-Dec-20 03:32N 32°02' E 120°43'7915777.6
2014-Dec-20 03:32N 31°10' E 121°53'49263546711.7
2014-Dec-20 03:32S 20°09' E 057°30'48921100695.1
2014-Dec-20 03:32N 31°16' E 121°04'563080.7
2014-Dec-20 03:31N 31°58' E 120°21'6501169744.5
2014-Dec-20 03:31N 22°59' E 113°33'6152.1
2014-Dec-20 03:28N 23°04' E 113°30'6623443.0
2014-Dec-20 03:17N 31°58' E 120°51'22160.1
2014-Dec-20 03:08N 31°57' E 120°24'6481114.9
2014-Dec-20 02:34N 23°06' E 113°27'662793970.3
2014-Dec-20 02:33N 32°02' E 120°43'59301.0
2014-Dec-20 02:33N 31°60' E 120°49'6237430.8
2014-Dec-20 02:33N 31°07' E 121°28'71254915.8
2014-Dec-20 02:33N 32°00' E 120°33'363067.7
2014-Dec-20 02:33N 31°42' E 121°10'491117681160.3
2014-Dec-20 02:33S 20°09' E 057°30'4906609038.1
2014-Dec-20 02:32N 31°58' E 120°50'49062523277.1
2014-Dec-20 02:32S 20°09' E 057°30'49061766310.2
2014-Dec-20 02:32N 31°58' E 120°51'251405.9
2014-Dec-20 02:31N 31°58' E 120°21'64715630.4
2014-Dec-20 02:28N 23°04' E 113°30'622.4
2014-Dec-20 02:13N 22°59' E 113°33'813.0
2014-Dec-20 01:34N 23°06' E 113°27'662476572.9
2014-Dec-20 01:33N 31°58' E 120°51'255292.8
2014-Dec-20 01:33N 31°58' E 120°21'114242.0
2014-Dec-20 01:33N 32°00' E 120°33'7125489.9
2014-Dec-20 01:33N 31°07' E 121°28'49051471489.7
2014-Dec-20 01:33S 20°09' E 057°30'024.0
2014-Dec-20 01:32S 20°09' E 057°30'4915143846.1
2014-Dec-20 01:30N 31°29' E 121°23'17765.8
2014-Dec-20 01:29N 31°42' E 121°10'236894.5
2014-Dec-20 01:28N 31°58' E 120°50'662476535.1
2014-Dec-20 01:28N 23°04' E 113°30'1074.5
2014-Dec-20 01:20N 22°54' E 113°28'6198.4
2014-Dec-20 01:19N 22°59' E 113°33'6646625.5
2014-Dec-20 01:13N 32°02' E 120°43'67102.7
2014-Dec-20 00:33N 31°07' E 121°28'71254746.0
2014-Dec-20 00:33N 32°00' E 120°33'5921196.6
2014-Dec-20 00:33N 31°10' E 121°09'6362288734.0
2014-Dec-20 00:33N 23°06' E 113°27'6471164561.0
2014-Dec-20 00:33N 31°58' E 120°21'256907.2
2014-Dec-20 00:33N 31°58' E 120°51'238160.6
2014-Dec-20 00:33N 31°42' E 121°10'3026965.9
2014-Dec-20 00:33N 32°02' E 120°43'49032206515.2
2014-Dec-20 00:33S 20°09' E 057°30'027.3
2014-Dec-20 00:32S 20°09' E 057°30'4906519504.3
2014-Dec-20 00:31N 31°58' E 120°50'66546015.5
2014-Dec-20 00:31N 22°59' E 113°33'7979.5
2014-Dec-20 00:30N 23°04' E 113°29'658263164.2
2014-Dec-20 00:30N 31°29' E 121°23'84708.8
2014-Dec-20 00:23N 32°07' E 119°55'6451933.1
2014-Dec-20 00:03N 22°59' E 113°31'714.8
2014-Dec-19 23:34N 23°05' E 113°27'655393000.3
2014-Dec-19 23:33N 32°00' E 120°33'363682.5
2014-Dec-19 23:33N 31°42' E 121°10'3846088.5
2014-Dec-19 23:33N 31°07' E 121°28'2340565.6
2014-Dec-19 23:33N 31°29' E 121°23'49151474353.4
2014-Dec-19 23:33S 20°09' E 057°30'4868922419.0
2014-Dec-19 23:32N 32°04' E 119°56'48691095427.0
2014-Dec-19 23:32S 20°09' E 057°30'4884247641.6
2014-Dec-19 23:31N 31°58' E 120°21'6477062.1
2014-Dec-19 23:25N 23°03' E 113°30'66215179.4
2014-Dec-19 23:23N 32°02' E 120°43'6649491.3
2014-Dec-19 23:18N 22°59' E 113°33'71236.3
2014-Dec-19 23:18N 23°04' E 113°29'658884.1
2014-Dec-19 22:34N 31°29' E 121°23'534415.8
2014-Dec-19 22:33N 32°00' E 120°33'3013371.6
2014-Dec-19 22:33N 32°01' E 119°58'3823000.4
2014-Dec-19 22:33N 32°02' E 120°43'6748204.9
2014-Dec-19 22:32N 31°07' E 121°28'4905608922.3
2014-Dec-19 22:32S 20°09' E 057°30'4242587402.8
2014-Dec-19 22:32N 23°05' E 113°27'64750636.7
2014-Dec-19 22:31N 31°58' E 120°21'650106343.8
2014-Dec-19 22:30N 22°59' E 113°33'4242324952.8
2014-Dec-19 22:30S 20°09' E 057°30'42431697290.8
2014-Dec-19 22:30N 23°04' E 113°30'66032534.7
2014-Dec-19 22:28N 31°42' E 121°10'66034937.3
2014-Dec-19 22:27N 23°04' E 113°29'6383588.6
2014-Dec-19 22:16N 32°00' E 119°59'45574.5
2014-Dec-19 22:12N 31°58' E 120°52'1624.1
2014-Dec-19 21:33N 32°00' E 120°33'655392981.9
2014-Dec-19 21:33N 23°05' E 113°27'4242803771.9
2014-Dec-19 21:33S 20°09' E 057°30'42433818904.4
2014-Dec-19 21:33N 23°04' E 113°30'644386340.9
2014-Dec-19 21:32N 31°07' E 121°28'7935575.4
2014-Dec-19 21:32N 31°56' E 120°15'113641.9
2014-Dec-19 21:32N 31°58' E 120°02'48702921849.9
2014-Dec-19 21:32S 20°09' E 057°30'4915478191.9
2014-Dec-19 21:31N 31°29' E 121°23'6131456.5
2014-Dec-19 21:31N 31°60' E 120°21'2274.6
2014-Dec-19 21:31N 31°58' E 120°21'65066843.6
2014-Dec-19 21:30N 22°59' E 113°33'66570435.3
2014-Dec-19 21:30N 31°58' E 120°52'22950.3
2014-Dec-19 21:28N 31°42' E 121°10'232005.1
2014-Dec-19 21:28N 31°59' E 120°51'66395475.2
2014-Dec-19 21:27N 23°04' E 113°29'63830221.4
2014-Dec-19 21:26N 31°58' E 120°03'6604577.1
2014-Dec-19 21:17N 22°18' E 114°09'6182.9
2014-Dec-19 20:33N 23°05' E 113°27'655147368.3
2014-Dec-19 20:33N 32°00' E 120°33'4894839055.1
2014-Dec-19 20:33S 20°09' E 057°30'42432182232.9
2014-Dec-19 20:32N 23°04' E 113°30'4243509215.0
2014-Dec-19 20:32S 20°09' E 057°30'4907504750.8
2014-Dec-19 20:31N 31°58' E 120°52'262585.7
2014-Dec-19 20:31N 31°58' E 120°21'6016729.4
2014-Dec-19 20:31N 31°29' E 121°23'660118822.5
2014-Dec-19 20:30N 22°59' E 113°33'64251386.4
2014-Dec-19 20:30N 31°57' E 120°08'676115897.5
2014-Dec-19 20:29N 22°09' E 113°52'69358004.3
2014-Dec-19 20:28N 31°42' E 121°10'66030854.4
2014-Dec-19 20:27N 23°04' E 113°29'64034909.7
2014-Dec-19 20:26N 31°57' E 120°09'30218.6
2014-Dec-19 20:18N 32°02' E 120°43'6790.4
2014-Dec-19 19:33N 31°07' E 121°28'2381109.8
2014-Dec-19 19:33N 31°29' E 121°23'65117751.1
2014-Dec-19 19:33N 31°57' E 120°13'175186.9
2014-Dec-19 19:33N 32°00' E 120°33'164681.1
2014-Dec-19 19:33N 31°57' E 120°15'643385801.7
2014-Dec-19 19:33N 23°05' E 113°27'660148503.1
2014-Dec-19 19:33N 31°42' E 121°10'49115893774.2
2014-Dec-19 19:33S 20°09' E 057°30'49031471010.1
2014-Dec-19 19:32N 32°02' E 120°43'82051.9
2014-Dec-19 19:32N 31°58' E 120°52'6942499672.0
2014-Dec-19 19:32N 22°15' E 113°48'42291691553.1
2014-Dec-19 19:32S 20°09' E 057°30'4884247639.4
2014-Dec-19 19:31N 31°58' E 120°21'2692192.9
2014-Dec-19 19:31N 31°59' E 120°51'66674881.1
2014-Dec-19 19:30N 22°59' E 113°33'6458.1
2014-Dec-19 19:29N 23°04' E 113°30'1 3.3
2014-Dec-19 19:15N 23°04' E 113°29'9538475.2
2014-Dec-19 19:08N 36°56' E 122°28'331564.0
2014-Dec-19 18:33N 31°29' E 121°23'2381131.1
2014-Dec-19 18:33N 31°07' E 121°28'6441159745.0
2014-Dec-19 18:33N 23°05' E 113°27'655214363.8
2014-Dec-19 18:33N 32°00' E 120°33'933655.9
2014-Dec-19 18:33N 31°60' E 120°22'312561160.1
2014-Dec-19 18:33N 36°54' E 122°28'31863611.9
2014-Dec-19 18:33N 31°42' E 121°10'49113536272.2
2014-Dec-19 18:33S 20°09' E 057°30'42431697290.8
2014-Dec-19 18:32N 23°04' E 113°30'4243509214.6
2014-Dec-19 18:32S 20°09' E 057°30'4243263361.1
2014-Dec-19 18:31N 23°04' E 113°29'6417.6
2014-Dec-19 18:30N 22°59' E 113°33'65017857.2
2014-Dec-19 18:28N 31°58' E 120°21'26218.0
2014-Dec-19 18:21N 31°58' E 120°52'663836.7
2014-Dec-19 17:33N 23°05' E 113°27'6582369162.8
2014-Dec-19 17:33N 31°29' E 121°24'59105926.9
2014-Dec-19 17:33N 32°01' E 120°26'72675.3
2014-Dec-19 17:33N 32°00' E 120°33'43810.7
2014-Dec-19 17:33N 32°02' E 120°29'4892704470.1
2014-Dec-19 17:33S 20°09' E 057°30'026.6
2014-Dec-19 17:32S 20°09' E 057°30'49054414686.6
2014-Dec-19 17:32N 31°07' E 121°28'64446377.9
2014-Dec-19 17:31N 23°04' E 113°29'663238552.3
2014-Dec-19 17:31N 31°58' E 120°52'12647.6
2014-Dec-19 17:31N 31°59' E 120°51'66643567.8
2014-Dec-19 17:30N 22°59' E 113°33'6877.2
2014-Dec-19 17:30N 23°04' E 113°30'66042413.3
2014-Dec-19 17:29N 31°42' E 121°10'443115.6
2014-Dec-19 17:28N 31°58' E 120°21'1314.2
2014-Dec-19 16:34N 32°01' E 120°36'21153.9
2014-Dec-19 16:33N 32°00' E 120°33'655294752.4
2014-Dec-19 16:33N 23°05' E 113°27'655294880.0
2014-Dec-19 16:33N 32°02' E 120°32'7326180.8
2014-Dec-19 16:33N 31°07' E 121°28'3923115.9
2014-Dec-19 16:33N 31°42' E 121°10'661216278.3
2014-Dec-19 16:33N 23°02' E 113°31'42432182032.6
2014-Dec-19 16:33S 20°09' E 057°30'026.8
2014-Dec-19 16:32S 20°09' E 057°30'4915333844.4
2014-Dec-19 16:31N 31°29' E 121°24'66030475.9
2014-Dec-19 16:30N 22°59' E 113°33'64312250.8
2014-Dec-19 16:27N 31°57' E 120°10'10318.2
2014-Dec-19 16:25N 31°58' E 120°21'193326.9
2014-Dec-19 16:24N 32°02' E 120°43'65186.1
2014-Dec-19 16:04N 31°10' E 121°28'2039.9
2014-Dec-19 15:34N 31°29' E 121°24'539494.1
2014-Dec-19 15:33N 32°00' E 120°33'655589303.9
2014-Dec-19 15:33N 23°05' E 113°28'643771287.6
2014-Dec-19 15:33N 31°57' E 120°15'4824827.6
2014-Dec-19 15:33N 31°42' E 121°10'3834649.2
2014-Dec-19 15:33N 31°07' E 121°28'651180219.3
2014-Dec-19 15:33N 22°54' E 113°30'42383814350.9
2014-Dec-19 15:33S 20°09' E 057°30'026.6
2014-Dec-19 15:32S 20°09' E 057°30'4884247643.9
2014-Dec-19 15:31N 31°58' E 120°21'65029994.6
2014-Dec-19 15:30N 22°59' E 113°33'4062043.8
2014-Dec-19 15:18N 26°46' E 119°43'32016715.8
2014-Dec-19 15:16N 32°02' E 120°43'340.5
2014-Dec-19 15:13N 32°01' E 120°46'6621019.1
2014-Dec-19 14:34N 23°03' E 113°31'658215434.9
2014-Dec-19 14:33N 31°29' E 121°24'467908.7
2014-Dec-19 14:33N 32°00' E 120°43'666399844.0
2014-Dec-19 14:33N 22°54' E 113°34'4241898037.1
2014-Dec-19 14:33S 20°09' E 057°30'4905551809.0
2014-Dec-19 14:32N 31°07' E 121°28'49055886248.9
2014-Dec-19 14:32S 20°09' E 057°30'4884244204.6
2014-Dec-19 14:31N 31°58' E 120°21'65041778.5
2014-Dec-19 14:30N 22°59' E 113°33'66227096.5
2014-Dec-19 14:28N 31°42' E 121°10'301158.4
2014-Dec-19 14:27N 32°02' E 120°43'6692183.3
2014-Dec-19 14:08N 23°04' E 113°16'6661141.6
2014-Dec-19 13:33N 31°29' E 121°24'97735.2
2014-Dec-19 13:33N 31°24' E 121°31'615632.8
2014-Dec-19 13:33N 32°00' E 120°34'48951957865.6
2014-Dec-19 13:33S 20°09' E 057°30'025.9
2014-Dec-19 13:32S 20°09' E 057°30'424315273303.7
2014-Dec-19 13:32N 22°59' E 113°32'64644734.7
2014-Dec-19 13:31N 31°07' E 121°28'771466.0
2014-Dec-19 13:28N 31°58' E 120°21'648105963.1
2014-Dec-19 13:28N 23°03' E 113°31'6638558.7
2014-Dec-19 13:23N 32°01' E 120°48'481.1
2014-Dec-19 13:20N 32°02' E 120°43'66840053.4
2014-Dec-19 13:19N 22°54' E 113°35'6653984.9
2014-Dec-19 13:09N 31°42' E 121°10'6601115.3
2014-Dec-19 12:33N 23°03' E 113°31'92064.4
2014-Dec-19 12:33N 22°55' E 113°28'664597495.0
2014-Dec-19 12:33N 32°00' E 120°34'655102599.6
2014-Dec-19 12:33N 23°05' E 113°28'42427635534.9
2014-Dec-19 12:33S 20°09' E 057°30'4917885085.0
2014-Dec-19 12:32N 31°28' E 121°27'4917983474.7
2014-Dec-19 12:32S 20°09' E 057°30'4904367771.4
2014-Dec-19 12:31N 32°02' E 120°43'198755.5
2014-Dec-19 12:31N 31°58' E 120°21'65358778.4
2014-Dec-19 12:30N 22°54' E 113°35'649467185.7
2014-Dec-19 12:30N 31°07' E 121°28'381382.9
2014-Dec-19 12:29N 31°42' E 121°10'22212.2
2014-Dec-19 12:22N 31°58' E 120°52'43755.1
2014-Dec-19 12:19N 31°17' E 121°06'6803372.2
2014-Dec-19 12:07N 22°11' E 113°32'6911242.8
2014-Dec-19 11:33N 31°15' E 121°29'651292759.6
2014-Dec-19 11:33N 23°03' E 113°31'656471960.1
2014-Dec-19 11:33N 32°00' E 120°34'48951036517.1
2014-Dec-19 11:33S 20°09' E 057°30'49188852799.9
2014-Dec-19 11:33N 31°25' E 121°32'698628305.8
2014-Dec-19 11:33N 22°10' E 113°37'704180916.1
2014-Dec-19 11:33N 32°02' E 120°43'191187.3
2014-Dec-19 11:32N 31°58' E 120°21'4884428838.4
2014-Dec-19 11:31S 20°09' E 057°30'4896204944.5
2014-Dec-19 11:30N 31°17' E 121°09'26176.0
2014-Dec-19 11:21N 31°42' E 121°10'261843.5
2014-Dec-19 11:20N 31°23' E 121°30'66329477.3
2014-Dec-19 11:19N 23°03' E 113°19'17172.4
2014-Dec-19 11:13N 22°54' E 113°35'6611008.8
2014-Dec-19 10:33N 31°21' E 121°32'4916842750.6
2014-Dec-19 10:33S 20°09' E 057°30'4243449291.9
2014-Dec-19 10:32N 23°03' E 113°31'64840897.5
2014-Dec-19 10:31N 31°58' E 120°21'4884703293.8
2014-Dec-19 10:31S 20°09' E 057°30'4912104627.0
2014-Dec-19 10:28N 31°42' E 121°10'6653771.5
2014-Dec-19 10:18N 22°54' E 113°35'401138.8
2014-Dec-19 10:15N 22°15' E 113°47'51337.6
2014-Dec-19 10:06N 23°03' E 113°30'1 2.3
2014-Dec-19 09:33N 23°03' E 113°31'6521173450.5
2014-Dec-19 09:33N 31°15' E 121°31'4912884163.6
2014-Dec-19 09:33S 20°09' E 057°30'4895440592.3
2014-Dec-19 09:32N 32°01' E 120°35'12824.1
2014-Dec-19 09:31N 31°58' E 120°21'4884517128.4
2014-Dec-19 09:31S 20°09' E 057°30'4907118562.8
2014-Dec-19 09:28N 31°58' E 120°51'81195.5
2014-Dec-19 09:28N 32°02' E 120°43'6683826.7
2014-Dec-19 09:18N 22°54' E 113°35'11155.2
2014-Dec-19 09:13N 23°04' E 113°29'657994.7
2014-Dec-19 08:33N 31°23' E 121°30'132692.9
2014-Dec-19 08:33N 31°10' E 121°28'49071104034.5
2014-Dec-19 08:33S 20°09' E 057°30'42431697313.0
2014-Dec-19 08:33N 23°03' E 113°31'657131494.9
2014-Dec-19 08:32N 32°03' E 120°33'627992.8
2014-Dec-19 08:32N 31°21' E 121°27'659103130.8
2014-Dec-19 08:32N 23°02' E 113°24'4238346726.2
2014-Dec-19 08:31S 20°09' E 057°30'424343273.5
2014-Dec-19 08:25N 23°04' E 113°29'66266178.9
2014-Dec-19 08:24N 32°02' E 120°43'6816929.3
2014-Dec-19 08:19N 22°18' E 114°09'473087.5
2014-Dec-19 08:18N 22°54' E 113°35'1582.0
2014-Dec-19 08:07N 23°02' E 113°21'4682.4
2014-Dec-19 07:33N 22°28' E 113°54'659474472.6
2014-Dec-19 07:33N 31°09' E 121°27'7413998.1
2014-Dec-19 07:33N 32°04' E 120°30'661792919.9
2014-Dec-19 07:33N 23°02' E 113°24'61493.2
2014-Dec-19 07:33N 23°03' E 113°31'62517.7
2014-Dec-19 07:33N 23°03' E 113°25'663795905.5
2014-Dec-19 07:33N 31°42' E 121°10'263083.0
2014-Dec-19 07:32N 31°21' E 121°27'672307.4
2014-Dec-19 07:30N 31°58' E 120°21'488455464.5
2014-Dec-19 07:25S 20°09' E 057°30'019.7
2014-Dec-19 07:24S 20°09' E 057°30'4241526492.0
2014-Dec-19 07:24N 22°54' E 113°35'11750.2
2014-Dec-19 07:23N 23°04' E 113°30'65537404.1
2014-Dec-19 07:22N 31°17' E 121°34'6708899.3
2014-Dec-19 07:17N 22°19' E 114°06'6833158.6
2014-Dec-19 07:04N 31°59' E 120°51'73813.3
2014-Dec-19 07:04N 32°02' E 120°44'6621303.6
2014-Dec-19 06:33N 23°04' E 113°30'619861.8
2014-Dec-19 06:33N 23°02' E 113°24'665239475.6
2014-Dec-19 06:33N 31°14' E 121°47'661169888.7
2014-Dec-19 06:33N 23°03' E 113°31'643771977.0
2014-Dec-19 06:33N 31°06' E 121°27'49048827191.6
2014-Dec-19 06:33S 20°09' E 057°30'4913360943.8
2014-Dec-19 06:32N 31°21' E 121°27'672072.2
2014-Dec-19 06:30N 31°58' E 120°21'4415817.1
2014-Dec-19 06:30N 31°42' E 121°09'324025.7
2014-Dec-19 06:30N 31°14' E 121°29'66526018.8
2014-Dec-19 06:28N 22°18' E 114°09'67724626.3
2014-Dec-19 06:26N 31°42' E 121°10'491263376.3
2014-Dec-19 06:22S 20°09' E 057°30'4904259602.9
2014-Dec-19 06:21N 32°02' E 120°44'66239045.7
2014-Dec-19 06:20N 23°04' E 113°30'1 1.8
2014-Dec-19 05:33N 23°03' E 113°31'1859.6
2014-Dec-19 05:33N 23°04' E 113°30'619870.2
2014-Dec-19 05:33N 23°02' E 113°24'6702410612.7
2014-Dec-19 05:33N 31°20' E 121°48'8375037.0
2014-Dec-19 05:33N 31°58' E 120°21'7429559.6
2014-Dec-19 05:33N 31°11' E 121°28'518284.7
2014-Dec-19 05:33N 31°06' E 121°27'49044413595.8
2014-Dec-19 05:33S 20°09' E 057°30'0 8.9
2014-Dec-19 05:31S 20°09' E 057°30'4913491331.4
2014-Dec-19 05:30N 31°21' E 121°27'30315.8
2014-Dec-19 05:24N 31°45' E 121°05'55556.8
2014-Dec-19 05:18N 31°58' E 120°02'5912567.1
2014-Dec-19 05:18N 31°42' E 121°09'121.7
2014-Dec-19 05:16N 31°42' E 121°09'451709.8
2014-Dec-19 05:15N 31°59' E 120°20'648945.5
2014-Dec-19 04:33N 23°03' E 113°31'643463172.8
2014-Dec-19 04:33N 31°06' E 121°27'6431157186.2
2014-Dec-19 04:33N 23°04' E 113°30'647388122.2
2014-Dec-19 04:33N 31°58' E 120°21'48841034208.5
2014-Dec-19 04:33S 20°09' E 057°30'423815255009.9
2014-Dec-19 04:33N 23°02' E 113°24'665217484.9
2014-Dec-19 04:33N 31°42' E 121°09'3810613.7
2014-Dec-19 04:33N 31°07' E 121°28'142045.1
2014-Dec-19 04:32N 31°21' E 121°27'152490.6
2014-Dec-19 04:32N 31°27' E 121°44'4929290914.3
2014-Dec-19 04:31S 20°09' E 057°30'424793235.0
2014-Dec-19 04:28N 22°18' E 114°09'661793033.1
2014-Dec-19 04:28N 31°57' E 120°08'31611.2
2014-Dec-19 04:25N 32°02' E 120°43'14272.2
2014-Dec-19 04:22N 32°02' E 120°27'22111.9
2014-Dec-19 04:10N 31°58' E 120°02'90146.9
2014-Dec-19 03:33N 31°05' E 121°28'643289133.2
2014-Dec-19 03:33N 23°04' E 113°30'656787031.2
2014-Dec-19 03:33N 32°01' E 120°34'112909.0
2014-Dec-19 03:33N 31°58' E 120°21'75940.7
2014-Dec-19 03:33N 31°56' E 120°14'48778778426.0
2014-Dec-19 03:33S 20°09' E 057°30'49041103399.0
2014-Dec-19 03:33N 31°06' E 121°27'396722.9
2014-Dec-19 03:32N 31°42' E 121°09'663265265.0
2014-Dec-19 03:32N 22°58' E 113°32'8395.8
2014-Dec-19 03:31N 23°02' E 113°24'4238953496.3
2014-Dec-19 03:31S 20°09' E 057°30'4907767976.1
2014-Dec-19 03:30N 31°55' E 120°53'45195.9
2014-Dec-19 03:17N 31°21' E 121°27'48273.5
2014-Dec-19 03:06N 31°58' E 120°51'6701234.5
2014-Dec-19 02:34N 22°53' E 113°34'653783296.4
2014-Dec-19 02:33N 31°58' E 120°18'645290327.1
2014-Dec-19 02:33N 23°04' E 113°30'310226.3
2014-Dec-19 02:33N 23°05' E 113°27'636208274.1
2014-Dec-19 02:33N 31°09' E 121°11'6558804.2
2014-Dec-19 02:33N 31°58' E 120°21'48842930304.3
2014-Dec-19 02:33S 20°09' E 057°30'4913680276.2
2014-Dec-19 02:33N 31°21' E 121°27'152914.9
2014-Dec-19 02:32N 31°06' E 121°27'1222.2
2014-Dec-19 02:32N 31°05' E 121°28'643115654.4
2014-Dec-19 02:32N 23°04' E 113°30'644144873.8
2014-Dec-19 02:31N 31°07' E 121°28'4905490516.0
2014-Dec-19 02:31S 20°09' E 057°30'49041103304.3
2014-Dec-19 02:30N 32°02' E 120°43'30807.6
2014-Dec-19 02:28N 31°42' E 121°09'1287.5
2014-Dec-19 02:20N 31°47' E 120°56'121419.1
2014-Dec-19 02:19N 31°59' E 120°51'45522.1
2014-Dec-19 02:14N 32°01' E 119°58'39313.1
2014-Dec-19 02:07N 32°01' E 120°44'4216910.0
2014-Dec-19 02:06N 32°06' E 119°55'4887.4
2014-Dec-19 01:34N 31°58' E 120°51'2588862.4
2014-Dec-19 01:33N 31°60' E 120°22'7834938.5
2014-Dec-19 01:33N 31°06' E 121°27'7714569.0
2014-Dec-19 01:33N 31°58' E 120°21'48843516331.7
2014-Dec-19 01:33S 20°09' E 057°30'49035884044.2
2014-Dec-19 01:33N 32°02' E 120°43'672100757.0
2014-Dec-19 01:33N 22°47' E 113°38'669240797.9
2014-Dec-19 01:32N 31°46' E 121°03'465972.8
2014-Dec-19 01:32N 31°05' E 121°28'643136063.0
2014-Dec-19 01:32N 23°04' E 113°30'1107.5
2014-Dec-19 01:31N 23°04' E 113°29'655124011.1
2014-Dec-19 01:31N 31°21' E 121°27'49131263423.5
2014-Dec-19 01:31S 20°09' E 057°30'4905735774.0
2014-Dec-19 01:30N 31°07' E 121°28'611861.6
2014-Dec-19 01:28N 31°59' E 120°51'502329.0
2014-Dec-19 01:27N 31°11' E 121°09'316278.5
2014-Dec-19 01:27N 31°42' E 121°10'286813.6
2014-Dec-19 01:27N 32°01' E 120°44'6679164.3
2014-Dec-19 01:22N 22°54' E 113°35'6447602.1
2014-Dec-19 01:17N 31°58' E 120°02'39392.2
2014-Dec-19 01:11N 32°01' E 120°47'66321492.1
2014-Dec-19 01:09N 23°04' E 113°30'6521092.0
2014-Dec-19 00:33N 32°03' E 120°25'6522348899.9
2014-Dec-19 00:33N 23°04' E 113°30'643462877.8
2014-Dec-19 00:33N 31°06' E 121°27'8644449.6
2014-Dec-19 00:33N 31°58' E 120°06'87157260.4
2014-Dec-19 00:33N 31°05' E 121°28'7825473.6
2014-Dec-19 00:33N 31°58' E 120°21'48844395459.6
2014-Dec-19 00:33S 20°09' E 057°30'4911654862.9
2014-Dec-19 00:33N 31°42' E 121°10'3834591.0
2014-Dec-19 00:32N 31°07' E 121°28'674464.7
2014-Dec-19 00:32N 32°02' E 120°43'72445.0
2014-Dec-19 00:31N 31°59' E 120°51'4907504769.9
2014-Dec-19 00:31S 20°09' E 057°30'4895489469.9
2014-Dec-19 00:30N 31°14' E 121°09'28919.3
2014-Dec-19 00:28N 31°42' E 121°09'6594092.7
2014-Dec-19 00:19N 23°04' E 113°30'6623137.9
2014-Dec-19 00:06N 31°58' E 120°50'1935.9
2014-Dec-18 23:33N 32°04' E 120°28'77138354.6
2014-Dec-18 23:33N 31°06' E 121°27'1198.8
2014-Dec-18 23:33N 31°05' E 121°28'7856068.9
2014-Dec-18 23:33N 31°58' E 120°21'48843516334.7
2014-Dec-18 23:33S 20°09' E 057°30'4876923834.2
2014-Dec-18 23:33N 31°57' E 120°12'6412308537.8
2014-Dec-18 23:33N 23°04' E 113°29'66252945.2
2014-Dec-18 23:32N 32°02' E 120°43'6748219.1
2014-Dec-18 23:32N 31°07' E 121°28'4905294310.0
2014-Dec-18 23:31S 20°09' E 057°30'424195431.4
2014-Dec-18 23:28N 22°54' E 113°35'6277708.3
2014-Dec-18 23:23N 31°08' E 120°48'63923980.0
2014-Dec-18 23:22N 22°27' E 113°53'438063.4
2014-Dec-18 23:21N 23°04' E 113°30'66065973.4
2014-Dec-18 23:21N 31°42' E 121°10'6623335.4
2014-Dec-18 23:09N 22°57' E 113°36'9256.4
2014-Dec-18 23:07N 23°04' E 113°30'6391156.1
2014-Dec-18 22:33N 31°17' E 121°07'5599774.7
2014-Dec-18 22:33N 32°04' E 120°32'7415711.1
2014-Dec-18 22:33N 31°06' E 121°27'643165374.3
2014-Dec-18 22:33N 23°04' E 113°29'424315274329.5
2014-Dec-18 22:33S 20°09' E 057°30'49111178752.3
2014-Dec-18 22:33N 31°42' E 121°10'4912151128.3
2014-Dec-18 22:31S 20°09' E 057°30'42435092139.9
2014-Dec-18 22:31N 23°04' E 113°30'64545512.0
2014-Dec-18 22:30N 31°58' E 120°17'66531936.5
2014-Dec-18 22:29N 22°27' E 113°53'361900.8
2014-Dec-18 22:27N 22°59' E 113°34'664597711.6
2014-Dec-18 22:27N 32°02' E 120°43'10375.8
2014-Dec-18 22:26N 31°55' E 120°52'4614.5
2014-Dec-18 22:25N 31°59' E 120°51'66338489.9
2014-Dec-18 22:24N 23°04' E 113°30'647136996.7
2014-Dec-18 22:24N 31°58' E 120°21'78585.4
2014-Dec-18 22:16N 31°05' E 121°28'64530540.6
2014-Dec-18 22:15N 22°57' E 113°36'339.5
2014-Dec-18 22:10N 22°54' E 113°35'6481061.6
2014-Dec-18 21:33N 31°06' E 121°27'70253775.2
2014-Dec-18 21:33N 32°01' E 120°36'6632385312.0
2014-Dec-18 21:33N 22°54' E 113°35'649778626.8
2014-Dec-18 21:33N 31°07' E 121°28'644579493.6
2014-Dec-18 21:33N 23°04' E 113°30'43269.3
2014-Dec-18 21:33N 23°01' E 113°31'649179641.7
2014-Dec-18 21:33N 31°58' E 120°21'48843516339.9
2014-Dec-18 21:33S 20°09' E 057°30'48928805214.0
2014-Dec-18 21:33N 31°16' E 121°04'269494.7
2014-Dec-18 21:33N 31°42' E 121°10'443308.3
2014-Dec-18 21:32N 31°60' E 120°22'64956982.7
2014-Dec-18 21:31N 23°04' E 113°29'4243526727.7
2014-Dec-18 21:31S 20°09' E 057°30'42432182345.7
2014-Dec-18 21:31N 23°04' E 113°30'6623709.8
2014-Dec-18 21:20N 32°02' E 120°43'66517857.7
2014-Dec-18 21:18N 22°57' E 113°36'66511349.6
2014-Dec-18 21:14N 32°00' E 120°48'3217.3
2014-Dec-18 21:13N 31°59' E 120°51'6191.8
2014-Dec-18 20:33N 31°06' E 121°27'6442318433.1
2014-Dec-18 20:33N 23°05' E 113°27'2965.9
2014-Dec-18 20:33N 23°04' E 113°29'647145601.7
2014-Dec-18 20:33N 31°58' E 120°21'1614246.3
2014-Dec-18 20:33N 32°00' E 120°40'489917636622.3
2014-Dec-18 20:33S 20°09' E 057°30'4769903545.2
2014-Dec-18 20:33N 27°60' E 120°53'23950703.5
2014-Dec-18 20:32N 31°59' E 120°50'6118379.0
2014-Dec-18 20:32N 31°07' E 121°28'7630269.1
2014-Dec-18 20:32N 32°02' E 120°27'212141.2
2014-Dec-18 20:31N 31°59' E 120°51'4907430897.1
2014-Dec-18 20:31S 20°09' E 057°30'4904271582.6
2014-Dec-18 20:30N 32°02' E 120°43'6627658.2
2014-Dec-18 20:24N 23°04' E 113°30'6609813.9
2014-Dec-18 20:20N 31°42' E 121°10'39533.4
2014-Dec-18 20:16N 31°08' E 120°48'62286118.8
2014-Dec-18 20:16N 23°04' E 113°30'6566490.9
2014-Dec-18 20:10N 32°04' E 120°30'66010060.9
2014-Dec-18 20:06N 22°57' E 113°36'6411195.9
2014-Dec-18 19:34N 31°01' E 121°27'7084425.6
2014-Dec-18 19:33N 32°01' E 120°45'661237986.1
2014-Dec-18 19:33N 23°04' E 113°29'4243727350.3
2014-Dec-18 19:33S 20°09' E 057°30'4236847195.1
2014-Dec-18 19:33N 23°02' E 113°22'661396669.1
2014-Dec-18 19:33N 32°01' E 120°33'7251605.6
2014-Dec-18 19:32N 31°07' E 121°28'678928.8
2014-Dec-18 19:32N 32°02' E 120°43'7862.4
2014-Dec-18 19:31N 31°59' E 120°51'66359656.8
2014-Dec-18 19:31N 23°04' E 113°30'424315276419.8
2014-Dec-18 19:31S 20°09' E 057°30'424177116.4
2014-Dec-18 19:28N 22°54' E 113°35'64119241.4
2014-Dec-18 19:26N 31°20' E 120°57'316475.3
2014-Dec-18 19:25N 31°05' E 121°28'783951.4
2014-Dec-18 19:24N 31°58' E 120°21'6472637.5
2014-Dec-18 19:09N 23°04' E 113°30'66056544.5
2014-Dec-18 19:09N 31°42' E 121°09'66213248.3
2014-Dec-18 19:06N 22°57' E 113°36'6361186.5
2014-Dec-18 18:33N 30°59' E 121°21'1012516.0
2014-Dec-18 18:33N 31°07' E 121°28'6491167947.8
2014-Dec-18 18:33N 22°54' E 113°35'128479.7
2014-Dec-18 18:33N 23°04' E 113°29'643330555.3
2014-Dec-18 18:33N 31°05' E 121°28'78140225.0
2014-Dec-18 18:33N 31°58' E 120°21'48841465122.5
2014-Dec-18 18:33S 20°09' E 057°30'4243727454.5
2014-Dec-18 18:33N 22°57' E 113°36'662298089.0
2014-Dec-18 18:32N 31°42' E 121°09'4912175066.9
2014-Dec-18 18:31S 20°09' E 057°30'424381257.6
2014-Dec-18 18:28N 23°04' E 113°30'0 1.3
2014-Dec-18 18:24N 23°04' E 113°30'6554839.0
2014-Dec-18 18:16N 32°01' E 120°32'101815.9
2014-Dec-18 18:16N 32°02' E 120°43'8112.4
2014-Dec-18 18:11N 31°58' E 120°52'89745.8
2014-Dec-18 18:11N 32°00' E 120°43'66148558.8
2014-Dec-18 18:11N 23°02' E 113°31'5 8.0
2014-Dec-18 17:33N 23°05' E 113°27'6312270735.4
2014-Dec-18 17:33N 30°58' E 121°15'269482.6
2014-Dec-18 17:33N 31°22' E 121°28'1552380.0
2014-Dec-18 17:33N 31°07' E 121°28'7734477.4
2014-Dec-18 17:33N 31°58' E 120°21'647388235.6
2014-Dec-18 17:33N 23°04' E 113°29'424315274342.5
2014-Dec-18 17:33S 20°09' E 057°30'49041765389.2
2014-Dec-18 17:33N 31°05' E 121°28'4011148.7
2014-Dec-18 17:33N 31°42' E 121°09'4912162218.5
2014-Dec-18 17:31S 20°09' E 057°30'424327085.7
2014-Dec-18 17:21N 23°04' E 113°30'0 1.6
2014-Dec-18 17:19N 23°04' E 113°30'6639247.3
2014-Dec-18 17:14N 31°60' E 120°50'9372.4
2014-Dec-18 17:13N 31°52' E 120°54'6628989.5
2014-Dec-18 17:09N 22°57' E 113°36'339.3
2014-Dec-18 17:04N 22°54' E 113°35'1122.6
2014-Dec-18 16:33N 23°04' E 113°30'01607.5
2014-Dec-18 16:33N 23°04' E 113°29'644122044.2
2014-Dec-18 16:33N 31°07' E 121°28'49058828938.3
2014-Dec-18 16:33S 20°09' E 057°30'49041260992.3
2014-Dec-18 16:33N 31°05' E 121°28'4024155.6
2014-Dec-18 16:33N 31°42' E 121°09'452115.4
2014-Dec-18 16:31N 30°58' E 121°10'4885517280.1
2014-Dec-18 16:31S 20°09' E 057°30'42432182345.7
2014-Dec-18 16:31N 23°04' E 113°30'7215.8
2014-Dec-18 16:29N 22°58' E 113°32'65123203.8
2014-Dec-18 16:27N 31°58' E 120°21'32336.5
2014-Dec-18 16:21N 31°47' E 120°57'27518.9
2014-Dec-18 16:18N 32°02' E 120°30'11436.2
2014-Dec-18 16:17N 32°02' E 120°43'13111.7
2014-Dec-18 16:10N 31°53' E 120°54'66330191.1
2014-Dec-18 16:09N 22°57' E 113°36'6291076.6
2014-Dec-18 15:34N 31°01' E 121°06'207146.9
2014-Dec-18 15:33N 31°07' E 121°28'644773098.7
2014-Dec-18 15:33N 23°04' E 113°29'643330564.0
2014-Dec-18 15:33N 31°05' E 121°28'7831155.9
2014-Dec-18 15:33N 31°58' E 120°21'48844395428.0
2014-Dec-18 15:33S 20°09' E 057°30'42421388407.2
2014-Dec-18 15:33N 23°05' E 113°28'660396080.7
2014-Dec-18 15:33N 31°42' E 121°09'131673.8
2014-Dec-18 15:32N 31°49' E 120°56'275651.8
2014-Dec-18 15:32N 32°04' E 120°30'65698431.2
2014-Dec-18 15:32N 23°04' E 113°30'66259542.7
2014-Dec-18 15:31N 32°02' E 120°43'49041765286.8
2014-Dec-18 15:31S 20°09' E 057°30'4910242112.5
2014-Dec-18 15:29N 31°46' E 121°04'33454.3
2014-Dec-18 15:25N 32°02' E 120°30'65457439.9
2014-Dec-18 15:24N 23°04' E 113°30'644755.5
2014-Dec-18 14:33N 31°07' E 121°28'2850.5
2014-Dec-18 14:33N 31°05' E 121°28'7825484.5
2014-Dec-18 14:33N 31°58' E 120°21'48842197707.6
2014-Dec-18 14:33S 20°09' E 057°30'423615248210.3
2014-Dec-18 14:33N 23°02' E 113°21'726252.1
2014-Dec-18 14:33N 23°04' E 113°29'662264710.1
2014-Dec-18 14:33N 32°02' E 120°43'243195.0
2014-Dec-18 14:32N 31°46' E 121°04'347251.3
2014-Dec-18 14:32N 32°04' E 120°30'4894223037.9
2014-Dec-18 14:31S 20°09' E 057°30'49122526203.5
2014-Dec-18 14:31N 31°42' E 121°10'125.9
2014-Dec-18 14:28N 31°42' E 121°09'39138645.7
2014-Dec-18 14:28N 32°02' E 120°30'654181156.8
2014-Dec-18 14:28N 23°04' E 113°30'6595676.5
2014-Dec-18 14:21N 31°41' E 121°10'6594707.8
2014-Dec-18 14:13N 23°04' E 113°30'621106483.5
2014-Dec-18 14:12N 31°01' E 120°56'241373.6
2014-Dec-18 13:33N 34°49' E 119°23'7701386674.2
2014-Dec-18 13:33N 23°04' E 113°30'643144585.4
2014-Dec-18 13:33N 31°05' E 121°28'3911633.2
2014-Dec-18 13:33N 31°41' E 121°10'65979111.6
2014-Dec-18 13:32N 23°04' E 113°29'64145272.2
2014-Dec-18 13:32N 32°06' E 119°55'7014727.3
2014-Dec-18 13:31N 31°41' E 121°12'4912431322.0
2014-Dec-18 13:31S 20°09' E 057°30'4884488399.4
2014-Dec-18 13:30N 31°58' E 120°21'191111.9
2014-Dec-18 13:29N 32°02' E 120°43'11811.6
2014-Dec-18 13:28N 32°01' E 120°30'65410802.4
2014-Dec-18 13:25N 23°04' E 113°30'6604059.6
2014-Dec-18 13:15N 31°42' E 121°09'660957.9
2014-Dec-18 12:33N 23°02' E 113°31'771308299.4
2014-Dec-18 12:33N 34°48' E 119°24'24663316.3
2014-Dec-18 12:33N 31°05' E 121°28'49044413431.2
2014-Dec-18 12:33S 20°09' E 057°30'42393815450.7
2014-Dec-18 12:33N 23°04' E 113°25'664239137.9
2014-Dec-18 12:33N 32°02' E 120°43'401608.0
2014-Dec-18 12:31N 31°36' E 121°18'4914491435.6
2014-Dec-18 12:31S 20°09' E 057°30'4893303700.1
2014-Dec-18 12:30N 32°01' E 120°30'733616.1
2014-Dec-18 12:28N 31°07' E 121°28'383645.1
2014-Dec-18 12:28N 31°42' E 121°09'6654938.0
2014-Dec-18 12:20N 23°02' E 113°22'6686834.6
2014-Dec-18 12:14N 31°59' E 120°51'6638677.4
2014-Dec-18 12:09N 23°04' E 113°30'6621107.8
2014-Dec-18 11:33N 32°02' E 120°43'6927401.7
2014-Dec-18 11:33N 31°05' E 121°28'24688676.6
2014-Dec-18 11:33N 34°49' E 119°24'17791014.0
2014-Dec-18 11:33N 31°58' E 120°21'48843516226.9
2014-Dec-18 11:33S 20°09' E 057°30'42413053265.6
2014-Dec-18 11:33N 23°05' E 113°26'656214555.8
2014-Dec-18 11:33N 32°01' E 120°30'736138.3
2014-Dec-18 11:32N 31°07' E 121°28'4905223527.1
2014-Dec-18 11:31S 20°09' E 057°30'4238372101.8
2014-Dec-18 11:30N 22°53' E 113°31'1180.2
2014-Dec-18 11:22N 23°04' E 113°29'65944769.5
2014-Dec-18 11:21N 31°42' E 121°09'13165.1
2014-Dec-18 11:21N 31°42' E 121°10'6647161.8
2014-Dec-18 11:15N 23°02' E 113°24'51555.2
2014-Dec-18 11:10N 22°17' E 113°50'42470.0
2014-Dec-18 11:04N 22°54' E 113°28'66542016.0
2014-Dec-18 11:03N 32°04' E 120°30'6671341.1
2014-Dec-18 10:33N 22°54' E 113°24'667343139.8
2014-Dec-18 10:33N 32°04' E 120°30'102540.6
2014-Dec-18 10:33N 31°58' E 120°21'48844395283.6
2014-Dec-18 10:33S 20°09' E 057°30'49053531577.8
2014-Dec-18 10:33N 31°07' E 121°28'24351539.3
2014-Dec-18 10:33N 34°48' E 119°26'205368892.9
2014-Dec-18 10:33N 31°42' E 121°10'397311.2
2014-Dec-18 10:32N 32°02' E 120°30'114507.8
2014-Dec-18 10:32N 32°02' E 120°43'4904205265.9
2014-Dec-18 10:31S 20°09' E 057°30'4226241505.7
2014-Dec-18 10:30N 22°14' E 113°46'690146209.6
2014-Dec-18 10:29N 31°27' E 121°29'66419592.5
2014-Dec-18 10:27N 23°02' E 113°24'64712014.2
2014-Dec-18 10:24N 31°05' E 121°28'64315124.8
2014-Dec-18 10:22N 23°04' E 113°29'0 0.1
2014-Dec-18 09:34N 23°04' E 113°29'662397064.1
2014-Dec-18 09:33N 32°02' E 120°43'164816.1
2014-Dec-18 09:33N 32°01' E 120°25'7634213.9
2014-Dec-18 09:33N 31°07' E 121°28'49052943109.0
2014-Dec-18 09:33S 20°09' E 057°30'49042522095.8
2014-Dec-18 09:33N 31°05' E 121°28'4011124.9
2014-Dec-18 09:33N 31°42' E 121°10'205245621.1
2014-Dec-18 09:33N 34°48' E 119°26'17631646.9
2014-Dec-18 09:32N 31°58' E 120°20'65090052.9
2014-Dec-18 09:32N 23°02' E 113°24'66451988.5
2014-Dec-18 09:31N 31°25' E 121°32'4919737807.9
2014-Dec-18 09:31S 20°09' E 057°30'421915187043.1
2014-Dec-18 09:31N 22°11' E 113°38'6987976.9
2014-Dec-18 09:25N 31°41' E 121°10'41144.8
2014-Dec-18 09:08N 32°04' E 120°30'6561133.5
2014-Dec-18 08:34N 23°04' E 113°29'42431909356.2
2014-Dec-18 08:33S 20°09' E 057°30'490517658639.8
2014-Dec-18 08:33N 31°07' E 121°28'2975.4
2014-Dec-18 08:33N 31°05' E 121°28'49041176967.1
2014-Dec-18 08:33S 20°09' E 057°30'48941101260.4
2014-Dec-18 08:33N 32°04' E 120°30'40144305.7
2014-Dec-18 08:33N 31°42' E 121°10'1165.6
2014-Dec-18 08:32N 31°41' E 121°10'517354.4
2014-Dec-18 08:32N 31°56' E 120°13'6451161559.2
2014-Dec-18 08:32N 23°02' E 113°24'66431466.5
2014-Dec-18 08:30N 31°25' E 121°32'52367.3
2014-Dec-18 08:22N 32°01' E 120°47'3228.6
2014-Dec-18 08:21N 32°02' E 120°43'0 0.0
2014-Dec-18 07:33N 32°02' E 120°43'490417652868.4
2014-Dec-18 07:33S 20°09' E 057°30'49138842578.3
2014-Dec-18 07:33N 31°41' E 121°12'3811548.7
2014-Dec-18 07:33N 31°05' E 121°28'7792320.0
2014-Dec-18 07:33N 32°04' E 120°30'48942517148.4
2014-Dec-18 07:33S 20°09' E 057°30'42341385800.2
2014-Dec-18 07:33N 23°03' E 113°19'651468687.9
2014-Dec-18 07:33N 31°07' E 121°28'385128.8
2014-Dec-18 07:32N 31°42' E 121°10'252761.7
2014-Dec-18 07:32N 31°25' E 121°32'6605484.7
2014-Dec-18 07:25N 23°04' E 113°29'63817024.3
2014-Dec-18 07:22N 31°57' E 120°06'359097.7
2014-Dec-18 07:22N 32°01' E 120°47'360.1
2014-Dec-18 07:19N 31°59' E 120°50'2025.8
2014-Dec-18 06:34N 32°04' E 120°27'48912515609.6
2014-Dec-18 06:33S 20°09' E 057°30'49051038709.1
2014-Dec-18 06:33N 31°07' E 121°28'648179364.1
2014-Dec-18 06:33N 23°03' E 113°25'66554417.4
2014-Dec-18 06:32N 32°02' E 120°43'5515290.3
2014-Dec-18 06:32N 31°25' E 121°32'66412390.8
2014-Dec-18 06:29N 23°02' E 113°24'665132951.1
2014-Dec-18 06:28N 31°41' E 121°12'66010289.4
2014-Dec-18 06:25N 23°04' E 113°29'6637230.4
2014-Dec-18 06:19N 32°01' E 120°47'661834.7
2014-Dec-18 06:17N 31°05' E 121°28'402129.3
2014-Dec-18 06:16N 31°42' E 121°10'23268.6
2014-Dec-18 06:11N 31°59' E 120°51'6097.5
2014-Dec-18 05:34N 31°07' E 121°28'77277976.0
2014-Dec-18 05:33N 32°01' E 120°24'48881955085.6
2014-Dec-18 05:33S 20°09' E 057°30'4243509172.0
2014-Dec-18 05:33N 23°03' E 113°30'643771340.0
2014-Dec-18 05:33N 31°05' E 121°28'406585.5
2014-Dec-18 05:32N 31°42' E 121°09'252284.3
2014-Dec-18 05:32N 31°25' E 121°32'552722.7
2014-Dec-18 05:31N 32°02' E 120°43'66622207.1
2014-Dec-18 05:29N 23°02' E 113°24'66513148.3
2014-Dec-18 05:26N 31°41' E 121°12'29425.5
2014-Dec-18 05:22N 32°01' E 120°47'6633277.5
2014-Dec-18 05:10N 23°04' E 113°29'42437058.6
2014-Dec-18 04:33S 20°09' E 057°30'0159.5
2014-Dec-18 04:33S 20°09' E 057°30'4895429779.0
2014-Dec-18 04:33N 32°00' E 120°34'611539.8
2014-Dec-18 04:30N 31°24' E 121°31'5610587.3
2014-Dec-18 04:30N 32°02' E 120°43'66818487.7
2014-Dec-18 04:28N 23°03' E 113°20'66627248.4
2014-Dec-18 04:26N 31°42' E 121°09'27750.6
2014-Dec-18 04:24N 32°01' E 120°47'66315005.5
2014-Dec-18 04:22N 23°04' E 113°29'66033477.2
2014-Dec-18 04:20N 31°41' E 121°12'67045480.1
2014-Dec-18 04:19N 22°55' E 113°26'6734665.2
2014-Dec-18 04:11N 31°59' E 120°51'602577.9
2014-Dec-18 04:09N 31°07' E 121°28'49058179.5
2014-Dec-18 03:33S 20°09' E 057°30'49065887464.2
2014-Dec-18 03:33N 31°09' E 121°27'72260623.4
2014-Dec-18 03:33N 32°02' E 120°29'48928805719.3
2014-Dec-18 03:33S 20°09' E 057°30'48815857114.3
2014-Dec-18 03:33N 31°57' E 120°18'699233.2
2014-Dec-18 03:33N 31°21' E 121°27'246610.3
2014-Dec-18 03:33N 31°41' E 121°12'32837.7
2014-Dec-18 03:30N 32°02' E 120°43'6780751.7
2014-Dec-18 03:30N 31°06' E 121°27'6577433.5
2014-Dec-18 03:30N 32°01' E 120°47'27711.7
2014-Dec-18 03:28N 31°42' E 121°09'66011368.3
2014-Dec-18 03:25N 23°04' E 113°29'4972465.5
2014-Dec-18 03:12N 27°59' E 120°52'47677324.9
2014-Dec-18 02:33S 20°09' E 057°30'48875864710.2
2014-Dec-18 02:33N 32°00' E 120°24'2070763.4
2014-Dec-18 02:33N 32°01' E 120°47'6143963.6
2014-Dec-18 02:33N 31°11' E 121°28'2357.0
2014-Dec-18 02:33N 31°12' E 121°30'3511338.7
2014-Dec-18 02:33N 31°42' E 121°10'664149357.3
2014-Dec-18 02:32N 23°02' E 113°25'645387106.9
2014-Dec-18 02:32N 31°56' E 120°14'4877650257.9
2014-Dec-18 02:32S 20°09' E 057°30'4767161912.9
2014-Dec-18 02:30N 27°59' E 120°52'4975400.2
2014-Dec-18 02:25N 23°04' E 113°29'6626387.3
2014-Dec-18 02:18N 32°02' E 120°43'7101.9
2014-Dec-18 02:14N 31°59' E 120°51'4 6.1
2014-Dec-18 01:33N 32°01' E 120°47'490617659870.6
2014-Dec-18 01:33S 20°09' E 057°30'49101964118.4
2014-Dec-18 01:33N 31°14' E 121°29'756727.8
2014-Dec-18 01:33N 31°57' E 120°17'4919468.8
2014-Dec-18 01:32N 31°41' E 121°12'4912465391.6
2014-Dec-18 01:32S 20°09' E 057°30'424215269424.6
2014-Dec-18 01:32N 23°05' E 113°27'660792169.3
2014-Dec-18 01:32N 31°41' E 121°10'312703.2
2014-Dec-18 01:31N 32°02' E 120°43'551748.4
2014-Dec-18 01:29N 31°21' E 121°27'4829063.5
2014-Dec-18 01:29N 31°59' E 120°51'371537.1
2014-Dec-18 01:28N 31°56' E 120°08'553165.4
2014-Dec-18 01:27N 31°42' E 121°10'66040254.0
2014-Dec-18 01:26N 23°04' E 113°30'147.7
2014-Dec-18 01:25N 23°04' E 113°29'6692574.6
2014-Dec-18 01:09N 31°25' E 121°48'3559.1
2014-Dec-18 00:34N 31°41' E 121°12'3719016.1
2014-Dec-18 00:33N 31°21' E 121°48'492817742257.4
2014-Dec-18 00:33S 20°09' E 057°30'4903588404.1
2014-Dec-18 00:33N 32°02' E 120°43'302906.8
2014-Dec-18 00:32N 31°42' E 121°10'236294.9
2014-Dec-18 00:32N 31°59' E 120°51'4907929826.3
2014-Dec-18 00:32S 20°09' E 057°30'49151040907.2
2014-Dec-18 00:31N 31°17' E 121°34'7276.0
2014-Dec-18 00:30N 31°21' E 121°27'821576.0
2014-Dec-18 00:27N 31°58' E 120°01'6379029.9
2014-Dec-18 00:23N 23°04' E 113°30'147.6
2014-Dec-18 00:22N 23°04' E 113°29'0 0.1
2014-Dec-17 23:34N 23°04' E 113°29'4452233.9
2014-Dec-17 23:33N 22°27' E 113°53'42392543438.6
2014-Dec-17 23:33S 20°09' E 057°30'491217684580.4
2014-Dec-17 23:33N 31°41' E 121°12'392435.7
2014-Dec-17 23:32N 31°16' E 121°46'4172953.9
2014-Dec-17 23:32N 31°42' E 121°10'235478.6
2014-Dec-17 23:32N 31°59' E 120°51'4829063.5
2014-Dec-17 23:32N 31°21' E 121°27'49131105477.9
2014-Dec-17 23:32S 20°09' E 057°30'49061261538.7
2014-Dec-17 23:32N 31°58' E 120°50'503753.5
2014-Dec-17 23:31N 31°21' E 121°30'111.1
2014-Dec-17 23:26N 31°21' E 121°31'6563165.7
2014-Dec-17 23:14N 23°04' E 113°30'1 1.1
2014-Dec-17 22:34N 23°04' E 113°29'42431697101.7
2014-Dec-17 22:33S 20°09' E 057°30'4903767481.9
2014-Dec-17 22:33N 32°02' E 120°43'303266.4
2014-Dec-17 22:32N 31°42' E 121°10'21839.9
2014-Dec-17 22:32N 31°41' E 121°12'257447.2
2014-Dec-17 22:32N 31°59' E 120°51'4907841263.5
2014-Dec-17 22:32S 20°09' E 057°30'4913803983.9
2014-Dec-17 22:31N 31°21' E 121°27'2522701.7
2014-Dec-17 22:31N 31°09' E 121°53'256506.0
2014-Dec-17 22:31N 31°25' E 121°30'532822.4
2014-Dec-17 22:30N 32°00' E 120°43'6609028.6
2014-Dec-17 22:26N 23°04' E 113°30'6583962.5
2014-Dec-17 22:16N 31°24' E 121°31'6187.5
2014-Dec-17 21:34N 32°01' E 120°33'911211.9
2014-Dec-17 21:33N 32°02' E 120°43'682409273.5
2014-Dec-17 21:33N 22°19' E 114°05'424515281650.8
2014-Dec-17 21:33S 20°09' E 057°30'4913431394.7
2014-Dec-17 21:33N 31°21' E 121°27'486702.5
2014-Dec-17 21:32N 31°59' E 120°51'4907630953.6
2014-Dec-17 21:32S 20°09' E 057°30'4913123671.8
2014-Dec-17 21:29N 31°41' E 121°12'240.1
2014-Dec-17 21:26N 31°42' E 121°10'66050530.3
2014-Dec-17 21:26N 23°04' E 113°30'143.9
2014-Dec-17 21:25N 23°04' E 113°29'540.8
2014-Dec-17 21:17N 22°60' E 113°32'42435872.4
2014-Dec-17 20:33S 20°09' E 057°30'4243803905.7
2014-Dec-17 20:33N 22°60' E 113°32'6512343069.6
2014-Dec-17 20:33N 31°60' E 120°23'466089.1
2014-Dec-17 20:33N 31°41' E 121°12'2485547.1
2014-Dec-17 20:33N 31°21' E 121°27'4810257.7
2014-Dec-17 20:32N 31°59' E 120°51'4907609191.4
2014-Dec-17 20:32S 20°09' E 057°30'42455094426.6
2014-Dec-17 20:32N 22°13' E 114°10'68535242.6
2014-Dec-17 20:31N 32°02' E 120°43'6626545.0
2014-Dec-17 20:25N 23°04' E 113°29'123.3
2014-Dec-17 20:23N 23°04' E 113°30'65810671.8
2014-Dec-17 20:19N 31°32' E 121°20'49146465.6
2014-Dec-17 19:33S 20°09' E 057°30'4911465297.3
2014-Dec-17 19:33N 31°42' E 121°10'3017962.7
2014-Dec-17 19:33N 32°02' E 120°43'329589.9
2014-Dec-17 19:32N 31°41' E 121°12'528972.9
2014-Dec-17 19:32N 31°56' E 120°13'3311871.8
2014-Dec-17 19:32N 31°59' E 120°51'49072944422.3
2014-Dec-17 19:32S 20°09' E 057°30'4913589588.2
2014-Dec-17 19:31N 31°21' E 121°27'65646302.1
2014-Dec-17 19:30N 22°60' E 113°32'66115545.6
2014-Dec-17 19:28N 31°36' E 121°17'65917063.8
2014-Dec-17 19:26N 23°04' E 113°30'140.8
2014-Dec-17 19:25N 23°04' E 113°29'691110.9
2014-Dec-17 19:21N 22°13' E 114°19'6987.8
2014-Dec-17 18:34N 23°04' E 113°29'42431174918.6
2014-Dec-17 18:33S 20°09' E 057°30'4913589573.2
2014-Dec-17 18:33N 31°21' E 121°27'246580.5
2014-Dec-17 18:33N 31°41' E 121°12'2353.2
2014-Dec-17 18:32N 31°42' E 121°10'4912707269.9
2014-Dec-17 18:32S 20°09' E 057°30'5162489010.6
2014-Dec-17 18:31N 36°50' E 122°38'3048054.9
2014-Dec-17 18:29N 31°59' E 120°51'66574797.6
2014-Dec-17 18:28N 22°60' E 113°32'63920553.3
2014-Dec-17 18:27N 31°58' E 120°02'63745876.8
2014-Dec-17 18:26N 23°04' E 113°30'42434861.8
2014-Dec-17 17:33S 20°09' E 057°30'51561160060.3
2014-Dec-17 17:33N 36°54' E 122°27'31825416.2
2014-Dec-17 17:32N 31°43' E 121°07'286613.5
2014-Dec-17 17:32N 31°21' E 121°27'245347.8
2014-Dec-17 17:32N 31°41' E 121°12'49138842529.0
2014-Dec-17 17:32S 20°09' E 057°30'424350250.6
2014-Dec-17 17:27N 23°04' E 113°30'120.6
2014-Dec-17 17:25N 23°04' E 113°29'517.7
2014-Dec-17 17:06N 22°60' E 113°32'42437695.0
2014-Dec-17 16:33S 20°09' E 057°30'49131473933.0
2014-Dec-17 16:33N 31°21' E 121°27'4913229709.9
2014-Dec-17 16:32S 20°09' E 057°30'4913680194.7
2014-Dec-17 16:31N 31°41' E 121°12'662113446.7
2014-Dec-17 16:31N 22°60' E 113°32'953107197.9
2014-Dec-17 16:30N 36°53' E 122°26'3154979.8
2014-Dec-17 16:27N 31°45' E 121°03'65918106.9
2014-Dec-17 16:25N 23°04' E 113°29'6609858.5
2014-Dec-17 16:20N 31°42' E 121°10'30417.2
2014-Dec-17 16:16N 32°00' E 120°42'6624864.6
2014-Dec-17 16:08N 23°03' E 113°25'4 6.6
2014-Dec-17 15:34N 23°04' E 113°29'655785428.0
2014-Dec-17 15:33N 31°21' E 121°27'2421430.4
2014-Dec-17 15:33N 31°41' E 121°12'6622382094.5
2014-Dec-17 15:33N 22°60' E 113°32'42433054923.0
2014-Dec-17 15:33S 20°09' E 057°30'4908353404.0
2014-Dec-17 15:32N 31°45' E 121°03'66761572.7
2014-Dec-17 15:32N 22°54' E 113°30'423715254148.7
2014-Dec-17 15:32S 20°09' E 057°30'515541984.2
2014-Dec-17 15:24N 36°53' E 122°26'3174945.5
2014-Dec-17 15:21N 31°42' E 121°09'49116232.3
2014-Dec-17 14:33S 20°09' E 057°30'4913401981.4
2014-Dec-17 14:33N 31°21' E 121°27'242043.5
2014-Dec-17 14:32N 31°41' E 121°12'49128842381.8
2014-Dec-17 14:32S 20°09' E 057°30'490986620.9
2014-Dec-17 14:28N 31°45' E 121°03'6187.6
2014-Dec-17 14:26N 31°42' E 121°09'66020839.9
2014-Dec-17 14:25N 23°04' E 113°29'533.3
2014-Dec-17 14:15N 23°00' E 113°32'42436119.6
2014-Dec-17 13:33S 20°09' E 057°30'4912360904.3
2014-Dec-17 13:32N 31°41' E 121°12'249538.4
2014-Dec-17 13:32N 31°21' E 121°27'4913570569.2
2014-Dec-17 13:32S 20°09' E 057°30'424336717.1
2014-Dec-17 13:25N 23°04' E 113°29'65919932.7
2014-Dec-17 13:23N 31°45' E 121°03'6153.3
2014-Dec-17 13:20N 31°42' E 121°10'6643177.2
2014-Dec-17 13:08N 22°55' E 113°36'42437346.6
2014-Dec-17 12:33S 20°09' E 057°30'4913982682.5
2014-Dec-17 12:33N 31°22' E 121°28'322919.4
2014-Dec-17 12:32N 31°45' E 121°03'81238.9
2014-Dec-17 12:32N 31°41' E 121°12'491296638.0
2014-Dec-17 12:29S 20°09' E 057°30'424361342.6
2014-Dec-17 12:25N 23°04' E 113°29'6609102.9
2014-Dec-17 12:20N 31°42' E 121°10'660846.4
2014-Dec-17 11:34N 23°04' E 113°29'4243848547.9
2014-Dec-17 11:33S 20°09' E 057°30'4911310197.8
2014-Dec-17 11:32N 31°42' E 121°10'267123.4
2014-Dec-17 11:32N 31°22' E 121°28'4914804034.2
2014-Dec-17 11:32S 20°09' E 057°30'4910192134.2
2014-Dec-17 11:30N 31°43' E 121°07'27567.6
2014-Dec-17 11:27N 32°02' E 120°43'21330.2
2014-Dec-17 11:23N 31°47' E 120°59'4282228.4
2014-Dec-17 11:12N 24°53' E 118°57'7745379.5
2014-Dec-17 11:03N 37°31' E 121°57'515610272.1
2014-Dec-17 10:33S 20°09' E 057°30'49138844141.6
2014-Dec-17 10:33N 31°22' E 121°28'261780.8
2014-Dec-17 10:32N 31°42' E 121°10'4912465309.3
2014-Dec-17 10:32S 20°09' E 057°30'4569164473.5
2014-Dec-17 10:30N 24°53' E 118°57'3193511.6
2014-Dec-17 10:25N 23°04' E 113°29'6578504.7
2014-Dec-17 10:20N 31°48' E 120°55'6658801.7
2014-Dec-17 10:15N 22°54' E 113°30'1115.2
2014-Dec-17 09:33N 23°04' E 113°29'661339786.0
2014-Dec-17 09:33N 31°55' E 120°52'49062207656.2
2014-Dec-17 09:33S 20°09' E 057°30'4914431468.9
2014-Dec-17 09:33N 31°22' E 121°28'268460.5
2014-Dec-17 09:32N 31°42' E 121°10'4912420994.1
2014-Dec-17 09:32S 20°09' E 057°30'4569158147.6
2014-Dec-17 09:30N 24°53' E 118°57'4381421.7
2014-Dec-17 09:11N 31°59' E 120°51'438682.0
2014-Dec-17 08:33N 24°53' E 118°57'4569632571.1
2014-Dec-17 08:32S 20°09' E 057°30'49128840875.3
2014-Dec-17 08:32N 31°42' E 121°10'272989.6
2014-Dec-17 08:32N 32°00' E 120°46'49041358014.7
2014-Dec-17 08:32S 20°09' E 057°30'4916610277.7
2014-Dec-17 08:31N 31°23' E 121°30'335120500.9
2014-Dec-17 08:31N 36°54' E 122°28'9528747.0
2014-Dec-17 08:25N 23°04' E 113°29'66318209.9
2014-Dec-17 08:22N 31°59' E 120°49'663814.1
2014-Dec-17 07:33N 23°04' E 113°29'659474293.5
2014-Dec-17 07:33N 31°26' E 121°29'4917368779.3
2014-Dec-17 07:33S 20°09' E 057°30'48961258993.4
2014-Dec-17 07:32N 31°60' E 120°36'4896429900.5
2014-Dec-17 07:32S 20°09' E 057°30'4570329066.9
2014-Dec-17 07:31N 24°47' E 119°03'733.6
2014-Dec-17 07:18N 24°52' E 118°58'4268118.9
2014-Dec-17 07:14N 31°42' E 121°10'544701.6
2014-Dec-17 07:14N 31°56' E 120°09'3213313.0
2014-Dec-17 07:08N 36°56' E 122°28'310538.0
2014-Dec-17 06:33N 32°02' E 120°27'437112323.4
2014-Dec-17 06:33N 24°53' E 118°55'428140157.4
2014-Dec-17 06:33N 31°56' E 120°12'4876923782.9
2014-Dec-17 06:33S 20°09' E 057°30'490717666673.7
2014-Dec-17 06:33N 31°59' E 120°51'4907315476.8
2014-Dec-17 06:32S 20°09' E 057°30'48981175601.7
2014-Dec-17 06:31N 31°60' E 120°39'30934793.7
2014-Dec-17 06:31N 36°55' E 122°28'97948955.2
2014-Dec-17 06:30N 22°27' E 113°48'68423225.2
2014-Dec-17 06:28N 32°02' E 120°44'301195.8
2014-Dec-17 06:26N 31°42' E 121°10'66023524.2
2014-Dec-17 06:25N 23°04' E 113°29'3273269.1
2014-Dec-17 06:19N 24°44' E 119°10'443579.3
2014-Dec-17 05:33N 32°00' E 120°34'135749.1
2014-Dec-17 05:33N 31°59' E 120°19'1144.7
2014-Dec-17 05:32N 31°58' E 120°20'669344264.8
2014-Dec-17 05:32N 22°27' E 113°48'4236586484.3
2014-Dec-17 05:32S 20°09' E 057°30'0 8.9
2014-Dec-17 05:32S 20°09' E 057°30'4573357896.6
2014-Dec-17 05:31N 24°43' E 119°09'426255544.2
2014-Dec-17 05:31N 31°34' E 121°19'11163.6
2014-Dec-17 05:26N 31°42' E 121°10'66019799.1
2014-Dec-17 05:24N 23°04' E 113°29'6635865.1
2014-Dec-17 05:18N 31°59' E 120°51'2229.6
2014-Dec-17 04:33N 32°02' E 120°26'122873.6
2014-Dec-17 04:33N 31°56' E 120°13'161082.3
2014-Dec-17 04:32N 32°01' E 120°31'4894518148.4
2014-Dec-17 04:32S 20°09' E 057°30'491258940.0
2014-Dec-17 04:27N 31°42' E 121°10'680102069.2
2014-Dec-17 04:26N 22°27' E 113°48'68035458.2
2014-Dec-17 04:25N 31°38' E 121°14'65911251.2
2014-Dec-17 04:21N 23°04' E 113°29'10235.4
2014-Dec-17 04:19N 22°54' E 113°28'44632.2
2014-Dec-17 04:15N 22°11' E 113°25'5477.7
2014-Dec-17 03:33N 23°04' E 113°29'66033943.7
2014-Dec-17 03:32N 31°42' E 121°10'2242.6
2014-Dec-17 03:32N 31°40' E 121°11'49121178828.3
2014-Dec-17 03:32S 20°09' E 057°30'423917481.8
2014-Dec-17 03:17N 22°57' E 113°30'6603165.5
2014-Dec-17 03:04N 32°01' E 120°31'6551267.2
2014-Dec-17 02:33N 23°04' E 113°29'659593216.0
2014-Dec-17 02:33N 31°42' E 121°08'362960.2
2014-Dec-17 02:33N 32°01' E 120°31'387509.7
2014-Dec-17 02:32N 31°42' E 121°10'66113668.9
2014-Dec-17 02:29N 23°02' E 113°31'4243272771.1
2014-Dec-17 02:29S 20°09' E 057°30'489318104.8
2014-Dec-17 02:12N 32°01' E 120°31'112009.5
2014-Dec-17 02:12N 32°02' E 120°44'73336.6
2014-Dec-17 02:12N 31°59' E 120°51'68232293.0
2014-Dec-17 02:11N 22°19' E 114°09'38318.3
2014-Dec-17 02:04N 22°09' E 113°29'55109.7
2014-Dec-17 01:33N 23°04' E 113°29'0112.7
2014-Dec-17 01:33N 23°04' E 113°29'413154.8
2014-Dec-17 01:33N 22°27' E 113°48'685352163.9
2014-Dec-17 01:32N 31°59' E 120°51'70652925.8
2014-Dec-17 01:32N 22°11' E 113°33'42143034269.2
2014-Dec-17 01:32S 20°09' E 057°30'4904147106.6
2014-Dec-17 01:30N 32°02' E 120°43'25121.1
2014-Dec-17 01:17N 31°45' E 121°05'659902.1
2014-Dec-17 00:33N 23°04' E 113°29'4339092.5
2014-Dec-17 00:33N 22°27' E 113°53'675243007.3
2014-Dec-17 00:33N 32°01' E 120°31'696167100.7
2014-Dec-17 00:33N 22°11' E 113°36'4217197149.6
2014-Dec-17 00:32S 20°09' E 057°30'4399195515.7
2014-Dec-17 00:30N 23°06' E 116°43'57748278.4
2014-Dec-17 00:29N 31°59' E 120°51'16665.2
2014-Dec-17 00:28N 31°46' E 121°02'22661.3
2014-Dec-17 00:26N 32°02' E 120°43'66225345.3
2014-Dec-17 00:24N 23°04' E 113°29'41621.7
2014-Dec-17 00:20N 22°27' E 113°48'30431.8
2014-Dec-17 00:16N 22°55' E 113°36'1115.9
2014-Dec-16 23:33N 23°04' E 113°29'6531174839.5
2014-Dec-16 23:33N 32°02' E 120°27'3018189.6
2014-Dec-16 23:33N 31°46' E 120°57'2529799.1
2014-Dec-16 23:33N 31°32' E 121°22'659124924.9
2014-Dec-16 23:33N 23°04' E 113°29'66388421.8
2014-Dec-16 23:33N 31°59' E 120°51'7689.6
2014-Dec-16 23:32N 32°02' E 120°43'4904767513.1
2014-Dec-16 23:32S 20°09' E 057°30'421668067.8
2014-Dec-16 23:28N 22°11' E 113°35'1901503.2
2014-Dec-16 23:20N 23°12' E 116°50'185237.3
2014-Dec-16 22:33N 23°04' E 113°29'649101546.1
2014-Dec-16 22:33N 31°58' E 120°24'173132.1
2014-Dec-16 22:33N 32°02' E 120°44'73161.5
2014-Dec-16 22:33N 31°59' E 120°51'4907267679.7
2014-Dec-16 22:31S 20°09' E 057°30'4904840767.5
2014-Dec-16 22:31N 31°46' E 120°57'20954.4
2014-Dec-16 22:30N 32°02' E 120°43'70353863.0
2014-Dec-16 22:29N 22°11' E 113°35'19513524.8
2014-Dec-16 22:28N 23°16' E 116°55'190729.8
2014-Dec-16 22:13N 23°04' E 113°29'66030055.3
2014-Dec-16 22:11N 31°28' E 121°28'3 4.5
2014-Dec-16 21:34N 31°26' E 121°30'3515573.7
2014-Dec-16 21:33N 31°46' E 120°57'174102.7
2014-Dec-16 21:33N 32°01' E 120°48'6631193693.8
2014-Dec-16 21:33N 23°04' E 113°29'66388421.1
2014-Dec-16 21:33N 31°59' E 120°51'7672.4
2014-Dec-16 21:32N 32°02' E 120°43'4904588426.2
2014-Dec-16 21:32S 20°09' E 057°30'4216103259.3
2014-Dec-16 21:29N 22°11' E 113°35'53700.5
2014-Dec-16 21:24N 23°04' E 113°29'59528.2
2014-Dec-16 21:18N 22°18' E 114°09'5878.4
2014-Dec-16 20:33N 23°04' E 113°30'66399432.8
2014-Dec-16 20:33N 31°59' E 120°51'71678.5
2014-Dec-16 20:32N 32°02' E 120°43'3384.1
2014-Dec-16 20:32N 31°60' E 120°41'198761.3
2014-Dec-16 20:32N 31°46' E 120°57'4904767657.3
2014-Dec-16 20:31S 20°09' E 057°30'421629588.9
2014-Dec-16 20:23N 22°11' E 113°35'53305.7
2014-Dec-16 20:12N 23°04' E 113°29'63910905.4
2014-Dec-16 20:09N 31°56' E 120°09'3050.9
2014-Dec-16 19:34N 32°02' E 120°43'6621191203.6
2014-Dec-16 19:33N 23°04' E 113°29'1123.2
2014-Dec-16 19:33N 23°04' E 113°30'663119319.3
2014-Dec-16 19:33N 31°59' E 120°51'1513124.3
2014-Dec-16 19:33N 32°00' E 120°34'241487.4
2014-Dec-16 19:32N 31°46' E 120°57'49041261151.2
2014-Dec-16 19:31S 20°09' E 057°30'4906327045.3
2014-Dec-16 19:31N 32°01' E 120°47'7042151.5
2014-Dec-16 19:11N 22°11' E 113°35'5385.4
2014-Dec-16 18:33N 23°04' E 113°29'11358.7
2014-Dec-16 18:33N 23°04' E 113°30'653335892.2
2014-Dec-16 18:33N 32°02' E 120°27'6952502984.5
2014-Dec-16 18:33N 22°11' E 113°35'4216137992.1
2014-Dec-16 18:31S 20°09' E 057°30'490643074.3
2014-Dec-16 18:25N 32°01' E 120°47'415654.3
2014-Dec-16 18:24N 31°59' E 119°59'51313.0
2014-Dec-16 18:14N 31°46' E 120°57'656962.3
2014-Dec-16 17:33N 23°04' E 113°29'12717.3
2014-Dec-16 17:33N 23°04' E 113°30'5331804.4
2014-Dec-16 17:33N 22°11' E 113°35'219621.0
2014-Dec-16 17:33N 22°25' E 113°53'67068935.3
2014-Dec-16 17:33N 31°59' E 120°22'4885266452.4
2014-Dec-16 17:32S 20°09' E 057°30'421520700.6
2014-Dec-16 17:19N 22°11' E 113°34'7055959.2
2014-Dec-16 17:12N 32°01' E 120°47'1727.0
2014-Dec-16 16:33N 31°46' E 120°57'6562361638.8
2014-Dec-16 16:33N 23°04' E 113°30'66379546.2
2014-Dec-16 16:33N 31°59' E 120°51'301407.3
2014-Dec-16 16:32N 31°57' E 120°16'48791463824.8
2014-Dec-16 16:31S 20°09' E 057°30'42171012131.4
2014-Dec-16 16:31N 22°10' E 113°37'70428802.6
2014-Dec-16 16:30N 32°01' E 120°47'70431689.8
2014-Dec-16 16:28N 22°12' E 113°34'45319.2
2014-Dec-16 16:20N 22°56' E 113°33'7 8.9
2014-Dec-16 15:34N 23°03' E 113°30'23651.3
2014-Dec-16 15:33N 23°04' E 113°29'5218783.9
2014-Dec-16 15:33N 22°13' E 113°42'5218668.8
2014-Dec-16 15:33N 23°04' E 113°29'663298422.6
2014-Dec-16 15:33N 31°59' E 120°51'41351.8
2014-Dec-16 15:33N 32°01' E 120°47'4906220755.6
2014-Dec-16 15:31S 20°09' E 057°30'4216244778.7
2014-Dec-16 15:30N 22°11' E 113°34'5355.6
2014-Dec-16 14:34N 23°04' E 113°29'656196891.9
2014-Dec-16 14:33N 31°46' E 120°57'143329.3
2014-Dec-16 14:33N 31°59' E 120°51'41351.8
2014-Dec-16 14:33N 32°01' E 120°47'66366270.2
2014-Dec-16 14:32N 23°03' E 113°30'4244332105.7
2014-Dec-16 14:32S 20°09' E 057°30'4216252942.9
2014-Dec-16 14:31N 22°12' E 113°34'70366643.0
2014-Dec-16 14:30N 32°02' E 120°43'66115865.9
2014-Dec-16 14:27N 23°05' E 113°29'115.1
2014-Dec-16 14:24N 23°04' E 113°29'1 0.8
2014-Dec-16 13:33N 23°05' E 113°29'64041895.1
2014-Dec-16 13:32N 31°56' E 120°11'4875331160.6
2014-Dec-16 13:32S 20°09' E 057°30'421624244.9
2014-Dec-16 13:21N 22°11' E 113°35'53376.9
2014-Dec-16 13:13N 23°04' E 113°29'7162.0
2014-Dec-16 13:10N 22°57' E 113°30'3 5.5
2014-Dec-16 12:33N 22°54' E 113°30'64770533.0
2014-Dec-16 12:33N 31°01' E 121°27'4901210026.9
2014-Dec-16 12:31S 20°09' E 057°30'4244215163.7
2014-Dec-16 12:30N 23°05' E 113°29'64051204.3
2014-Dec-16 12:30N 31°56' E 120°11'6417562.8
2014-Dec-16 12:24N 23°04' E 113°29'53340.6
2014-Dec-16 12:15N 22°11' E 113°35'69718058.0
2014-Dec-16 12:13N 31°24' E 121°30'52828.0
2014-Dec-16 12:09N 32°01' E 120°47'177836.7
2014-Dec-16 12:09N 31°46' E 120°57'6561111.7
2014-Dec-16 11:33N 23°04' E 113°29'657473234.3
2014-Dec-16 11:33N 31°23' E 121°30'657337693.2
2014-Dec-16 11:33N 23°05' E 113°29'641104942.4
2014-Dec-16 11:33N 31°04' E 121°28'4904210150.5
2014-Dec-16 11:32S 20°09' E 057°30'4243242462.2
2014-Dec-16 11:30N 23°02' E 113°31'64226256.9
2014-Dec-16 11:29N 31°56' E 120°11'68310738.9
2014-Dec-16 11:25N 22°11' E 113°35'70411022.0
2014-Dec-16 11:21N 31°59' E 120°51'231109.5
2014-Dec-16 11:20N 31°42' E 121°10'660849.1
2014-Dec-16 10:33N 23°04' E 113°29'5327006.5
2014-Dec-16 10:33N 22°13' E 113°40'680116553.5
2014-Dec-16 10:33N 31°56' E 120°11'8249022.4
2014-Dec-16 10:33N 31°07' E 121°28'4905210220.6
2014-Dec-16 10:32S 20°09' E 057°30'490666895.7
2014-Dec-16 10:27N 32°01' E 120°47'68231477.7
2014-Dec-16 10:26N 22°18' E 114°09'592274.7
2014-Dec-16 10:24N 23°05' E 113°29'6607047.8
2014-Dec-16 10:19N 31°42' E 121°10'660877.6
2014-Dec-16 09:33N 23°04' E 113°29'646581644.0
2014-Dec-16 09:33N 31°10' E 121°28'8012512.2
2014-Dec-16 09:33N 31°56' E 120°11'47224249.5
2014-Dec-16 09:32N 24°17' E 118°13'4512773539.5
2014-Dec-16 09:32S 20°09' E 057°30'4904117685.0
2014-Dec-16 09:29N 32°02' E 120°43'209058.1
2014-Dec-16 09:29N 31°46' E 120°57'372159.6
2014-Dec-16 09:28N 31°57' E 120°15'48528.1
2014-Dec-16 09:22N 31°42' E 121°10'65933904.7
2014-Dec-16 09:21N 23°05' E 113°29'685.0
2014-Dec-16 09:17N 23°02' E 113°24'6677823.7
2014-Dec-16 09:12N 32°01' E 120°47'6631027.5
2014-Dec-16 08:33N 23°04' E 113°29'345537.6
2014-Dec-16 08:33N 22°34' E 113°46'663170431.7
2014-Dec-16 08:33N 31°12' E 121°30'7515084.8
2014-Dec-16 08:33N 32°01' E 120°23'47438792.5
2014-Dec-16 08:32N 24°20' E 118°20'4520561113.1
2014-Dec-16 08:31S 20°09' E 057°30'4244141451.8
2014-Dec-16 08:30N 23°05' E 113°29'65943151.5
2014-Dec-16 08:29N 31°42' E 121°10'522774.5
2014-Dec-16 08:28N 31°56' E 120°11'31293.4
2014-Dec-16 08:21N 32°01' E 120°47'317.8
2014-Dec-16 08:10N 32°02' E 120°43'6627357.8
2014-Dec-16 08:04N 23°03' E 113°30'6511219.4
2014-Dec-16 07:32N 31°15' E 121°29'65044164.0
2014-Dec-16 07:32N 23°04' E 113°30'149.1
2014-Dec-16 07:30N 23°05' E 113°29'64076807.1
2014-Dec-16 07:30N 31°56' E 120°11'66030083.7
2014-Dec-16 07:28N 22°29' E 113°52'41352.6
2014-Dec-16 07:21N 23°04' E 113°29'65913953.4
2014-Dec-16 07:19N 31°52' E 120°53'72004.4
2014-Dec-16 07:18N 31°59' E 120°51'76708.9
2014-Dec-16 07:18N 32°02' E 120°43'32022.1
2014-Dec-16 07:18N 32°01' E 120°47'27534.9
2014-Dec-16 07:15N 31°42' E 121°10'6654885.2
2014-Dec-16 07:07N 23°03' E 113°22'712.0
2014-Dec-16 06:33N 23°04' E 113°29'43155569.6
2014-Dec-16 06:33N 22°27' E 113°53'682350630.6
2014-Dec-16 06:33N 32°01' E 120°47'662158896.7
2014-Dec-16 06:33N 23°05' E 113°29'652234798.9
2014-Dec-16 06:33N 31°15' E 121°32'33118552.1
2014-Dec-16 06:33N 31°42' E 121°10'4912707278.1
2014-Dec-16 06:32S 20°09' E 057°30'4243254604.7
2014-Dec-16 06:31N 23°04' E 113°30'64121551.2
2014-Dec-16 06:30N 31°56' E 120°11'6596568.2
2014-Dec-16 06:24N 22°31' E 113°50'5 6.0
2014-Dec-16 05:33N 22°27' E 113°53'4240339202.0
2014-Dec-16 05:33S 20°09' E 057°30'491680078.2
2014-Dec-16 05:29N 31°18' E 121°34'674074.7
2014-Dec-16 05:28N 32°00' E 120°33'19347.6
2014-Dec-16 05:25N 31°56' E 120°11'64030317.6
2014-Dec-16 05:24N 23°05' E 113°29'41347.9
2014-Dec-16 05:16N 22°28' E 113°50'3 4.5
2014-Dec-16 04:33N 22°27' E 113°53'37718836.7
2014-Dec-16 04:32N 25°49' E 119°41'37418458.0
2014-Dec-16 04:31N 31°60' E 120°41'66119829.1
2014-Dec-16 04:29N 23°04' E 113°25'64341319.6
2014-Dec-16 04:28N 31°56' E 120°11'64119894.0
2014-Dec-16 04:26N 23°05' E 113°27'65717655.1
2014-Dec-16 04:24N 31°21' E 121°32'6562249.3
2014-Dec-16 04:06N 23°05' E 113°29'373661.3
2014-Dec-16 03:32N 25°44' E 119°39'372446671.6
2014-Dec-16 03:32N 22°27' E 113°53'4325822.9
2014-Dec-16 03:32N 23°04' E 113°29'124.3
2014-Dec-16 03:30N 23°05' E 113°29'65690801.0
2014-Dec-16 03:30N 31°22' E 121°30'592042.0
2014-Dec-16 03:28N 31°60' E 120°36'332362.5
2014-Dec-16 03:27N 31°42' E 121°10'528450.0
2014-Dec-16 03:27N 31°56' E 120°11'6412019.2
2014-Dec-16 03:08N 23°04' E 113°30'6631160.2
2014-Dec-16 02:33N 32°01' E 120°47'66333605.8
2014-Dec-16 02:32N 23°04' E 113°29'4313978.5
2014-Dec-16 02:32N 22°28' E 113°53'47449.2
2014-Dec-16 02:26N 23°03' E 113°20'66955993.7
2014-Dec-16 02:25N 31°59' E 120°51'46370.9
2014-Dec-16 02:18N 31°26' E 121°29'603403.2
2014-Dec-16 02:17N 32°01' E 120°32'18792.3
2014-Dec-16 02:15N 31°56' E 120°11'17872.9
2014-Dec-16 02:14N 32°01' E 120°31'6544518.6
2014-Dec-16 02:05N 23°05' E 113°29'654906.0
2014-Dec-16 01:22N 32°01' E 120°32'6758584.0
2014-Dec-16 01:17N 22°28' E 113°52'1661225.5
2014-Dec-16 01:09N 23°21' E 116°42'17845874.6
2014-Dec-16 01:09N 23°05' E 113°29'658107621.8
2014-Dec-16 01:09N 31°30' E 121°23'69710375.0
2014-Dec-16 01:04N 22°11' E 113°35'683307420.7
2014-Dec-16 01:04N 31°56' E 120°11'1832.7
2014-Dec-16 00:31N 32°01' E 120°32'6551627.3
2014-Dec-16 00:07N 23°03' E 113°30'6622384603.8
2014-Dec-16 00:07N 31°58' E 120°51'7031255.8
2014-Dec-15 23:33N 22°11' E 113°35'7031265800.8
2014-Dec-15 23:33N 32°02' E 120°43'31514.6
2014-Dec-15 23:33N 32°01' E 120°47'132458.3
2014-Dec-15 23:33N 32°01' E 120°32'654168190.0
2014-Dec-15 23:33N 23°05' E 113°29'66224300.1
2014-Dec-15 23:31N 31°58' E 120°51'68123142.6
2014-Dec-15 23:29N 22°28' E 113°52'25161.0
2014-Dec-15 23:20N 22°10' E 113°32'48877.4
2014-Dec-15 23:17N 22°58' E 113°32'764.6
2014-Dec-15 23:10N 23°04' E 113°29'4268.6
2014-Dec-15 22:34N 22°28' E 113°52'675220845.8
2014-Dec-15 22:33N 32°01' E 120°32'69420989.5
2014-Dec-15 22:31N 22°12' E 113°40'70145082.9
2014-Dec-15 22:30N 32°01' E 120°47'66258135.9
2014-Dec-15 22:30N 23°05' E 113°29'64011295.1
2014-Dec-15 22:26N 31°56' E 120°11'64137203.9
2014-Dec-15 22:25N 23°04' E 113°29'4248.7
2014-Dec-15 21:34N 22°28' E 113°52'675269922.6
2014-Dec-15 21:33N 32°01' E 120°32'65453514.6
2014-Dec-15 21:33N 23°05' E 113°29'554022.1
2014-Dec-15 21:32N 22°10' E 113°32'13339.1
2014-Dec-15 21:30N 22°16' E 113°44'50691.1
2014-Dec-15 21:25N 23°04' E 113°29'6623665.2
2014-Dec-15 21:14N 32°02' E 120°43'318.4
2014-Dec-15 21:03N 32°01' E 120°47'3 6.8
2014-Dec-15 20:34N 32°02' E 120°43'107138.7
2014-Dec-15 20:33N 32°01' E 120°32'67569407.6
2014-Dec-15 20:33N 22°28' E 113°52'439065.7
2014-Dec-15 20:33N 23°05' E 113°29'554479.2
2014-Dec-15 20:32N 22°10' E 113°32'1710219.8
2014-Dec-15 20:32N 22°23' E 113°44'68963643.5
2014-Dec-15 20:31N 31°58' E 120°50'6626812.6
2014-Dec-15 20:25N 23°04' E 113°29'3416466.4
2014-Dec-15 20:22N 25°08' E 119°18'41114102.0
2014-Dec-15 20:20N 31°56' E 120°11'3139.5
2014-Dec-15 19:34N 32°01' E 120°47'11109.8
2014-Dec-15 19:33N 32°01' E 120°47'3399.2
2014-Dec-15 19:33N 32°02' E 120°43'661108181.4
2014-Dec-15 19:33N 23°05' E 113°29'3365445.9
2014-Dec-15 19:29N 25°03' E 119°13'33618058.3
2014-Dec-15 19:28N 23°04' E 113°29'402984.7
2014-Dec-15 19:27N 22°28' E 113°48'6634128.1
2014-Dec-15 19:17N 31°56' E 120°11'2534.4
2014-Dec-15 18:33N 31°60' E 120°41'6621192255.3
2014-Dec-15 18:33N 22°59' E 113°30'65933877.8
2014-Dec-15 18:32N 32°01' E 120°32'65411430.2
2014-Dec-15 18:29N 23°05' E 113°29'551132.7
2014-Dec-15 18:26N 22°10' E 113°32'6867762.9
2014-Dec-15 18:21N 31°56' E 120°11'28767.3
2014-Dec-15 18:18N 32°02' E 120°43'69210257.5
2014-Dec-15 18:14N 22°17' E 113°48'6934308.8
2014-Dec-15 18:05N 32°01' E 120°47'67525832.9
2014-Dec-15 18:03N 22°43' E 113°41'2958.6
2014-Dec-15 17:33N 22°14' E 113°44'692311387.1
2014-Dec-15 17:33N 32°01' E 120°35'610499.5
2014-Dec-15 17:33N 32°02' E 120°28'132584.9
2014-Dec-15 17:33N 32°02' E 120°43'66188145.8
2014-Dec-15 17:32N 23°05' E 113°29'320143872.8
2014-Dec-15 17:32N 24°41' E 119°03'33935898.8
2014-Dec-15 17:32N 22°10' E 113°32'7077829.2
2014-Dec-15 17:26N 31°60' E 120°50'67213005.9
2014-Dec-15 17:23N 22°55' E 113°27'65014093.8
2014-Dec-15 17:21N 31°56' E 120°11'433552.0
2014-Dec-15 16:33N 24°48' E 118°57'444133229.5
2014-Dec-15 16:33N 32°04' E 120°31'82891.6
2014-Dec-15 16:33N 31°60' E 120°23'251934.7
2014-Dec-15 16:32N 31°56' E 120°52'70211707.4
2014-Dec-15 16:29N 22°10' E 113°37'55199475.8
2014-Dec-15 16:29N 23°05' E 113°29'640144007.7
2014-Dec-15 16:28N 31°56' E 120°11'6 6.0
2014-Dec-15 15:33N 31°57' E 120°18'916211.0
2014-Dec-15 15:33N 32°03' E 120°26'44864580.0
2014-Dec-15 15:33N 24°42' E 118°51'764781.7
2014-Dec-15 15:32N 25°44' E 119°39'3735761.1
2014-Dec-15 15:28N 23°01' E 113°31'66311936.1
2014-Dec-15 15:25N 32°02' E 120°43'14255.0
2014-Dec-15 15:21N 31°51' E 120°54'37282.2
2014-Dec-15 15:13N 31°56' E 120°11'65926647.1
2014-Dec-15 15:12N 22°48' E 113°20'6671029.2
2014-Dec-15 14:33N 32°00' E 120°22'18267.0
2014-Dec-15 14:29N 32°02' E 120°44'6822454587.7
2014-Dec-15 14:29N 22°19' E 114°08'34649.6
2014-Dec-15 14:26N 22°10' E 113°32'68698740.9
2014-Dec-15 14:25N 31°56' E 120°11'66420604.6
2014-Dec-15 14:23N 22°27' E 113°48'20167.4
2014-Dec-15 14:16N 22°10' E 113°36'422.1
2014-Dec-15 14:05N 22°11' E 113°32'6891321.7
2014-Dec-15 13:33N 31°58' E 120°19'371506.9
2014-Dec-15 13:32N 31°47' E 121°01'7018577.7
2014-Dec-15 13:27N 22°11' E 113°32'68423923.0
2014-Dec-15 13:25N 31°56' E 120°11'6852566.2
2014-Dec-15 13:09N 22°11' E 113°32'7056734.8
2014-Dec-15 13:03N 32°02' E 120°44'2548.8
2014-Dec-15 12:32N 31°56' E 120°15'3212.0
2014-Dec-15 12:31N 31°56' E 120°11'28173.4
2014-Dec-15 12:21N 32°02' E 120°44'6845388.5
2014-Dec-15 12:14N 22°27' E 113°48'97732551.8
2014-Dec-15 12:12N 36°53' E 122°26'9981549.4
2014-Dec-15 11:33N 22°09' E 113°32'70340819.5
2014-Dec-15 11:32N 31°40' E 121°12'3197854.4
2014-Dec-15 11:30N 36°53' E 122°28'318937.2
2014-Dec-15 11:09N 31°56' E 120°07'464.0
2014-Dec-15 11:06N 31°56' E 120°11'60108.3
2014-Dec-15 10:33N 31°36' E 121°18'542243759.3
2014-Dec-15 10:33N 22°38' E 120°11'558100513.6
2014-Dec-15 10:32N 31°56' E 120°12'271611.5
2014-Dec-15 10:31N 32°02' E 120°44'30615736.8
2014-Dec-15 10:30N 36°54' E 122°37'32224685.6
2014-Dec-15 10:29N 31°57' E 120°03'66291702.0
2014-Dec-15 10:29N 22°26' E 113°47'6653639.1
2014-Dec-15 10:18N 31°56' E 120°11'3539935.8
2014-Dec-15 10:16N 26°05' E 119°31'4031891.9
2014-Dec-15 10:03N 22°11' E 113°32'6881393.9
2014-Dec-15 09:33N 31°58' E 120°18'6217038.3
2014-Dec-15 09:33N 31°32' E 121°23'664021.7
2014-Dec-15 09:32N 31°56' E 120°11'2850338.0
2014-Dec-15 09:32N 32°02' E 120°44'36762999.8
2014-Dec-15 09:32N 26°01' E 119°29'3991011.8
2014-Dec-15 09:08N 22°10' E 113°32'6941196.2
2014-Dec-15 08:33N 32°00' E 120°22'36622329.6
2014-Dec-15 08:32N 25°58' E 119°26'676270348.9
2014-Dec-15 08:32N 36°55' E 122°28'33234133.7
2014-Dec-15 08:32N 31°27' E 121°29'669456.1
2014-Dec-15 08:31N 32°03' E 120°25'69871810.0
2014-Dec-15 08:31N 22°10' E 113°31'706847562.8
2014-Dec-15 08:30N 32°02' E 120°44'5711402.7
2014-Dec-15 08:30N 31°10' E 121°09'4145623.9
2014-Dec-15 08:26N 24°42' E 118°27'4442360.2
2014-Dec-15 08:14N 31°56' E 120°11'1115.3
2014-Dec-15 07:33N 32°01' E 120°23'7031461.3
2014-Dec-15 07:33N 31°21' E 121°31'6782440287.9
2014-Dec-15 07:33N 22°27' E 113°43'679188056.0
2014-Dec-15 07:33N 32°04' E 120°26'37047530.1
2014-Dec-15 07:32N 25°58' E 119°26'361216543.8
2014-Dec-15 07:32N 31°56' E 120°11'3207624.3
2014-Dec-15 07:30N 36°56' E 122°28'3065792.3
2014-Dec-15 07:26N 32°02' E 120°44'5302472.2
2014-Dec-15 07:14N 24°42' E 115°09'1331215.5
2014-Dec-15 07:07N 23°05' E 113°28'0 0.0
2014-Dec-15 06:33N 23°05' E 113°28'652335290.3
2014-Dec-15 06:33N 31°15' E 121°32'7616149.8
2014-Dec-15 06:33N 31°57' E 120°17'36225548.5
2014-Dec-15 06:32N 25°58' E 119°26'37144499.8
2014-Dec-15 06:32N 32°04' E 120°32'68740552.2
2014-Dec-15 06:31N 22°21' E 113°43'6917172.1
2014-Dec-15 06:25N 32°02' E 120°44'28441.6
2014-Dec-15 06:21N 31°56' E 120°11'4292577.0
2014-Dec-15 06:11N 24°53' E 118°57'319506.2
2014-Dec-15 05:33N 23°05' E 113°28'646581690.9
2014-Dec-15 05:33N 31°11' E 121°28'67760962.3
2014-Dec-15 05:33N 22°15' E 113°43'38460105.3
2014-Dec-15 05:32N 25°58' E 119°26'37117568.5
2014-Dec-15 05:31N 32°02' E 120°44'7534.5
2014-Dec-15 05:30N 32°01' E 120°36'2119292.9
2014-Dec-15 05:30N 31°56' E 120°11'42925306.5
2014-Dec-15 05:29N 24°53' E 118°57'319341.2
2014-Dec-15 04:33N 23°05' E 113°28'658107691.3
2014-Dec-15 04:33N 32°00' E 120°41'668481140.7
2014-Dec-15 04:33N 22°55' E 113°26'45160227.7
2014-Dec-15 04:33N 22°12' E 113°40'38960808.7
2014-Dec-15 04:32N 25°58' E 119°26'37112363.2
2014-Dec-15 04:30N 32°02' E 120°44'44021111.6
2014-Dec-15 04:29N 24°53' E 118°57'4293222.8
2014-Dec-15 04:21N 31°56' E 120°11'6483133.6
2014-Dec-15 04:09N 23°04' E 113°16'6451098.0
2014-Dec-15 03:33N 31°57' E 120°07'6461163289.8
2014-Dec-15 03:33N 22°54' E 113°31'118025.7
2014-Dec-15 03:33N 23°05' E 113°28'661198439.6
2014-Dec-15 03:33N 32°01' E 120°46'43983122.1
2014-Dec-15 03:33N 24°52' E 119°01'331595826.0
2014-Dec-15 03:33N 23°03' E 113°19'66842173.8
2014-Dec-15 03:32N 32°02' E 120°44'7024481.3
2014-Dec-15 03:22N 22°11' E 113°38'39010105.9
2014-Dec-15 03:20N 25°58' E 119°26'368470.2
2014-Dec-15 02:33N 31°58' E 120°51'663113688.7
2014-Dec-15 02:33N 23°03' E 113°31'662216788.7
2014-Dec-15 02:33N 32°02' E 120°44'3714784.5
2014-Dec-15 02:32N 31°59' E 120°00'64011356.9
2014-Dec-15 02:29N 23°03' E 113°25'534577.9
2014-Dec-15 02:28N 22°11' E 113°38'39010405.1
2014-Dec-15 02:26N 25°58' E 119°26'3797501.2
2014-Dec-15 02:23N 23°04' E 113°16'3015467.1
2014-Dec-15 02:20N 24°41' E 118°27'289373.7
2014-Dec-15 01:33N 23°04' E 113°30'643165292.8
2014-Dec-15 01:33N 31°05' E 121°28'6822402.5
2014-Dec-15 01:33N 32°02' E 120°44'37124276.9
2014-Dec-15 01:32N 25°58' E 119°26'36934911.7
2014-Dec-15 01:31N 23°04' E 113°29'54850.9
2014-Dec-15 01:28N 22°11' E 113°38'69812088.5
2014-Dec-15 01:24N 31°52' E 120°54'4492151.3
2014-Dec-15 01:12N 24°41' E 118°27'446694.0
2014-Dec-15 00:33N 31°47' E 120°57'415663.7
2014-Dec-15 00:33N 31°51' E 120°54'6582370027.6
2014-Dec-15 00:33N 23°04' E 113°30'662170131.2
2014-Dec-15 00:33N 32°02' E 120°44'37127817.3
2014-Dec-15 00:32N 25°58' E 119°26'3696200.0
2014-Dec-15 00:29N 23°04' E 113°29'660715.2
2014-Dec-14 23:33N 31°46' E 121°05'6601187440.7
2014-Dec-14 23:33N 23°04' E 113°30'638383093.1
2014-Dec-14 23:33N 32°02' E 119°58'392119.8
2014-Dec-14 23:32N 32°02' E 120°44'66211346.8
2014-Dec-14 23:28N 23°04' E 113°29'3699410.0
2014-Dec-14 23:26N 25°58' E 119°26'3724129.4
2014-Dec-14 23:21N 22°52' E 113°33'1215.5
2014-Dec-14 22:33N 23°04' E 113°30'6621190909.4
2014-Dec-14 22:33N 32°02' E 120°44'67249337.8
2014-Dec-14 22:33N 22°55' E 113°26'3763452.4
2014-Dec-14 22:26N 25°58' E 119°26'3654084.0
2014-Dec-14 22:21N 32°02' E 119°58'44814011.3
2014-Dec-14 22:19N 24°41' E 118°27'446178455.8
2014-Dec-14 22:19N 31°57' E 120°17'644849.3
2014-Dec-14 21:33N 23°04' E 113°30'63879260.0
2014-Dec-14 21:33N 32°02' E 119°58'350.7
2014-Dec-14 21:29N 31°60' E 120°00'691512.2
2014-Dec-14 21:27N 31°37' E 121°17'33931.2
2014-Dec-14 21:24N 31°05' E 121°28'41627227.3
2014-Dec-14 21:24N 24°41' E 118°27'931620.6
2014-Dec-14 21:20N 25°58' E 119°26'3691748.2
2014-Dec-14 21:07N 23°04' E 113°29'6431137.2
2014-Dec-14 20:33N 31°05' E 121°28'643771361.0
2014-Dec-14 20:33N 23°04' E 113°30'662793939.6
2014-Dec-14 20:33N 32°02' E 120°44'393587.3
2014-Dec-14 20:33N 32°02' E 119°58'7215194.5
2014-Dec-14 20:32N 31°37' E 121°17'66138356.1
2014-Dec-14 20:31N 23°04' E 113°29'639229993.6
2014-Dec-14 20:31N 31°58' E 120°05'4458339.0
2014-Dec-14 20:28N 24°41' E 118°27'457501.7
2014-Dec-14 19:33N 32°02' E 120°44'66264391.0
2014-Dec-14 19:33N 23°04' E 113°29'641329559.0
2014-Dec-14 19:33N 31°57' E 120°11'428256688.7
2014-Dec-14 19:33N 24°53' E 119°03'421216522.9
2014-Dec-14 19:32N 31°37' E 121°17'331050.4
2014-Dec-14 19:31N 31°05' E 121°28'6435589.6
2014-Dec-14 19:24N 23°04' E 113°30'2891414.0
2014-Dec-14 19:11N 24°41' E 118°27'289453.1
2014-Dec-14 18:33N 23°04' E 113°29'165.9
2014-Dec-14 18:33N 23°04' E 113°30'644772788.5
2014-Dec-14 18:33N 31°57' E 120°17'5522073.0
2014-Dec-14 18:32N 31°37' E 121°17'3834178.0
2014-Dec-14 18:32N 32°02' E 120°44'682324.8
2014-Dec-14 18:31N 31°05' E 121°28'3968010.3
2014-Dec-14 18:28N 24°53' E 118°57'328984.7
2014-Dec-14 18:08N 22°54' E 113°22'65018436.4
2014-Dec-14 18:06N 32°02' E 119°58'6391180.8
2014-Dec-14 17:33N 23°04' E 113°29'649467225.8
2014-Dec-14 17:33N 32°00' E 120°22'649116776.1
2014-Dec-14 17:33N 23°04' E 113°30'660169765.1
2014-Dec-14 17:32N 31°37' E 121°17'67026234.1
2014-Dec-14 17:31N 22°55' E 113°25'2845.8
2014-Dec-14 17:31N 22°55' E 113°27'65212547.3
2014-Dec-14 17:28N 31°05' E 121°28'396475275.5
2014-Dec-14 17:28N 24°53' E 118°57'4405350.4
2014-Dec-14 17:23N 32°02' E 120°44'4572692.3
2014-Dec-14 17:13N 24°41' E 118°27'453696.1
2014-Dec-14 16:33N 32°02' E 120°27'6532350907.6
2014-Dec-14 16:33N 23°04' E 113°29'1110082.8
2014-Dec-14 16:33N 22°53' E 113°31'11991.6
2014-Dec-14 16:33N 23°04' E 113°30'662183216.8
2014-Dec-14 16:32N 32°02' E 120°44'682324.8
2014-Dec-14 16:31N 31°05' E 121°28'331574.8
2014-Dec-14 16:29N 31°37' E 121°17'66889053.8
2014-Dec-14 16:29N 22°52' E 113°34'31914019.6
2014-Dec-14 16:28N 24°53' E 118°57'29289.4
2014-Dec-14 16:22N 24°41' E 118°27'4482137.0
2014-Dec-14 16:09N 32°02' E 119°58'6391078.9
2014-Dec-14 15:33N 23°04' E 113°29'656471976.7
2014-Dec-14 15:33N 32°02' E 120°32'452964.6
2014-Dec-14 15:32N 31°37' E 121°17'331184.8
2014-Dec-14 15:31N 31°05' E 121°28'3967624.7
2014-Dec-14 15:28N 24°53' E 118°57'4072285.6
2014-Dec-14 15:17N 31°09' E 121°53'6607447.5
2014-Dec-14 15:12N 23°04' E 113°30'662170129.9
2014-Dec-14 15:11N 32°02' E 120°44'5 8.0
2014-Dec-14 14:33N 32°00' E 120°38'402843.2
2014-Dec-14 14:32N 31°37' E 121°17'344094.6
2014-Dec-14 14:32N 31°14' E 121°47'721059.5
2014-Dec-14 14:28N 32°02' E 120°44'68123213.7
2014-Dec-14 14:28N 31°05' E 121°28'396118818.9
2014-Dec-14 14:28N 24°53' E 118°57'3184914.5
2014-Dec-14 14:24N 23°04' E 113°30'1064.4
2014-Dec-14 14:14N 22°55' E 113°26'2952024.1
2014-Dec-14 14:06N 24°41' E 118°27'436810.5
2014-Dec-14 13:33N 31°20' E 121°48'665399010.9
2014-Dec-14 13:33N 23°04' E 113°29'66044861.9
2014-Dec-14 13:32N 31°37' E 121°17'725888.8
2014-Dec-14 13:32N 32°02' E 119°58'65967751.4
2014-Dec-14 13:31N 22°28' E 113°54'657157738.6
2014-Dec-14 13:31N 31°05' E 121°28'666299.3
2014-Dec-14 13:30N 32°01' E 120°45'4399871.6
2014-Dec-14 13:28N 24°53' E 118°57'3184852.1
2014-Dec-14 13:24N 23°04' E 113°30'936.6
2014-Dec-14 13:09N 22°55' E 113°30'6491097.5
2014-Dec-14 12:33N 31°05' E 121°28'2545444.8
2014-Dec-14 12:33N 31°27' E 121°43'975196.6
2014-Dec-14 12:32N 32°02' E 119°56'6442318851.4
2014-Dec-14 12:32N 22°57' E 113°30'6675256.4
2014-Dec-14 12:25N 32°02' E 120°43'66239043.2
2014-Dec-14 12:24N 23°04' E 113°30'3183.1
2014-Dec-14 12:23N 23°01' E 113°31'7201.2
2014-Dec-14 12:20N 22°56' E 113°36'3163987.4
2014-Dec-14 12:16N 24°53' E 118°57'43630172.1
2014-Dec-14 12:15N 31°56' E 120°52'6086.5
2014-Dec-14 11:34N 31°05' E 121°28'64796994.0
2014-Dec-14 11:33N 22°57' E 113°32'66422778.8
2014-Dec-14 11:31N 31°37' E 121°17'381604.5
2014-Dec-14 11:30N 32°02' E 120°44'142455.8
2014-Dec-14 11:30N 31°51' E 120°54'43113266.9
2014-Dec-14 11:28N 24°53' E 118°57'32561513.4
2014-Dec-14 11:27N 22°55' E 113°26'1089.8
2014-Dec-14 11:21N 23°04' E 113°30'1048.9
2014-Dec-14 11:09N 22°55' E 113°27'29481418.7
2014-Dec-14 11:08N 24°41' E 118°27'45560681.7
2014-Dec-14 11:08N 32°10' E 119°53'6431082.4
2014-Dec-14 10:32N 23°05' E 113°29'66040268.5
2014-Dec-14 10:31N 31°37' E 121°17'669114618.8
2014-Dec-14 10:31N 22°54' E 113°29'6671200313.1
2014-Dec-14 10:31N 31°47' E 121°01'48441.3
2014-Dec-14 10:25N 31°05' E 121°28'3968010.6
2014-Dec-14 10:22N 24°52' E 118°57'31810047.6
2014-Dec-14 10:20N 23°04' E 113°30'0 0.6
2014-Dec-14 10:03N 23°04' E 113°29'6601284.7
2014-Dec-14 09:33N 31°43' E 121°08'447134020.3
2014-Dec-14 09:32N 24°40' E 118°27'28833454.1
2014-Dec-14 09:32N 23°05' E 113°29'1160.1
2014-Dec-14 09:32N 23°04' E 113°30'660182894.6
2014-Dec-14 09:31N 31°37' E 121°17'332917.7
2014-Dec-14 09:31N 31°05' E 121°28'3266941.1
2014-Dec-14 09:28N 25°58' E 119°26'7028134.1
2014-Dec-14 09:28N 24°52' E 118°57'31927980.4
2014-Dec-14 09:27N 23°04' E 113°29'66237226.6
2014-Dec-14 09:26N 32°02' E 120°44'66539269.9
2014-Dec-14 09:25N 22°55' E 113°36'643749.3
2014-Dec-14 08:33N 31°58' E 120°06'63225113.3
2014-Dec-14 08:33N 31°38' E 121°16'425191119.0
2014-Dec-14 08:33N 24°51' E 118°60'320127916.4
2014-Dec-14 08:33N 23°03' E 113°30'1397.1
2014-Dec-14 08:33N 23°04' E 113°30'66039626.6
2014-Dec-14 08:32N 31°37' E 121°17'331660.9
2014-Dec-14 08:31N 31°05' E 121°28'3266780.6
2014-Dec-14 08:28N 25°58' E 119°26'368662533.1
2014-Dec-14 08:28N 23°05' E 113°29'28832415.6
2014-Dec-14 08:27N 24°40' E 118°27'28864910.1
2014-Dec-14 08:27N 23°04' E 113°29'41179.8
2014-Dec-14 08:13N 22°28' E 113°49'662986.1
2014-Dec-14 07:33N 31°58' E 120°06'6916589.4
2014-Dec-14 07:33N 31°32' E 121°21'67827424.4
2014-Dec-14 07:31N 22°28' E 113°49'66167947.6
2014-Dec-14 07:31N 31°05' E 121°28'41883577.0
2014-Dec-14 07:30N 24°40' E 118°27'44430748.6
2014-Dec-14 07:30N 31°37' E 121°17'66025564.1
2014-Dec-14 07:28N 23°04' E 113°30'36894626.8
2014-Dec-14 07:28N 25°58' E 119°26'36927074.9
2014-Dec-14 07:27N 23°04' E 113°29'66215674.5
2014-Dec-14 07:24N 32°02' E 120°44'66276832.4
2014-Dec-14 07:24N 23°04' E 113°30'583939.2
2014-Dec-14 07:23N 22°19' E 114°09'65579.1
2014-Dec-14 07:16N 23°03' E 113°17'11264.2
2014-Dec-14 07:14N 23°05' E 113°29'44396.5
2014-Dec-14 07:07N 22°27' E 113°52'1831.6
2014-Dec-14 06:33N 22°19' E 114°10'66035465.3
2014-Dec-14 06:32N 31°58' E 120°06'638328362.5
2014-Dec-14 06:32N 23°05' E 113°29'659395380.9
2014-Dec-14 06:32N 31°28' E 121°28'231424.9
2014-Dec-14 06:31N 31°05' E 121°28'66285067.1
2014-Dec-14 06:30N 22°27' E 113°48'68137700.5
2014-Dec-14 06:29N 31°37' E 121°17'66032123.8
2014-Dec-14 06:28N 23°04' E 113°30'36888318.4
2014-Dec-14 06:28N 25°58' E 119°26'37118041.7
2014-Dec-14 06:27N 32°02' E 120°43'25619.9
2014-Dec-14 06:24N 31°57' E 120°14'642231177.4
2014-Dec-14 06:24N 23°04' E 113°30'2863075.3
2014-Dec-14 06:18N 24°33' E 118°27'2972227.4
2014-Dec-14 06:10N 23°03' E 113°17'6451053.8
2014-Dec-14 05:34N 31°58' E 120°06'64542193.1
2014-Dec-14 05:33N 23°02' E 113°21'289346819.4
2014-Dec-14 05:33N 24°30' E 118°22'44461517.5
2014-Dec-14 05:32N 31°22' E 121°30'7111052.5
2014-Dec-14 05:32N 31°58' E 120°19'36429758.4
2014-Dec-14 05:31N 25°58' E 119°26'32618329.7
2014-Dec-14 05:30N 31°05' E 121°28'64319610.8
2014-Dec-14 05:28N 23°04' E 113°30'660237677.5
2014-Dec-14 05:28N 31°37' E 121°17'6649332.5
2014-Dec-14 05:24N 22°58' E 113°32'66524947.2
2014-Dec-14 05:22N 32°02' E 120°43'66236641.1
2014-Dec-14 05:21N 23°04' E 113°30'1163.5
2014-Dec-14 05:10N 23°03' E 113°17'4675.6
2014-Dec-14 04:33N 22°27' E 113°48'673403609.5
2014-Dec-14 04:33N 32°00' E 120°23'65068853.4
2014-Dec-14 04:33N 23°05' E 113°27'655196642.2
2014-Dec-14 04:33N 31°17' E 121°34'44328000.3
2014-Dec-14 04:32N 24°30' E 118°14'27410843.8
2014-Dec-14 04:30N 23°04' E 113°30'643462959.8
2014-Dec-14 04:30N 31°05' E 121°28'33759.1
2014-Dec-14 04:27N 31°37' E 121°18'391060.0
2014-Dec-14 04:25N 32°02' E 120°43'66622403.1
2014-Dec-14 04:23N 22°55' E 113°36'1160.6
2014-Dec-14 04:13N 23°04' E 113°30'0 0.1
2014-Dec-14 03:33N 23°04' E 113°30'643462845.6
2014-Dec-14 03:33N 31°05' E 121°28'89199.4
2014-Dec-14 03:33N 31°13' E 121°30'44773077.8
2014-Dec-14 03:33N 24°23' E 118°11'46557705.3
2014-Dec-14 03:32N 31°37' E 121°18'4919614.9
2014-Dec-14 03:32N 32°02' E 120°28'20171.3
2014-Dec-14 03:25N 31°58' E 120°06'64511335.1
2014-Dec-14 03:22N 23°03' E 113°17'66837020.4
2014-Dec-14 03:21N 32°02' E 120°44'66217641.4
2014-Dec-14 03:18N 23°04' E 113°30'6359604.9
2014-Dec-14 03:14N 31°10' E 121°09'655956.2
2014-Dec-14 02:33N 22°27' E 113°48'4116443.5
2014-Dec-14 02:33N 23°04' E 113°30'6432314228.2
2014-Dec-14 02:33N 31°05' E 121°28'643165374.9
2014-Dec-14 02:33N 23°04' E 113°29'6452321437.5
2014-Dec-14 02:33N 31°08' E 121°28'449124266.9
2014-Dec-14 02:33N 24°15' E 118°09'4835818.2
2014-Dec-14 02:28N 32°01' E 120°35'66215780.9
2014-Dec-14 02:25N 23°02' E 113°22'3335053.8
2014-Dec-14 02:21N 24°45' E 119°08'3251312.0
2014-Dec-14 02:06N 23°04' E 113°30'6631205.7
2014-Dec-14 01:33N 32°01' E 120°48'6632386042.1
2014-Dec-14 01:33N 23°04' E 113°30'641768786.7
2014-Dec-14 01:33N 31°02' E 121°29'6591186915.7
2014-Dec-14 01:33N 22°27' E 113°48'4121147.2
2014-Dec-14 01:33N 23°04' E 113°30'066.2
2014-Dec-14 01:33N 23°04' E 113°29'260155745.5
2014-Dec-14 01:33N 24°11' E 118°03'4798379.5
2014-Dec-14 01:29N 31°40' E 121°13'43012697.2
2014-Dec-14 01:27N 24°44' E 119°08'44415079.8
2014-Dec-14 01:25N 32°00' E 120°41'70841.8
2014-Dec-14 01:20N 31°03' E 121°28'820494053.0
2014-Dec-14 01:15S 01°48' W 101°22'8335136394.6
2014-Dec-14 01:12N 25°58' E 119°26'3659116.1
2014-Dec-14 01:09N 31°59' E 120°20'602057.0
2014-Dec-14 01:07N 31°16' E 121°09'17301.2
2014-Dec-14 01:04N 30°59' E 121°08'1835.1
2014-Dec-14 00:33N 31°05' E 121°28'203401.1
2014-Dec-14 00:33N 31°17' E 121°09'484240.0
2014-Dec-14 00:32N 32°01' E 120°47'161.8
2014-Dec-14 00:31N 31°60' E 120°47'497105345.0
2014-Dec-14 00:31N 24°05' E 117°58'25319837.5
2014-Dec-14 00:30N 22°60' E 113°31'5212.0
2014-Dec-14 00:29N 23°04' E 113°29'1 8.8
2014-Dec-14 00:24N 23°04' E 113°30'3256601.4
2014-Dec-14 00:21N 24°44' E 119°07'38911674.0
2014-Dec-14 00:19N 30°57' E 121°11'628822.7
2014-Dec-13 23:33N 23°04' E 113°26'644773386.3
2014-Dec-13 23:33N 31°05' E 121°28'6431156846.0
2014-Dec-13 23:33N 23°04' E 113°30'6621191373.4
2014-Dec-13 23:33N 31°57' E 120°52'443797685.6
2014-Dec-13 23:33N 24°44' E 119°07'44537238.8
2014-Dec-13 23:32N 31°60' E 120°47'673380.5
2014-Dec-13 23:31N 30°57' E 121°13'63520791.6
2014-Dec-13 23:29N 22°53' E 113°31'6631975.3
2014-Dec-13 23:09N 32°02' E 120°30'1279.7
2014-Dec-13 23:09N 32°01' E 120°32'73123.2
2014-Dec-13 22:34N 30°58' E 121°14'7318747.4
2014-Dec-13 22:33N 32°01' E 120°32'66712132.1
2014-Dec-13 22:30N 22°54' E 113°21'66923835.6
2014-Dec-13 22:28N 32°01' E 120°34'66330588.1
2014-Dec-13 22:27N 23°03' E 113°17'11115.1
2014-Dec-13 22:21N 23°04' E 113°30'2431430.6
2014-Dec-13 22:11N 23°55' E 117°48'462737.7
2014-Dec-13 21:33N 30°58' E 121°18'759335.6
2014-Dec-13 21:33N 32°02' E 120°31'510262156.8
2014-Dec-13 21:33N 23°53' E 117°46'51297054.4
2014-Dec-13 21:32N 31°60' E 120°47'6614741.8
2014-Dec-13 21:24N 23°04' E 113°30'41729.3
2014-Dec-13 21:21N 22°27' E 113°48'2288.6
2014-Dec-13 21:06N 22°10' E 113°32'251063.6
2014-Dec-13 21:04N 22°26' E 113°53'6721316.2
2014-Dec-13 20:34N 32°01' E 120°25'674485583.2
2014-Dec-13 20:33N 22°27' E 113°48'650780305.2
2014-Dec-13 20:33N 30°58' E 121°18'469422193.4
2014-Dec-13 20:33N 23°50' E 117°41'51643227.8
2014-Dec-13 20:33N 31°60' E 120°47'25241.3
2014-Dec-13 20:26N 31°43' E 121°08'65917717.9
2014-Dec-13 20:24N 23°04' E 113°30'232274.4
2014-Dec-13 19:33N 23°44' E 117°39'514462941.2
2014-Dec-13 19:33N 31°58' E 120°20'7827984.3
2014-Dec-13 19:33N 30°58' E 121°18'631324663.8
2014-Dec-13 19:33N 23°04' E 113°30'66091354.0
2014-Dec-13 19:33N 31°39' E 121°14'70213523.6
2014-Dec-13 19:30N 22°10' E 113°32'3653973.8
2014-Dec-13 19:24N 22°45' E 120°05'52910292.0
2014-Dec-13 19:21N 31°26' E 121°45'7999.5
2014-Dec-13 18:33N 31°58' E 120°20'78139711.8
2014-Dec-13 18:33N 30°58' E 121°18'481173075.0
2014-Dec-13 18:33N 23°40' E 117°35'107192366.4
2014-Dec-13 18:33N 24°50' E 119°03'323165898.1
2014-Dec-13 18:33N 23°04' E 113°30'659263747.1
2014-Dec-13 18:33N 31°35' E 121°19'29102759.1
2014-Dec-13 18:33N 31°20' E 121°48'527316288.5
2014-Dec-13 18:33N 22°40' E 120°11'3541420.7
2014-Dec-13 18:18N 22°27' E 113°48'223831.6
2014-Dec-13 18:18N 22°10' E 113°32'376512.1
2014-Dec-13 17:34N 22°36' E 120°17'5621011336.1
2014-Dec-13 17:34N 31°58' E 120°20'7839917.7
2014-Dec-13 17:33N 30°58' E 121°18'3013565.1
2014-Dec-13 17:33N 31°16' E 121°46'661297458.5
2014-Dec-13 17:33N 23°04' E 113°30'32127519.1
2014-Dec-13 17:32N 24°43' E 119°04'3204679.5
2014-Dec-13 17:28N 22°27' E 113°48'22144.3
2014-Dec-13 17:19N 22°10' E 113°32'7053502.1
2014-Dec-13 17:07N 31°60' E 120°47'2340.5
2014-Dec-13 16:34N 31°58' E 120°20'9120549.8
2014-Dec-13 16:33N 31°11' E 121°52'6797040.6
2014-Dec-13 16:27N 22°27' E 113°48'30443.6
2014-Dec-13 16:23N 22°53' E 113°31'66741420.0
2014-Dec-13 16:22N 31°28' E 121°28'82911.5
2014-Dec-13 16:17N 32°00' E 119°59'66223131.4
2014-Dec-13 16:15N 22°27' E 113°48'41786.6
2014-Dec-13 16:12N 23°04' E 113°30'5484.1
2014-Dec-13 15:33N 22°10' E 113°36'6702412131.7
2014-Dec-13 15:33N 30°58' E 121°18'358474.5
2014-Dec-13 15:33N 31°07' E 121°58'9725059.6
2014-Dec-13 15:33N 31°58' E 120°20'161335.3
2014-Dec-13 15:32N 31°58' E 120°02'912776.0
2014-Dec-13 15:30N 31°05' E 121°28'65012924.7
2014-Dec-13 15:27N 22°52' E 113°33'2913200.1
2014-Dec-13 15:27N 22°27' E 113°48'412063.5
2014-Dec-13 15:26N 23°04' E 113°29'6617237.8
2014-Dec-13 15:20N 31°60' E 120°47'6733139.7
2014-Dec-13 15:08N 22°54' E 113°22'37519.0
2014-Dec-13 15:03N 22°27' E 113°48'6501304.5
2014-Dec-13 14:33N 30°58' E 121°18'78139695.1
2014-Dec-13 14:33N 31°58' E 120°20'65729927.1
2014-Dec-13 14:32N 22°55' E 113°25'66792407.8
2014-Dec-13 14:32N 31°23' E 121°30'18831.4
2014-Dec-13 14:30N 31°05' E 121°28'65862350.1
2014-Dec-13 14:30N 22°53' E 113°17'151211.7
2014-Dec-13 14:29N 23°04' E 113°29'1040.8
2014-Dec-13 14:14N 23°03' E 113°18'64612561.5
2014-Dec-13 14:11N 31°57' E 120°08'85136.3
2014-Dec-13 13:33N 31°05' E 121°28'112236.0
2014-Dec-13 13:33N 30°58' E 121°18'8113837.0
2014-Dec-13 13:33N 31°56' E 120°12'64661166.7
2014-Dec-13 13:32N 23°02' E 113°23'651137960.2
2014-Dec-13 13:32N 31°58' E 120°20'66919590.6
2014-Dec-13 13:30N 22°27' E 113°48'412979.6
2014-Dec-13 13:29N 23°04' E 113°29'41289.3
2014-Dec-13 13:20N 22°27' E 113°48'6834007.0
2014-Dec-13 13:10N 31°60' E 120°47'2337.0
2014-Dec-13 12:34N 31°58' E 120°20'78279706.6
2014-Dec-13 12:33N 30°58' E 121°18'6511172541.9
2014-Dec-13 12:33N 22°26' E 113°47'6632385504.7
2014-Dec-13 12:33N 31°05' E 121°28'643115774.0
2014-Dec-13 12:33N 23°05' E 113°28'31811918.3
2014-Dec-13 12:32N 24°53' E 118°55'42913186.1
2014-Dec-13 12:30N 31°56' E 120°14'64262440.1
2014-Dec-13 12:29N 23°04' E 113°29'6506839.3
2014-Dec-13 12:23N 31°13' E 121°30'60738.4
2014-Dec-13 12:18N 31°60' E 120°47'3691713.5
2014-Dec-13 12:05N 25°58' E 119°26'326611.5
2014-Dec-13 11:33N 31°05' E 121°28'85895.1
2014-Dec-13 11:33N 30°59' E 121°22'8071611.2
2014-Dec-13 11:33N 31°58' E 120°19'43123171.1
2014-Dec-13 11:32N 24°53' E 118°55'317142660.7
2014-Dec-13 11:32N 22°59' E 113°31'64893247.2
2014-Dec-13 11:32N 31°09' E 121°27'67140289.7
2014-Dec-13 11:31N 22°21' E 113°43'451563.9
2014-Dec-13 11:29N 23°04' E 113°29'64215505.4
2014-Dec-13 11:26N 31°56' E 120°14'3607209.2
2014-Dec-13 11:23N 25°58' E 119°26'3691580.8
2014-Dec-13 11:09N 31°60' E 120°47'69113.9
2014-Dec-13 10:33N 31°01' E 121°27'669150627.4
2014-Dec-13 10:33N 22°15' E 113°43'32621762.0
2014-Dec-13 10:32N 24°53' E 118°55'39614411.5
2014-Dec-13 10:31N 31°05' E 121°28'32617773.0
2014-Dec-13 10:29N 25°58' E 119°26'36844210.9
2014-Dec-13 10:29N 23°04' E 113°29'4935631.0
2014-Dec-13 10:29N 22°15' E 113°39'371097.4
2014-Dec-13 10:27N 22°52' E 113°34'6496041.2
2014-Dec-13 10:20N 31°56' E 120°14'6696726.7
2014-Dec-13 10:14N 22°23' E 113°45'372941.0
2014-Dec-13 10:14N 22°55' E 113°25'6518945.1
2014-Dec-13 10:09N 31°02' E 121°29'681051.6
2014-Dec-13 10:05N 31°60' E 120°47'438798.5
2014-Dec-13 09:33N 24°53' E 118°55'320144105.4
2014-Dec-13 09:32N 22°54' E 113°30'65043332.3
2014-Dec-13 09:31N 31°04' E 121°28'68197994.8
2014-Dec-13 09:31N 22°11' E 113°35'41328.9
2014-Dec-13 09:31N 22°12' E 113°39'679143725.4
2014-Dec-13 09:31N 31°05' E 121°28'803810.3
2014-Dec-13 09:29N 31°56' E 120°14'64211380.5
2014-Dec-13 09:26N 23°04' E 113°29'3688901.6
2014-Dec-13 09:23N 25°58' E 119°26'39220175.3
2014-Dec-13 09:22N 22°10' E 113°37'3344476.5
2014-Dec-13 09:18N 24°53' E 118°55'3253161.6
2014-Dec-13 09:12N 22°17' E 113°44'38358.2
2014-Dec-13 09:05N 22°47' E 113°18'6641257.5
2014-Dec-13 08:34N 31°09' E 121°27'32934827.8
2014-Dec-13 08:33N 25°58' E 119°26'386115892.0
2014-Dec-13 08:33N 22°13' E 113°42'6721210468.7
2014-Dec-13 08:33N 31°01' E 121°28'39242799.8
2014-Dec-13 08:32N 24°52' E 118°58'33814490.6
2014-Dec-13 08:31N 22°11' E 113°34'116.9
2014-Dec-13 08:28N 22°12' E 113°34'531570.2
2014-Dec-13 08:26N 23°04' E 113°29'642330037.7
2014-Dec-13 08:26N 31°56' E 120°14'6873061.2
2014-Dec-13 08:12N 22°10' E 113°31'36650.8
2014-Dec-13 08:09N 22°45' E 113°24'6661111.9
2014-Dec-13 07:33N 31°12' E 121°29'2863.2
2014-Dec-13 07:33N 31°13' E 121°30'775166.5
2014-Dec-13 07:32N 31°56' E 120°14'68417345.0
2014-Dec-13 07:30N 22°11' E 113°35'69912390.4
2014-Dec-13 07:26N 32°01' E 120°35'65790939.3
2014-Dec-13 07:26N 23°04' E 113°29'32928236.3
2014-Dec-13 07:25N 24°52' E 119°10'3351811.8
2014-Dec-13 07:14N 22°45' E 113°31'665948.9
2014-Dec-13 06:32N 31°15' E 121°30'690155153.4
2014-Dec-13 06:32N 22°12' E 113°34'390.2
2014-Dec-13 06:30N 22°11' E 113°32'327.3
2014-Dec-13 06:24N 22°11' E 113°35'3475601.4
2014-Dec-13 06:20N 24°52' E 119°10'3323630.5
2014-Dec-13 06:15N 22°23' E 113°46'443353.0
2014-Dec-13 06:14N 23°04' E 113°29'6543627.7
2014-Dec-13 06:03N 32°03' E 120°26'74150.0
2014-Dec-13 05:33N 31°17' E 121°34'759272.2
2014-Dec-13 05:33N 32°02' E 120°24'43532608.0
2014-Dec-13 05:32N 24°52' E 119°11'4087618.8
2014-Dec-13 05:29N 31°20' E 121°33'6572364446.1
2014-Dec-13 05:29N 23°04' E 113°29'5017867.3
2014-Dec-13 05:29N 22°18' E 113°48'1449.4
2014-Dec-13 05:12N 22°11' E 113°35'6981257158.9
2014-Dec-13 05:12N 31°27' E 121°30'4 5.6
2014-Dec-13 04:33N 31°23' E 121°30'54313385.0
2014-Dec-13 04:30N 23°20' E 116°51'54120519.9
2014-Dec-13 04:29N 31°20' E 121°33'741680.9
2014-Dec-13 04:26N 31°57' E 120°18'645122171.5
2014-Dec-13 04:26N 23°04' E 113°29'53527.3
2014-Dec-13 04:20N 22°11' E 113°35'17257.4
2014-Dec-13 04:16N 22°12' E 113°54'51323.2
2014-Dec-13 04:06N 22°54' E 113°22'189343.5
2014-Dec-13 03:33N 23°19' E 116°46'54893929.4
2014-Dec-13 03:33N 31°26' E 121°29'668100258.4
2014-Dec-13 03:33N 22°55' E 113°25'666114131.1
2014-Dec-13 03:32N 31°21' E 121°30'761647.3
2014-Dec-13 03:30N 31°56' E 120°11'64065851.6
2014-Dec-13 03:29N 23°04' E 113°29'53623.1
2014-Dec-13 03:24N 22°11' E 113°35'698824.4
2014-Dec-13 02:33N 31°30' E 121°24'91275.8
2014-Dec-13 02:33N 31°24' E 121°31'54976042.3
2014-Dec-13 02:32N 23°21' E 116°35'18114840.4
2014-Dec-13 02:32N 23°03' E 113°19'15730.3
2014-Dec-13 02:30N 22°53' E 113°31'11480.9
2014-Dec-13 02:29N 23°04' E 113°29'53613.0
2014-Dec-13 02:24N 22°11' E 113°35'6857660.3
2014-Dec-13 02:18N 31°57' E 120°15'9116.3
2014-Dec-13 02:14N 31°57' E 120°04'68150000.2
2014-Dec-13 02:13N 22°12' E 113°34'7005022.8
2014-Dec-13 02:04N 31°53' E 120°53'3057.7
2014-Dec-13 01:34N 31°33' E 121°19'660198049.9
2014-Dec-13 01:33N 23°01' E 113°31'16442282.0
2014-Dec-13 01:33N 23°27' E 116°28'5498346.7
2014-Dec-13 01:29N 31°28' E 121°27'659197636.6
2014-Dec-13 01:29N 23°04' E 113°29'6622382949.4
2014-Dec-13 01:29N 31°57' E 120°51'7032873.0
2014-Dec-13 01:14N 22°12' E 113°35'0 3.0
2014-Dec-13 01:05N 22°11' E 113°35'6981321.8
2014-Dec-13 00:34N 31°31' E 121°22'658473973.0
2014-Dec-13 00:33N 23°04' E 113°29'659148360.6
2014-Dec-13 00:33N 31°38' E 121°15'521026.3
2014-Dec-13 00:30N 31°58' E 120°17'64533170.8
2014-Dec-13 00:29N 23°04' E 113°29'53431.3
2014-Dec-13 00:22N 22°11' E 113°35'6804030.1
2014-Dec-13 00:11N 31°03' E 121°28'80125.3
2014-Dec-12 23:33N 31°60' E 120°23'4431418.2
2014-Dec-12 23:33N 31°41' E 121°10'659395591.6
2014-Dec-12 23:33N 23°04' E 113°29'531064.3
2014-Dec-12 23:30N 22°11' E 113°35'532932.8
2014-Dec-12 23:29N 23°04' E 113°29'65915510.9
2014-Dec-12 23:26N 31°36' E 121°17'769410.3
2014-Dec-12 23:26N 32°05' E 119°55'8496.4
2014-Dec-12 22:33N 31°30' E 121°25'660296886.7
2014-Dec-12 22:33N 23°04' E 113°29'655168300.2
2014-Dec-12 22:33N 32°02' E 120°29'447269.7
2014-Dec-12 22:33N 31°39' E 121°13'8303.9
2014-Dec-12 22:31N 31°43' E 121°06'69930685.3
2014-Dec-12 22:30N 22°11' E 113°36'53820.1
2014-Dec-12 22:26N 23°04' E 113°29'0 0.5
2014-Dec-12 21:33N 23°04' E 113°30'65981804.4
2014-Dec-12 21:33N 31°26' E 121°30'2623752.9
2014-Dec-12 21:33N 31°43' E 121°06'698359168.2
2014-Dec-12 21:33N 22°10' E 113°38'69869758.2
2014-Dec-12 21:32N 32°01' E 120°35'356700.9
2014-Dec-12 21:32N 31°41' E 121°10'69623633.5
2014-Dec-12 21:30N 22°13' E 113°40'694124863.0
2014-Dec-12 21:30N 32°04' E 120°27'3526335.7
2014-Dec-12 21:26N 37°49' E 121°50'985141842.6
2014-Dec-12 21:26N 23°04' E 113°29'6632039.6
2014-Dec-12 21:06N 32°01' E 120°48'6951254.9
2014-Dec-12 20:33N 22°17' E 113°44'69271212.9
2014-Dec-12 20:33N 32°01' E 120°42'277040.5
2014-Dec-12 20:32N 31°43' E 121°07'117.6
2014-Dec-12 20:30N 31°43' E 121°06'193504.0
2014-Dec-12 20:29N 31°58' E 120°51'252025.1
2014-Dec-12 20:29N 31°59' E 120°21'64814059.5
2014-Dec-12 20:26N 23°04' E 113°29'534410.6
2014-Dec-12 20:25N 22°12' E 113°35'10269769.8
2014-Dec-12 20:19N 37°42' E 121°53'10144521.4
2014-Dec-12 20:05N 22°20' E 113°47'492048.1
2014-Dec-12 20:04N 23°02' E 113°21'2 4.5
2014-Dec-12 19:33N 23°02' E 113°23'44157715.0
2014-Dec-12 19:33N 22°23' E 113°45'44156893.8
2014-Dec-12 19:33N 23°04' E 113°30'659124843.7
2014-Dec-12 19:33N 31°45' E 121°04'35417472.9
2014-Dec-12 19:32N 37°37' E 121°55'35622886.7
2014-Dec-12 19:31N 31°43' E 121°06'65920105.6
2014-Dec-12 19:29N 23°04' E 113°29'53862.2
2014-Dec-12 19:25N 22°12' E 113°35'45261.1
2014-Dec-12 19:15N 22°53' E 113°17'1622.8
2014-Dec-12 18:33N 23°04' E 113°30'3847.5
2014-Dec-12 18:33N 23°05' E 113°27'660296796.2
2014-Dec-12 18:33N 31°43' E 121°06'68863537.7
2014-Dec-12 18:32N 22°16' E 113°49'100815242.2
2014-Dec-12 18:28N 37°30' E 121°57'97123461.5
2014-Dec-12 18:26N 23°04' E 113°29'534994.4
2014-Dec-12 18:25N 22°12' E 113°35'70343624.6
2014-Dec-12 18:24N 32°01' E 120°44'6813434.8
2014-Dec-12 18:12N 22°29' E 113°49'29658.7
2014-Dec-12 18:10N 22°19' E 113°19'36748.2
2014-Dec-12 18:07N 22°55' E 113°26'67012893.5
2014-Dec-12 18:04N 31°40' E 121°13'6601306.1
2014-Dec-12 17:33N 23°04' E 113°30'659118557.9
2014-Dec-12 17:33N 31°46' E 121°03'667300160.5
2014-Dec-12 17:33N 22°53' E 113°30'426236.2
2014-Dec-12 17:33N 22°13' E 113°42'694227168.0
2014-Dec-12 17:32N 31°51' E 120°53'65811392.6
2014-Dec-12 17:29N 23°04' E 113°29'532448.4
2014-Dec-12 17:28N 22°12' E 113°38'522363.0
2014-Dec-12 17:26N 23°03' E 113°32'66119992.7
2014-Dec-12 17:24N 32°01' E 120°44'6806478.0
2014-Dec-12 17:18N 22°29' E 113°51'4054.2
2014-Dec-12 16:33N 23°04' E 113°30'543499.7
2014-Dec-12 16:33N 22°10' E 113°36'69767863.5
2014-Dec-12 16:32N 31°47' E 120°56'117625.0
2014-Dec-12 16:32N 31°57' E 120°52'25394.3
2014-Dec-12 16:28N 31°40' E 121°13'66019017.3
2014-Dec-12 16:26N 23°04' E 113°29'6625651.3
2014-Dec-12 16:19N 32°01' E 120°47'6817663.7
2014-Dec-12 16:14N 22°29' E 113°51'4060.3
2014-Dec-12 15:33N 23°04' E 113°30'66016971.7
2014-Dec-12 15:31N 31°40' E 121°13'302059.1
2014-Dec-12 15:30N 32°00' E 120°47'9917.5
2014-Dec-12 15:30N 31°52' E 120°53'65957855.6
2014-Dec-12 15:29N 23°04' E 113°29'43328.0
2014-Dec-12 15:21N 22°28' E 113°54'1288.3
2014-Dec-12 15:13N 22°20' E 113°44'6911047.9
2014-Dec-12 14:34N 31°58' E 120°51'66255443.2
2014-Dec-12 14:33N 23°03' E 113°30'42991.7
2014-Dec-12 14:30N 22°24' E 113°45'68519264.9
2014-Dec-12 14:28N 31°40' E 121°13'66018008.4
2014-Dec-12 14:26N 23°04' E 113°29'6586365.8
2014-Dec-12 14:20N 31°60' E 120°40'5 6.9
2014-Dec-12 13:33N 32°00' E 120°46'931937.8
2014-Dec-12 13:33N 32°01' E 120°36'66366294.5
2014-Dec-12 13:32N 22°56' E 113°30'8137.5
2014-Dec-12 13:29N 23°04' E 113°29'59549.5
2014-Dec-12 13:23N 22°18' E 114°09'677828.3
2014-Dec-12 12:33N 32°04' E 120°32'8535.1
2014-Dec-12 12:33N 31°60' E 120°39'351781.1
2014-Dec-12 12:31N 31°40' E 121°13'66015847.5
2014-Dec-12 12:29N 23°04' E 113°29'592930.5
2014-Dec-12 12:28N 22°18' E 114°09'17136.9
2014-Dec-12 12:20N 22°27' E 113°53'676864.5
2014-Dec-12 11:33N 32°04' E 120°28'64251.0
2014-Dec-12 11:33N 32°02' E 120°35'401323.2
2014-Dec-12 11:31N 31°40' E 121°13'6607117.1
2014-Dec-12 11:26N 23°04' E 113°29'6598242.6
2014-Dec-12 11:21N 31°52' E 120°54'2733.4
2014-Dec-12 10:33N 32°02' E 120°25'52343.4
2014-Dec-12 10:33N 32°04' E 120°30'69385975.6
2014-Dec-12 10:33N 22°10' E 113°50'69326546.2
2014-Dec-12 10:31N 31°40' E 121°13'68033524.4
2014-Dec-12 10:30N 22°27' E 113°49'412503.0
2014-Dec-12 10:29N 23°04' E 113°29'6411912.7
2014-Dec-12 10:09N 31°01' E 121°29'81137.9
2014-Dec-12 09:33N 32°05' E 120°29'68960536.0
2014-Dec-12 09:33N 22°15' E 113°48'68242346.2
2014-Dec-12 09:32N 32°00' E 120°22'64913827.9
2014-Dec-12 09:29N 23°04' E 113°29'6607893.5
2014-Dec-12 09:24N 31°46' E 121°04'680306018.4
2014-Dec-12 09:24N 22°27' E 113°49'68028794.3
2014-Dec-12 09:22N 31°40' E 121°13'67718198.4
2014-Dec-12 09:20N 22°28' E 113°53'676867.4
2014-Dec-12 08:33N 32°05' E 120°29'121026.7
2014-Dec-12 08:33N 31°57' E 120°18'466922.8
2014-Dec-12 08:32N 31°42' E 121°09'453039.4
2014-Dec-12 08:31N 30°58' E 121°18'63215467.2
2014-Dec-12 08:29N 23°04' E 113°29'6602909.7
2014-Dec-12 08:15N 31°40' E 121°13'49679.8
2014-Dec-12 08:11N 31°58' E 120°20'1116.9
2014-Dec-12 07:33N 32°05' E 120°29'172835.4
2014-Dec-12 07:33N 31°56' E 120°12'9151.1
2014-Dec-12 07:29N 31°58' E 120°22'64880426.5
2014-Dec-12 07:29N 23°04' E 113°29'414012.5
2014-Dec-12 07:28N 22°27' E 113°49'6805065.6
2014-Dec-12 07:20N 31°40' E 121°13'4557.2
2014-Dec-12 06:33N 32°05' E 120°29'171872.9
2014-Dec-12 06:33N 31°57' E 120°11'650167199.0
2014-Dec-12 06:33N 22°55' E 113°27'659296630.3
2014-Dec-12 06:32N 31°59' E 120°26'18732.8
2014-Dec-12 06:31N 31°57' E 120°05'63818381.8
2014-Dec-12 06:29N 23°04' E 113°29'66014952.5
2014-Dec-12 06:26N 31°40' E 121°13'68010068.9
2014-Dec-12 06:22N 22°27' E 113°49'2076.1
2014-Dec-12 06:06N 22°19' E 114°09'6651217.2
2014-Dec-12 05:33N 31°58' E 120°17'1222244.0
2014-Dec-12 05:33N 32°05' E 120°29'69969903.5
2014-Dec-12 05:33N 22°20' E 113°19'693103958.5
2014-Dec-12 05:32N 31°59' E 120°27'4419893.9
2014-Dec-12 05:32N 31°40' E 121°13'68058309.6
2014-Dec-12 05:32N 22°27' E 113°48'66115055.3
2014-Dec-12 05:29N 31°59' E 119°59'63712679.4
2014-Dec-12 05:26N 23°04' E 113°29'41653.6
2014-Dec-12 05:22N 22°27' E 113°49'4317194.9
2014-Dec-12 05:22N 23°02' E 113°22'6653104.4
2014-Dec-12 05:09N 31°26' E 121°29'64107.4
2014-Dec-12 04:34N 32°05' E 120°29'71037.2
2014-Dec-12 04:33N 32°00' E 120°23'3543.5
2014-Dec-12 04:33N 31°59' E 120°27'65150938.2
2014-Dec-12 04:32N 23°05' E 113°27'350.0
2014-Dec-12 04:28N 23°03' E 113°30'6608903.7
2014-Dec-12 04:24N 31°24' E 121°34'233509.8
2014-Dec-12 04:23N 31°40' E 121°13'6606255.7
2014-Dec-12 04:17N 23°04' E 113°29'59419.2
2014-Dec-12 04:09N 22°18' E 114°09'21247.9
2014-Dec-12 04:03N 22°27' E 113°48'4284.3
2014-Dec-12 03:33N 23°03' E 113°25'660158303.7
2014-Dec-12 03:33N 32°05' E 120°29'65650268.8
2014-Dec-12 03:32N 23°04' E 113°30'660198021.6
2014-Dec-12 03:32N 31°40' E 121°13'564156065.2
2014-Dec-12 03:32N 23°08' E 116°47'56565647.3
2014-Dec-12 03:32N 31°59' E 120°27'21641.4
2014-Dec-12 03:30N 31°59' E 120°01'905969.0
2014-Dec-12 03:29N 31°22' E 121°37'665133036.6
2014-Dec-12 03:28N 23°06' E 113°18'493432.5
2014-Dec-12 03:27N 22°27' E 113°48'41889.1
2014-Dec-12 03:25N 23°04' E 113°29'411041.6
2014-Dec-12 03:22N 22°27' E 113°49'1 1.0
2014-Dec-12 02:33N 22°27' E 113°48'673605529.5
2014-Dec-12 02:33N 31°59' E 120°27'65041807.5
2014-Dec-12 02:32N 23°04' E 113°30'660198022.9
2014-Dec-12 02:32N 31°40' E 121°13'3013705.3
2014-Dec-12 02:32N 31°20' E 121°40'8935557.0
2014-Dec-12 02:32N 31°58' E 120°06'66110974.2
2014-Dec-12 02:28N 22°27' E 113°49'492344.8
2014-Dec-12 02:27N 23°06' E 113°18'19837566.7
2014-Dec-12 02:27N 23°13' E 116°53'1871147.2
2014-Dec-12 02:17N 23°04' E 113°30'1164.3
2014-Dec-12 02:06N 22°54' E 113°34'6631207.3
2014-Dec-12 01:33N 32°05' E 120°29'174845.1
2014-Dec-12 01:33N 31°57' E 120°11'645464178.7
2014-Dec-12 01:33N 23°06' E 113°18'66521960.1
2014-Dec-12 01:31N 31°40' E 121°13'66021029.1
2014-Dec-12 01:29N 23°04' E 113°30'41271.2
2014-Dec-12 01:20N 22°27' E 113°49'41724.9
2014-Dec-12 01:17N 23°04' E 113°30'644889.5
2014-Dec-12 00:34N 31°58' E 120°17'83678.4
2014-Dec-12 00:33N 31°59' E 120°27'441293.8
2014-Dec-12 00:31N 31°40' E 121°13'68027489.7
2014-Dec-12 00:30N 22°27' E 113°49'412843.7
2014-Dec-12 00:29N 23°04' E 113°30'20247.2
2014-Dec-12 00:24N 22°46' E 113°38'67325776.0
2014-Dec-12 00:23N 32°01' E 120°48'6672896.1
2014-Dec-12 00:09N 23°06' E 113°18'11201.5
2014-Dec-12 00:05N 23°04' E 113°30'1223.1
2014-Dec-11 23:33N 22°52' E 113°34'664478026.4
2014-Dec-11 23:33N 32°05' E 120°29'76115.6
2014-Dec-11 23:33N 32°00' E 120°23'32572.3
2014-Dec-11 23:33N 31°59' E 120°27'65046823.0
2014-Dec-11 23:32N 23°04' E 113°30'66036004.7
2014-Dec-11 23:31N 31°40' E 121°13'66016852.4
2014-Dec-11 23:29N 23°04' E 113°30'5 4.9
2014-Dec-11 22:33N 22°60' E 113°31'6481165617.2
2014-Dec-11 22:33N 31°09' E 121°27'74266979.7
2014-Dec-11 22:33N 32°05' E 120°29'65488.4
2014-Dec-11 22:33N 31°59' E 120°27'43143.7
2014-Dec-11 22:33N 32°02' E 120°30'65547136.0
2014-Dec-11 22:32N 23°04' E 113°30'66036003.4
2014-Dec-11 22:31N 31°40' E 121°13'66016851.8
2014-Dec-11 22:29N 23°04' E 113°30'44173.1
2014-Dec-11 22:14N 22°25' E 113°53'6781013.8
2014-Dec-11 21:33N 32°00' E 120°37'89301.8
2014-Dec-11 21:33N 32°05' E 120°29'65640043.8
2014-Dec-11 21:32N 23°04' E 113°30'6609658.8
2014-Dec-11 21:28N 31°40' E 121°13'66016850.7
2014-Dec-11 21:26N 23°04' E 113°30'7 8.2
2014-Dec-11 20:33N 23°02' E 113°22'6622381906.3
2014-Dec-11 20:33N 32°05' E 120°29'135321.9
2014-Dec-11 20:33N 32°01' E 120°45'157879.4
2014-Dec-11 20:33N 31°59' E 120°27'441420.1
2014-Dec-11 20:31N 31°40' E 121°13'66016850.5
2014-Dec-11 20:29N 23°04' E 113°30'2281861.3
2014-Dec-11 20:22N 23°41' E 117°35'2283296.0
2014-Dec-11 20:17N 23°04' E 113°30'650885.5
2014-Dec-11 19:33N 31°59' E 120°27'621847.7
2014-Dec-11 19:33N 32°05' E 120°29'66343419.3
2014-Dec-11 19:32N 23°03' E 113°17'1214455.2
2014-Dec-11 19:32N 23°04' E 113°30'66035998.4
2014-Dec-11 19:31N 31°40' E 121°13'51039041.1
2014-Dec-11 19:31N 23°47' E 117°39'2338921.6
2014-Dec-11 19:29N 23°04' E 113°30'66348675.4
2014-Dec-11 19:28N 32°01' E 120°47'1617.1
2014-Dec-11 18:33N 32°05' E 120°29'61105.0
2014-Dec-11 18:33N 31°59' E 120°27'69478044.0
2014-Dec-11 18:33N 22°11' E 113°33'701140138.3
2014-Dec-11 18:32N 31°43' E 121°08'680815804.4
2014-Dec-11 18:32N 22°27' E 113°48'2283796.1
2014-Dec-11 18:29N 23°47' E 117°39'2335351.2
2014-Dec-11 18:26N 23°04' E 113°30'0 1.1
2014-Dec-11 18:20N 23°04' E 113°30'6633603.1
2014-Dec-11 18:09N 32°01' E 120°47'1626.1
2014-Dec-11 17:34N 32°05' E 120°29'61557.8
2014-Dec-11 17:33N 31°59' E 120°27'65152040.4
2014-Dec-11 17:33N 23°04' E 113°29'482998.5
2014-Dec-11 17:32N 22°19' E 113°47'686164755.0
2014-Dec-11 17:31N 31°47' E 121°00'65856404.6
2014-Dec-11 17:31N 23°04' E 113°30'66376942.2
2014-Dec-11 17:30N 32°01' E 120°47'52118742.5
2014-Dec-11 17:28N 23°48' E 117°39'2353207.5
2014-Dec-11 17:24N 22°53' E 113°30'31860.6
2014-Dec-11 17:22N 22°27' E 113°48'6595343.4
2014-Dec-11 17:14N 31°01' E 121°29'65817040.9
2014-Dec-11 17:12N 22°27' E 113°49'6781051.4
2014-Dec-11 16:33N 32°05' E 120°30'657118173.6
2014-Dec-11 16:33N 23°04' E 113°29'23442079.1
2014-Dec-11 16:33N 23°48' E 117°39'513102627.0
2014-Dec-11 16:32N 31°59' E 120°27'68641829.8
2014-Dec-11 16:31N 22°11' E 113°51'69242965.5
2014-Dec-11 16:31N 31°52' E 120°53'10609.0
2014-Dec-11 16:30N 32°01' E 120°47'69583379.1
2014-Dec-11 16:29N 22°15' E 113°47'12554.2
2014-Dec-11 16:28N 22°27' E 113°48'6794596.4
2014-Dec-11 16:19N 31°19' E 121°42'7295.4
2014-Dec-11 15:33N 32°03' E 120°34'657147885.5
2014-Dec-11 15:33N 23°04' E 113°29'651334646.6
2014-Dec-11 15:33N 31°59' E 120°27'1922736.3
2014-Dec-11 15:33N 31°60' E 120°49'520311944.9
2014-Dec-11 15:33N 23°48' E 117°39'22815767.8
2014-Dec-11 15:32N 22°27' E 113°48'685492923.1
2014-Dec-11 15:32N 32°01' E 120°47'62169.8
2014-Dec-11 15:10N 31°19' E 121°42'68112.6
2014-Dec-11 14:34N 32°00' E 120°38'22190.8
2014-Dec-11 14:33N 31°60' E 120°40'112812.3
2014-Dec-11 14:33N 31°59' E 120°27'6538110.5
2014-Dec-11 14:28N 22°60' E 113°31'2338646.2
2014-Dec-11 14:27N 23°48' E 117°39'22818222.8
2014-Dec-11 14:26N 22°27' E 113°48'67935960.0
2014-Dec-11 14:25N 31°19' E 121°42'62661.4
2014-Dec-11 14:19N 32°01' E 120°47'1418.0
2014-Dec-11 13:33N 32°01' E 120°31'102841.7
2014-Dec-11 13:33N 32°01' E 120°43'143114.2
2014-Dec-11 13:33N 31°59' E 120°27'508365901.5
2014-Dec-11 13:33N 23°52' E 117°43'23216082.4
2014-Dec-11 13:32N 22°27' E 113°48'2155.2
2014-Dec-11 13:09N 22°18' E 114°09'6821141.0
2014-Dec-11 12:33N 32°00' E 120°49'216927.4
2014-Dec-11 12:33N 32°00' E 120°24'66368226.6
2014-Dec-11 12:33N 22°54' E 113°21'664119454.4
2014-Dec-11 12:32N 31°59' E 120°27'673142550.6
2014-Dec-11 12:32N 22°27' E 113°48'2392181.8
2014-Dec-11 12:25N 23°56' E 117°50'4981856.1
2014-Dec-11 12:09N 31°57' E 120°15'1117.8
2014-Dec-11 11:33N 31°59' E 120°27'76473.8
2014-Dec-11 11:33N 31°58' E 120°19'1503.3
2014-Dec-11 11:33N 31°58' E 120°19'2631178.6
2014-Dec-11 11:33N 31°60' E 120°49'5137.2
2014-Dec-11 11:30N 31°55' E 120°53'66114170.4
2014-Dec-11 11:28N 23°04' E 113°29'652710.3
2014-Dec-11 10:32N 32°01' E 120°25'3357.1
2014-Dec-11 10:32N 31°59' E 120°27'121682.7
2014-Dec-11 10:32N 31°56' E 120°13'351173.0
2014-Dec-11 10:30N 31°51' E 120°54'66318513.6
2014-Dec-11 10:28N 23°02' E 113°22'262157465.8
2014-Dec-11 10:27N 24°07' E 117°60'4913038.1
2014-Dec-11 10:18N 31°53' E 120°53'485655.4
2014-Dec-11 09:33N 24°12' E 118°05'48064045.4
2014-Dec-11 09:33N 31°47' E 120°59'467163.7
2014-Dec-11 09:33N 31°57' E 120°07'2341832.1
2014-Dec-11 09:33N 32°01' E 120°34'6455.8
2014-Dec-11 09:32N 31°59' E 120°27'65810248.4
2014-Dec-11 09:28N 23°04' E 113°16'66512462.0
2014-Dec-11 09:25N 31°48' E 120°56'657262903.8
2014-Dec-11 09:25N 23°04' E 113°29'5550.1
2014-Dec-11 09:24N 23°02' E 113°24'141107.6
2014-Dec-11 09:23N 22°48' E 113°20'6789464.6
2014-Dec-11 09:19N 31°19' E 121°42'66529577.1
2014-Dec-11 09:18N 22°54' E 113°35'30213.0
2014-Dec-11 09:09N 22°26' E 113°49'6811149.8
2014-Dec-11 08:34N 31°44' E 121°07'4494.3
2014-Dec-11 08:33N 31°46' E 121°03'66685591.9
2014-Dec-11 08:33N 23°03' E 113°20'656337474.7
2014-Dec-11 08:32N 31°59' E 120°27'24997.8
2014-Dec-11 08:31N 31°60' E 119°59'4728089.5
2014-Dec-11 08:28N 24°18' E 118°10'2671337.5
2014-Dec-11 08:16N 23°04' E 113°29'5562.9
2014-Dec-11 08:15N 23°02' E 113°24'842.2
2014-Dec-11 08:04N 22°54' E 113°22'4 7.8
2014-Dec-11 07:34N 22°55' E 113°26'660198002.4
2014-Dec-11 07:33N 31°59' E 120°27'419773.9
2014-Dec-11 07:33N 31°41' E 121°10'495044.3
2014-Dec-11 07:33N 31°56' E 120°15'64814488.2
2014-Dec-11 07:30N 23°03' E 113°20'443966.9
2014-Dec-11 07:29N 22°27' E 113°48'411497.8
2014-Dec-11 07:28N 23°04' E 113°29'3687756.0
2014-Dec-11 07:25N 25°59' E 119°26'36254284.5
2014-Dec-11 07:24N 31°59' E 119°57'641135700.1
2014-Dec-11 07:24N 23°02' E 113°24'2712197.1
2014-Dec-11 07:17N 24°19' E 118°08'467644.8
2014-Dec-11 06:33N 31°34' E 121°20'519260.3
2014-Dec-11 06:33N 31°59' E 120°27'652260764.4
2014-Dec-11 06:33N 23°04' E 113°26'66139674.8
2014-Dec-11 06:32N 31°36' E 121°18'680611744.8
2014-Dec-11 06:32N 22°27' E 113°48'67829767.2
2014-Dec-11 06:30N 31°11' E 121°50'45741128.6
2014-Dec-11 06:30N 24°19' E 118°08'4758108.8
2014-Dec-11 06:26N 31°58' E 120°25'6585271.9
2014-Dec-11 06:19N 22°52' E 113°33'667876.1
2014-Dec-11 05:33N 31°31' E 121°24'247855.3
2014-Dec-11 05:33N 31°16' E 121°46'22987.4
2014-Dec-11 05:31N 31°30' E 121°26'46510092.9
2014-Dec-11 05:29N 24°19' E 118°08'47353171.5
2014-Dec-11 05:28N 31°57' E 120°18'6676601.5
2014-Dec-11 05:22N 22°27' E 113°48'28311.7
2014-Dec-11 05:17N 22°52' E 113°33'13510.5
2014-Dec-11 05:15N 23°02' E 113°24'6595585.4
2014-Dec-11 05:08N 31°22' E 121°28'64110.4
2014-Dec-11 04:33N 31°59' E 120°27'6232037.7
2014-Dec-11 04:33N 31°26' E 121°30'1759652.8
2014-Dec-11 04:33N 31°21' E 121°48'16624.6
2014-Dec-11 04:32N 31°26' E 121°30'4639209.4
2014-Dec-11 04:29N 24°19' E 118°08'26323133.1
2014-Dec-11 04:28N 22°27' E 113°48'41628.1
2014-Dec-11 04:24N 23°02' E 113°24'  
Track history (hours):
 
Tides and Currents Weather Stations Pressure Air Temp Water Temp Dewpoint Dewpoint Depression Visibility Wind Speed Wind Dir Waves Ship Positions

Callsign 000000 (name unknown)

Last reported at 2014-Dec-21 03:33 UTC. Time now 2014-Dec-21 04:03 UTC.
Position N 31°28' E 121°47'.

Type: Fishing. MMSI: 200007452.

Date/timePositionNaut miles runAvg speedWind from/ knotsBaromVisibWave heightAir tempDewpointWater temp
2014-Dec-21 03:33N 31°28' E 121°47'72128714.1
2014-Dec-21 03:33N 32°01' E 120°32'6919061.8
2014-Dec-21 03:33N 31°11' E 121°28'646155060.0
2014-Dec-21 03:33N 23°05' E 113°29'661793271.4
2014-Dec-21 03:33N 32°02' E 120°43'446160707.0
2014-Dec-21 03:33N 24°46' E 118°54'4563256651.2
2014-Dec-21 03:32S 20°09' E 057°30'48881353520.0
2014-Dec-21 03:31N 31°58' E 120°26'732971.9
2014-Dec-21 03:30N 31°07' E 121°28'39810535.8
2014-Dec-21 03:28N 24°52' E 118°58'32126904.7
2014-Dec-21 03:27N 22°57' E 113°30'48200.0
2014-Dec-21 03:13N 22°09' E 113°28'70934972.9
2014-Dec-21 03:11N 31°60' E 120°49'66513608.8
2014-Dec-21 03:08N 22°58' E 113°33'6461106.6
2014-Dec-21 02:33N 31°07' E 121°28'2327133.6
2014-Dec-21 02:33N 31°29' E 121°24'65798618.4
2014-Dec-21 02:33N 23°05' E 113°29'654123914.8
2014-Dec-21 02:33N 32°01' E 120°32'44647226.0
2014-Dec-21 02:32N 24°43' E 118°54'433173085.1
2014-Dec-21 02:32N 31°28' E 121°47'49321109745.9
2014-Dec-21 02:32S 20°09' E 057°30'48881353516.9
2014-Dec-21 02:31N 31°58' E 120°26'65215654.9
2014-Dec-21 02:29N 22°59' E 113°33'551.3
2014-Dec-21 02:23N 22°55' E 113°36'32012377.6
2014-Dec-21 02:22N 24°51' E 119°02'3225676.5
2014-Dec-21 02:18N 23°03' E 113°30'659.6
2014-Dec-21 02:12N 23°02' E 113°23'66768570.2
2014-Dec-21 02:11N 32°02' E 120°43'5297.3
2014-Dec-21 02:10N 31°60' E 120°49'1422.0
2014-Dec-21 01:33N 32°00' E 120°33'7164068.5
2014-Dec-21 01:33N 31°07' E 121°28'224037.5
2014-Dec-21 01:33N 31°29' E 121°24'65757711.8
2014-Dec-21 01:32N 23°05' E 113°29'4243391700.2
2014-Dec-21 01:32S 20°09' E 057°30'48881353517.9
2014-Dec-21 01:31N 31°58' E 120°26'15760.3
2014-Dec-21 01:30N 32°02' E 120°43'66299265.5
2014-Dec-21 01:30N 23°04' E 113°29'6416.5
2014-Dec-21 01:29N 22°59' E 113°33'32115631.5
2014-Dec-21 01:28N 24°50' E 119°02'437224942.2
2014-Dec-21 01:28N 32°00' E 120°34'6559179.7
2014-Dec-21 01:23N 23°04' E 113°29'1110058.8
2014-Dec-21 01:23N 22°55' E 113°36'64133915.8
2014-Dec-21 01:22N 30°60' E 121°25'69316.0
2014-Dec-21 01:09N 32°00' E 120°46'45130652.4
2014-Dec-21 01:08N 24°40' E 118°54'311538.0
2014-Dec-21 00:33N 22°57' E 113°33'109073.8
2014-Dec-21 00:33N 23°06' E 113°27'658118426.9
2014-Dec-21 00:33N 31°29' E 121°24'223361.9
2014-Dec-21 00:33N 31°07' E 121°28'7112202.0
2014-Dec-21 00:32N 32°00' E 120°33'52723.0
2014-Dec-21 00:32N 32°02' E 120°27'4890704210.7
2014-Dec-21 00:32S 20°09' E 057°30'48881256840.0
2014-Dec-21 00:31N 31°58' E 120°26'65024106.2
2014-Dec-21 00:30N 23°04' E 113°29'6389.4
2014-Dec-21 00:29N 22°59' E 113°33'32216307.1
2014-Dec-21 00:28N 24°49' E 119°03'12461.6
2014-Dec-21 00:26N 24°40' E 118°54'3985194.8
2014-Dec-21 00:22N 30°57' E 121°17'711357.1
2014-Dec-21 00:18N 32°02' E 120°43'4763.4
2014-Dec-20 23:33N 31°29' E 121°24'65898690.5
2014-Dec-20 23:33N 23°06' E 113°27'655168332.4
2014-Dec-20 23:33N 32°00' E 120°33'2139.0
2014-Dec-20 23:32N 32°02' E 120°35'6591187096.7
2014-Dec-20 23:32N 22°59' E 113°33'42431388487.1
2014-Dec-20 23:32S 20°09' E 057°30'48881256839.1
2014-Dec-20 23:31N 31°58' E 120°26'65024875.2
2014-Dec-20 23:30N 23°04' E 113°29'3229141.1
2014-Dec-20 23:28N 24°48' E 119°03'12436.2
2014-Dec-20 23:26N 24°39' E 118°54'45485960.9
2014-Dec-20 23:26N 32°02' E 120°43'6712033.8
2014-Dec-20 23:06N 22°51' E 113°34'6641226.6
2014-Dec-20 22:34N 32°00' E 120°33'5327477.7
2014-Dec-20 22:33N 31°29' E 121°24'578533.8
2014-Dec-20 22:33N 32°04' E 120°31'75269904.9
2014-Dec-20 22:33N 31°07' E 121°28'673597.1
2014-Dec-20 22:32N 32°02' E 120°43'49041765279.9
2014-Dec-20 22:32S 20°09' E 057°30'48881173049.6
2014-Dec-20 22:31N 31°58' E 120°26'111949.0
2014-Dec-20 22:31N 31°56' E 120°13'4347650.2
2014-Dec-20 22:28N 24°47' E 119°03'3221958.5
2014-Dec-20 22:18N 23°04' E 113°29'0 2.0
2014-Dec-20 22:14N 23°04' E 113°29'656.8
2014-Dec-20 22:08N 22°59' E 113°33'6461117.4
2014-Dec-20 21:33N 31°07' E 121°28'7515875.8
2014-Dec-20 21:33N 32°04' E 120°31'65937681.6
2014-Dec-20 21:32N 22°59' E 113°33'424315273358.3
2014-Dec-20 21:32S 20°09' E 057°30'4904840610.2
2014-Dec-20 21:31N 32°02' E 120°43'4817104.4
2014-Dec-20 21:31N 31°29' E 121°23'65828528.1
2014-Dec-20 21:30N 23°04' E 113°29'65028515.5
2014-Dec-20 21:28N 31°58' E 120°26'43936716.6
2014-Dec-20 21:28N 24°46' E 119°03'442176742.9
2014-Dec-20 21:28N 32°00' E 120°33'65530222.4
2014-Dec-20 21:26N 23°04' E 113°29'658747.6
2014-Dec-20 20:34N 31°29' E 121°23'579741.5
2014-Dec-20 20:33N 32°04' E 120°31'7530017.8
2014-Dec-20 20:33N 31°07' E 121°28'677775.0
2014-Dec-20 20:32N 32°02' E 120°43'4904375591.8
2014-Dec-20 20:32S 20°09' E 057°30'48881256839.1
2014-Dec-20 20:31N 31°58' E 120°26'6582.4
2014-Dec-20 20:31N 32°00' E 120°33'6559821.6
2014-Dec-20 20:27N 23°04' E 113°29'6313.4
2014-Dec-20 20:26N 22°59' E 113°33'3221942.3
2014-Dec-20 20:16N 24°49' E 119°04'32313690.1
2014-Dec-20 20:14N 23°04' E 113°29'6396689.6
2014-Dec-20 20:09N 31°55' E 120°10'2034.3
2014-Dec-20 19:33N 32°00' E 120°33'5347944.8
2014-Dec-20 19:33N 31°29' E 121°23'224044.9
2014-Dec-20 19:33N 31°07' E 121°28'7554045.2
2014-Dec-20 19:33N 32°04' E 120°31'4895225915.1
2014-Dec-20 19:32S 20°09' E 057°30'424315273358.3
2014-Dec-20 19:32N 22°59' E 113°33'652180620.2
2014-Dec-20 19:31N 31°58' E 120°26'4347006.0
2014-Dec-20 19:28N 24°50' E 119°04'44179351.5
2014-Dec-20 19:27N 32°02' E 120°43'66214009.8
2014-Dec-20 19:25N 23°04' E 113°30'125.2
2014-Dec-20 19:23N 23°04' E 113°29'3135748.7
2014-Dec-20 19:20N 24°41' E 118°55'3153120.3
2014-Dec-20 19:14N 23°06' E 113°27'657969.0
2014-Dec-20 18:33N 32°04' E 120°31'415370.3
2014-Dec-20 18:33N 32°00' E 120°33'7992.4
2014-Dec-20 18:33N 31°58' E 120°26'739446.8
2014-Dec-20 18:33N 31°07' E 121°28'645178484.3
2014-Dec-20 18:32N 23°06' E 113°27'4242509033.1
2014-Dec-20 18:32S 20°09' E 057°30'4904107639.1
2014-Dec-20 18:29N 32°02' E 120°43'706967.3
2014-Dec-20 18:28N 30°58' E 121°14'38529511.9
2014-Dec-20 18:28N 24°52' E 118°57'41853685.6
2014-Dec-20 18:27N 31°29' E 121°23'42622867.1
2014-Dec-20 18:26N 24°43' E 118°58'31643708.2
2014-Dec-20 18:26N 22°59' E 113°33'6237.6
2014-Dec-20 18:24N 23°04' E 113°30'134.3
2014-Dec-20 18:23N 23°04' E 113°29'10129.9
2014-Dec-20 18:19N 22°54' E 113°28'665881.7
2014-Dec-20 17:33N 32°04' E 120°31'657337764.2
2014-Dec-20 17:33N 23°06' E 113°27'645165734.3
2014-Dec-20 17:33N 31°07' E 121°28'7366127.9
2014-Dec-20 17:33N 31°58' E 120°26'7521.2
2014-Dec-20 17:32N 32°00' E 120°33'444159806.3
2014-Dec-20 17:32N 24°44' E 119°01'4567782964.8
2014-Dec-20 17:32S 20°09' E 057°30'4904248631.0
2014-Dec-20 17:31N 32°02' E 120°43'471722.4
2014-Dec-20 17:29N 31°29' E 121°23'66614535.9
2014-Dec-20 17:26N 22°54' E 113°28'6664.7
2014-Dec-20 17:26N 22°59' E 113°33'634.2
2014-Dec-20 17:15N 23°04' E 113°30'655941.2
2014-Dec-20 16:34N 32°00' E 120°33'97913.0
2014-Dec-20 16:33N 32°02' E 120°43'113576.5
2014-Dec-20 16:33N 32°04' E 120°31'71518.5
2014-Dec-20 16:33N 31°58' E 120°26'7324047.9
2014-Dec-20 16:33N 31°07' E 121°28'4905263560.7
2014-Dec-20 16:32S 20°09' E 057°30'4899801650.1
2014-Dec-20 16:31N 30°60' E 121°25'292939.2
2014-Dec-20 16:31N 31°29' E 121°23'6586055.4
2014-Dec-20 16:24N 23°04' E 113°30'511800.7
2014-Dec-20 16:23N 22°14' E 113°23'46182.7
2014-Dec-20 16:07N 22°59' E 113°33'6581161.9
2014-Dec-20 15:34N 32°00' E 120°33'6551179005.5
2014-Dec-20 15:33N 23°06' E 113°27'655235792.1
2014-Dec-20 15:33N 32°04' E 120°28'61077.6
2014-Dec-20 15:33N 31°58' E 120°26'157927.8
2014-Dec-20 15:33N 32°02' E 120°43'303060.4
2014-Dec-20 15:32N 31°42' E 121°09'385738.1
2014-Dec-20 15:32N 31°07' E 121°28'49051765859.4
2014-Dec-20 15:32S 20°09' E 057°30'490353654.3
2014-Dec-20 15:26N 31°03' E 121°28'68311702.1
2014-Dec-20 15:23N 22°19' E 113°19'42972.0
2014-Dec-20 15:20N 22°59' E 113°33'666.0
2014-Dec-20 15:14N 23°04' E 113°29'1 3.6
2014-Dec-20 15:04N 23°04' E 113°30'6551288.9
2014-Dec-20 14:33N 32°00' E 120°34'655112272.5
2014-Dec-20 14:33N 23°06' E 113°27'650137730.0
2014-Dec-20 14:33N 32°01' E 120°23'172585.1
2014-Dec-20 14:32N 32°02' E 120°43'309737.6
2014-Dec-20 14:32N 31°42' E 121°09'385297.4
2014-Dec-20 14:32N 31°07' E 121°28'49052943097.0
2014-Dec-20 14:32S 20°09' E 057°30'4888169189.9
2014-Dec-20 14:30N 31°58' E 120°26'64936525.2
2014-Dec-20 14:29N 23°04' E 113°30'152.1
2014-Dec-20 14:28N 23°04' E 113°29'6328.1
2014-Dec-20 14:27N 22°59' E 113°33'6503795.3
2014-Dec-20 14:17N 32°15' E 119°53'9080638.0
2014-Dec-20 14:17N 31°29' E 121°23'6285.9
2014-Dec-20 13:33N 31°58' E 120°19'645464632.4
2014-Dec-20 13:33N 23°06' E 113°27'644193294.3
2014-Dec-20 13:33N 31°07' E 121°28'7322043.9
2014-Dec-20 13:33N 31°58' E 120°26'6502338846.4
2014-Dec-20 13:33N 23°04' E 113°30'65584242.9
2014-Dec-20 13:33N 32°00' E 120°33'3514166.3
2014-Dec-20 13:32N 31°42' E 121°09'4911465220.4
2014-Dec-20 13:32S 20°09' E 057°30'4904103233.1
2014-Dec-20 13:29N 32°02' E 120°43'38960.1
2014-Dec-20 13:27N 32°00' E 119°59'6383686.6
2014-Dec-20 13:16N 23°04' E 113°29'65811902.6
2014-Dec-20 13:13N 31°29' E 121°23'0 0.0
2014-Dec-20 12:33N 31°29' E 121°23'5312660.3
2014-Dec-20 12:33N 32°00' E 120°33'75980.9
2014-Dec-20 12:33N 31°58' E 120°26'649166995.6
2014-Dec-20 12:33N 23°06' E 113°27'659107850.5
2014-Dec-20 12:32N 31°42' E 121°09'4911465217.7
2014-Dec-20 12:32S 20°09' E 057°30'49055886198.2
2014-Dec-20 12:32N 31°07' E 121°28'671052.7
2014-Dec-20 12:28N 32°02' E 120°43'281890.8
2014-Dec-20 12:27N 31°56' E 120°12'7929.8
2014-Dec-20 12:27N 31°58' E 120°04'63811845.5
2014-Dec-20 12:23N 23°04' E 113°29'694.7
2014-Dec-20 12:19N 22°59' E 113°33'643841.0
2014-Dec-20 11:33N 31°57' E 120°08'225988.2
2014-Dec-20 11:33N 32°00' E 120°33'48948810099.6
2014-Dec-20 11:33S 20°09' E 057°30'49051605265.3
2014-Dec-20 11:33N 31°07' E 121°28'7388170.5
2014-Dec-20 11:33N 31°58' E 120°26'404625.8
2014-Dec-20 11:32N 31°42' E 121°09'302095.9
2014-Dec-20 11:32N 32°02' E 120°43'471564.2
2014-Dec-20 11:30N 31°29' E 121°23'65811843.1
2014-Dec-20 11:26N 23°04' E 113°29'6257.3
2014-Dec-20 11:25N 22°59' E 113°33'64274512.8
2014-Dec-20 11:24N 32°02' E 119°57'6392766.2
2014-Dec-20 11:11N 23°06' E 113°27'0 0.0
2014-Dec-20 10:33N 23°06' E 113°27'42421527109.5
2014-Dec-20 10:33S 20°09' E 057°30'48881353466.7
2014-Dec-20 10:33N 31°58' E 120°26'738016.0
2014-Dec-20 10:32N 31°07' E 121°28'385996.9
2014-Dec-20 10:32N 31°42' E 121°09'357955.9
2014-Dec-20 10:32N 32°00' E 120°33'283884.1
2014-Dec-20 10:31N 31°59' E 120°00'772112.7
2014-Dec-20 10:29N 31°29' E 121°23'6529358.8
2014-Dec-20 10:29N 31°57' E 120°14'66420246.7
2014-Dec-20 10:27N 22°19' E 114°06'424639096.4
2014-Dec-20 10:21S 20°08' E 057°28'4244203720.6
2014-Dec-20 10:19N 23°04' E 113°30'6783.9
2014-Dec-20 10:19N 22°59' E 113°33'658869.6
2014-Dec-20 09:33N 32°00' E 120°33'655471584.8
2014-Dec-20 09:33N 23°06' E 113°27'639287517.1
2014-Dec-20 09:33N 31°58' E 120°06'48728769308.4
2014-Dec-20 09:33S 20°09' E 057°30'48881256791.7
2014-Dec-20 09:33N 31°58' E 120°26'6631.6
2014-Dec-20 09:32N 31°58' E 120°19'469688.4
2014-Dec-20 09:32N 31°42' E 121°09'0935.7
2014-Dec-20 09:32N 31°42' E 121°08'398168.7
2014-Dec-20 09:32N 31°07' E 121°28'49051103659.5
2014-Dec-20 09:32S 20°09' E 057°30'42431091161.0
2014-Dec-20 09:31N 23°04' E 113°30'65814797.7
2014-Dec-20 09:29N 31°29' E 121°23'66010423.2
2014-Dec-20 09:25N 22°59' E 113°33'66411724.7
2014-Dec-20 09:21N 32°02' E 120°43'662826.8
2014-Dec-20 08:33N 23°06' E 113°27'6512343268.7
2014-Dec-20 08:33N 32°01' E 120°25'5971002.9
2014-Dec-20 08:33N 31°29' E 121°23'2320277.5
2014-Dec-20 08:33N 31°07' E 121°28'49055885964.3
2014-Dec-20 08:33S 20°09' E 057°30'489417620047.0
2014-Dec-20 08:33N 32°00' E 120°33'71698.1
2014-Dec-20 08:33N 31°58' E 120°26'408065.6
2014-Dec-20 08:33N 31°42' E 121°10'4912256257.9
2014-Dec-20 08:32S 20°09' E 057°30'4898464037.5
2014-Dec-20 08:31N 30°60' E 121°25'837121.3
2014-Dec-20 08:30N 31°57' E 120°14'6453383.7
2014-Dec-20 08:19N 22°59' E 113°33'6659309.1
2014-Dec-20 08:14N 31°58' E 120°51'4373762.9
2014-Dec-20 08:08N 24°52' E 118°59'3205970.2
2014-Dec-20 08:04N 23°04' E 113°30'6321231.2
2014-Dec-20 07:34N 30°58' E 121°19'7524569.3
2014-Dec-20 07:33N 32°02' E 120°32'48942516949.7
2014-Dec-20 07:33S 20°09' E 057°30'49053531572.7
2014-Dec-20 07:33N 31°07' E 121°28'78279788.2
2014-Dec-20 07:33N 31°59' E 120°21'434312171.1
2014-Dec-20 07:33N 24°52' E 118°55'433779686.3
2014-Dec-20 07:33N 31°58' E 120°26'4011153.4
2014-Dec-20 07:33N 31°42' E 121°09'4912260024.7
2014-Dec-20 07:32S 20°09' E 057°30'424376001.3
2014-Dec-20 07:28N 23°04' E 113°30'339.9
2014-Dec-20 07:24N 23°06' E 113°27'6623873.4
2014-Dec-20 07:14N 32°02' E 120°43'1420.6
2014-Dec-20 06:34N 32°04' E 120°27'610998.4
2014-Dec-20 06:33N 32°00' E 120°33'6551178933.3
2014-Dec-20 06:33N 23°06' E 113°27'454528.7
2014-Dec-20 06:33N 22°27' E 113°53'42401090196.4
2014-Dec-20 06:33S 20°09' E 057°30'0318.3
2014-Dec-20 06:33S 20°09' E 057°30'4932269015.3
2014-Dec-20 06:31N 31°26' E 121°48'677608896.2
2014-Dec-20 06:31N 22°52' E 113°34'66986064.5
2014-Dec-20 06:31N 32°02' E 120°43'664199320.0
2014-Dec-20 06:31N 22°59' E 113°33'63112410.5
2014-Dec-20 06:28N 30°58' E 121°13'7567651.5
2014-Dec-20 06:28N 31°58' E 120°21'43251861.1
2014-Dec-20 06:27N 24°53' E 118°55'3989124.1
2014-Dec-20 06:25N 31°07' E 121°28'6447501.5
2014-Dec-20 06:19N 23°04' E 113°30'6603676.4
2014-Dec-20 06:09N 31°42' E 121°09'3965.8
2014-Dec-20 05:33N 31°07' E 121°28'644110447.3
2014-Dec-20 05:33N 23°06' E 113°27'662595786.8
2014-Dec-20 05:33N 31°58' E 120°51'146157.9
2014-Dec-20 05:33N 32°02' E 120°35'4897979341.2
2014-Dec-20 05:33S 20°09' E 057°30'49285913287.4
2014-Dec-20 05:33N 31°19' E 121°48'492817739168.7
2014-Dec-20 05:33S 20°09' E 057°30'48941355387.9
2014-Dec-20 05:32N 32°00' E 120°33'11372.9
2014-Dec-20 05:31N 31°58' E 120°21'441432.7
2014-Dec-20 05:29N 31°42' E 121°09'660103260.2
2014-Dec-20 05:28N 23°04' E 113°30'3174271.1
2014-Dec-20 05:24N 24°53' E 118°55'3163579.4
2014-Dec-20 05:19N 22°59' E 113°33'53320.3
2014-Dec-20 05:09N 22°18' E 114°10'61104.5
2014-Dec-20 04:34N 23°06' E 113°27'661264273.6
2014-Dec-20 04:33N 32°01' E 120°44'1831770.3
2014-Dec-20 04:33N 31°58' E 120°23'97977.4
2014-Dec-20 04:33N 32°00' E 120°33'368573.0
2014-Dec-20 04:33N 31°42' E 121°09'3969335.9
2014-Dec-20 04:33N 31°07' E 121°28'398716245.1
2014-Dec-20 04:33N 24°53' E 118°55'4567865345.6
2014-Dec-20 04:33S 20°09' E 057°30'4924537203.0
2014-Dec-20 04:32N 31°15' E 121°47'49254432139.2
2014-Dec-20 04:32S 20°09' E 057°30'4884214417.7
2014-Dec-20 04:31N 31°58' E 120°21'201634.0
2014-Dec-20 04:30N 32°02' E 120°43'552276.5
2014-Dec-20 04:28N 31°21' E 121°26'595214021.4
2014-Dec-20 04:28N 23°04' E 115°19'59151913.7
2014-Dec-20 04:28N 31°56' E 120°09'573028.6
2014-Dec-20 04:26N 31°19' E 120°60'6392763.8
2014-Dec-20 04:13N 22°59' E 113°33'6581008.0
2014-Dec-20 03:33N 32°00' E 120°33'7150949.2
2014-Dec-20 03:33N 31°07' E 121°28'64472474.0
2014-Dec-20 03:33N 23°06' E 113°27'3181146240.4
2014-Dec-20 03:33N 24°53' E 118°55'45671264735.9
2014-Dec-20 03:33S 20°09' E 057°30'49114420263.5
2014-Dec-20 03:33N 31°42' E 121°09'309766.5
2014-Dec-20 03:32N 32°02' E 120°43'7915777.6
2014-Dec-20 03:32N 31°10' E 121°53'49263546711.7
2014-Dec-20 03:32S 20°09' E 057°30'48921100695.1
2014-Dec-20 03:32N 31°16' E 121°04'563080.7
2014-Dec-20 03:31N 31°58' E 120°21'6501169744.5
2014-Dec-20 03:31N 22°59' E 113°33'6152.1
2014-Dec-20 03:28N 23°04' E 113°30'6623443.0
2014-Dec-20 03:17N 31°58' E 120°51'22160.1
2014-Dec-20 03:08N 31°57' E 120°24'6481114.9
2014-Dec-20 02:34N 23°06' E 113°27'662793970.3
2014-Dec-20 02:33N 32°02' E 120°43'59301.0
2014-Dec-20 02:33N 31°60' E 120°49'6237430.8
2014-Dec-20 02:33N 31°07' E 121°28'71254915.8
2014-Dec-20 02:33N 32°00' E 120°33'363067.7
2014-Dec-20 02:33N 31°42' E 121°10'491117681160.3
2014-Dec-20 02:33S 20°09' E 057°30'4906609038.1
2014-Dec-20 02:32N 31°58' E 120°50'49062523277.1
2014-Dec-20 02:32S 20°09' E 057°30'49061766310.2
2014-Dec-20 02:32N 31°58' E 120°51'251405.9
2014-Dec-20 02:31N 31°58' E 120°21'64715630.4
2014-Dec-20 02:28N 23°04' E 113°30'622.4
2014-Dec-20 02:13N 22°59' E 113°33'813.0
2014-Dec-20 01:34N 23°06' E 113°27'662476572.9
2014-Dec-20 01:33N 31°58' E 120°51'255292.8
2014-Dec-20 01:33N 31°58' E 120°21'114242.0
2014-Dec-20 01:33N 32°00' E 120°33'7125489.9
2014-Dec-20 01:33N 31°07' E 121°28'49051471489.7
2014-Dec-20 01:33S 20°09' E 057°30'024.0
2014-Dec-20 01:32S 20°09' E 057°30'4915143846.1
2014-Dec-20 01:30N 31°29' E 121°23'17765.8
2014-Dec-20 01:29N 31°42' E 121°10'236894.5
2014-Dec-20 01:28N 31°58' E 120°50'662476535.1
2014-Dec-20 01:28N 23°04' E 113°30'1074.5
2014-Dec-20 01:20N 22°54' E 113°28'6198.4
2014-Dec-20 01:19N 22°59' E 113°33'6646625.5
2014-Dec-20 01:13N 32°02' E 120°43'67102.7
2014-Dec-20 00:33N 31°07' E 121°28'71254746.0
2014-Dec-20 00:33N 32°00' E 120°33'5921196.6
2014-Dec-20 00:33N 31°10' E 121°09'6362288734.0
2014-Dec-20 00:33N 23°06' E 113°27'6471164561.0
2014-Dec-20 00:33N 31°58' E 120°21'256907.2
2014-Dec-20 00:33N 31°58' E 120°51'238160.6
2014-Dec-20 00:33N 31°42' E 121°10'3026965.9
2014-Dec-20 00:33N 32°02' E 120°43'49032206515.2
2014-Dec-20 00:33S 20°09' E 057°30'027.3
2014-Dec-20 00:32S 20°09' E 057°30'4906519504.3
2014-Dec-20 00:31N 31°58' E 120°50'66546015.5
2014-Dec-20 00:31N 22°59' E 113°33'7979.5
2014-Dec-20 00:30N 23°04' E 113°29'658263164.2
2014-Dec-20 00:30N 31°29' E 121°23'84708.8
2014-Dec-20 00:23N 32°07' E 119°55'6451933.1
2014-Dec-20 00:03N 22°59' E 113°31'714.8
2014-Dec-19 23:34N 23°05' E 113°27'655393000.3
2014-Dec-19 23:33N 32°00' E 120°33'363682.5
2014-Dec-19 23:33N 31°42' E 121°10'3846088.5
2014-Dec-19 23:33N 31°07' E 121°28'2340565.6
2014-Dec-19 23:33N 31°29' E 121°23'49151474353.4
2014-Dec-19 23:33S 20°09' E 057°30'4868922419.0
2014-Dec-19 23:32N 32°04' E 119°56'48691095427.0
2014-Dec-19 23:32S 20°09' E 057°30'4884247641.6
2014-Dec-19 23:31N 31°58' E 120°21'6477062.1
2014-Dec-19 23:25N 23°03' E 113°30'66215179.4
2014-Dec-19 23:23N 32°02' E 120°43'6649491.3
2014-Dec-19 23:18N 22°59' E 113°33'71236.3
2014-Dec-19 23:18N 23°04' E 113°29'658884.1
2014-Dec-19 22:34N 31°29' E 121°23'534415.8
2014-Dec-19 22:33N 32°00' E 120°33'3013371.6
2014-Dec-19 22:33N 32°01' E 119°58'3823000.4
2014-Dec-19 22:33N 32°02' E 120°43'6748204.9
2014-Dec-19 22:32N 31°07' E 121°28'4905608922.3
2014-Dec-19 22:32S 20°09' E 057°30'4242587402.8
2014-Dec-19 22:32N 23°05' E 113°27'64750636.7
2014-Dec-19 22:31N 31°58' E 120°21'650106343.8
2014-Dec-19 22:30N 22°59' E 113°33'4242324952.8
2014-Dec-19 22:30S 20°09' E 057°30'42431697290.8
2014-Dec-19 22:30N 23°04' E 113°30'66032534.7
2014-Dec-19 22:28N 31°42' E 121°10'66034937.3
2014-Dec-19 22:27N 23°04' E 113°29'6383588.6
2014-Dec-19 22:16N 32°00' E 119°59'45574.5
2014-Dec-19 22:12N 31°58' E 120°52'1624.1
2014-Dec-19 21:33N 32°00' E 120°33'655392981.9
2014-Dec-19 21:33N 23°05' E 113°27'4242803771.9
2014-Dec-19 21:33S 20°09' E 057°30'42433818904.4
2014-Dec-19 21:33N 23°04' E 113°30'644386340.9
2014-Dec-19 21:32N 31°07' E 121°28'7935575.4
2014-Dec-19 21:32N 31°56' E 120°15'113641.9
2014-Dec-19 21:32N 31°58' E 120°02'48702921849.9
2014-Dec-19 21:32S 20°09' E 057°30'4915478191.9
2014-Dec-19 21:31N 31°29' E 121°23'6131456.5
2014-Dec-19 21:31N 31°60' E 120°21'2274.6
2014-Dec-19 21:31N 31°58' E 120°21'65066843.6
2014-Dec-19 21:30N 22°59' E 113°33'66570435.3
2014-Dec-19 21:30N 31°58' E 120°52'22950.3
2014-Dec-19 21:28N 31°42' E 121°10'232005.1
2014-Dec-19 21:28N 31°59' E 120°51'66395475.2
2014-Dec-19 21:27N 23°04' E 113°29'63830221.4
2014-Dec-19 21:26N 31°58' E 120°03'6604577.1
2014-Dec-19 21:17N 22°18' E 114°09'6182.9
2014-Dec-19 20:33N 23°05' E 113°27'655147368.3
2014-Dec-19 20:33N 32°00' E 120°33'4894839055.1
2014-Dec-19 20:33S 20°09' E 057°30'42432182232.9
2014-Dec-19 20:32N 23°04' E 113°30'4243509215.0
2014-Dec-19 20:32S 20°09' E 057°30'4907504750.8
2014-Dec-19 20:31N 31°58' E 120°52'262585.7
2014-Dec-19 20:31N 31°58' E 120°21'6016729.4
2014-Dec-19 20:31N 31°29' E 121°23'660118822.5
2014-Dec-19 20:30N 22°59' E 113°33'64251386.4
2014-Dec-19 20:30N 31°57' E 120°08'676115897.5
2014-Dec-19 20:29N 22°09' E 113°52'69358004.3
2014-Dec-19 20:28N 31°42' E 121°10'66030854.4
2014-Dec-19 20:27N 23°04' E 113°29'64034909.7
2014-Dec-19 20:26N 31°57' E 120°09'30218.6
2014-Dec-19 20:18N 32°02' E 120°43'6790.4
2014-Dec-19 19:33N 31°07' E 121°28'2381109.8
2014-Dec-19 19:33N 31°29' E 121°23'65117751.1
2014-Dec-19 19:33N 31°57' E 120°13'175186.9
2014-Dec-19 19:33N 32°00' E 120°33'164681.1
2014-Dec-19 19:33N 31°57' E 120°15'643385801.7
2014-Dec-19 19:33N 23°05' E 113°27'660148503.1
2014-Dec-19 19:33N 31°42' E 121°10'49115893774.2
2014-Dec-19 19:33S 20°09' E 057°30'49031471010.1
2014-Dec-19 19:32N 32°02' E 120°43'82051.9
2014-Dec-19 19:32N 31°58' E 120°52'6942499672.0
2014-Dec-19 19:32N 22°15' E 113°48'42291691553.1
2014-Dec-19 19:32S 20°09' E 057°30'4884247639.4
2014-Dec-19 19:31N 31°58' E 120°21'2692192.9
2014-Dec-19 19:31N 31°59' E 120°51'66674881.1
2014-Dec-19 19:30N 22°59' E 113°33'6458.1
2014-Dec-19 19:29N 23°04' E 113°30'1 3.3
2014-Dec-19 19:15N 23°04' E 113°29'9538475.2
2014-Dec-19 19:08N 36°56' E 122°28'331564.0
2014-Dec-19 18:33N 31°29' E 121°23'2381131.1
2014-Dec-19 18:33N 31°07' E 121°28'6441159745.0
2014-Dec-19 18:33N 23°05' E 113°27'655214363.8
2014-Dec-19 18:33N 32°00' E 120°33'933655.9
2014-Dec-19 18:33N 31°60' E 120°22'312561160.1
2014-Dec-19 18:33N 36°54' E 122°28'31863611.9
2014-Dec-19 18:33N 31°42' E 121°10'49113536272.2
2014-Dec-19 18:33S 20°09' E 057°30'42431697290.8
2014-Dec-19 18:32N 23°04' E 113°30'4243509214.6
2014-Dec-19 18:32S 20°09' E 057°30'4243263361.1
2014-Dec-19 18:31N 23°04' E 113°29'6417.6
2014-Dec-19 18:30N 22°59' E 113°33'65017857.2
2014-Dec-19 18:28N 31°58' E 120°21'26218.0
2014-Dec-19 18:21N 31°58' E 120°52'663836.7
2014-Dec-19 17:33N 23°05' E 113°27'6582369162.8
2014-Dec-19 17:33N 31°29' E 121°24'59105926.9
2014-Dec-19 17:33N 32°01' E 120°26'72675.3
2014-Dec-19 17:33N 32°00' E 120°33'43810.7
2014-Dec-19 17:33N 32°02' E 120°29'4892704470.1
2014-Dec-19 17:33S 20°09' E 057°30'026.6
2014-Dec-19 17:32S 20°09' E 057°30'49054414686.6
2014-Dec-19 17:32N 31°07' E 121°28'64446377.9
2014-Dec-19 17:31N 23°04' E 113°29'663238552.3
2014-Dec-19 17:31N 31°58' E 120°52'12647.6
2014-Dec-19 17:31N 31°59' E 120°51'66643567.8
2014-Dec-19 17:30N 22°59' E 113°33'6877.2
2014-Dec-19 17:30N 23°04' E 113°30'66042413.3
2014-Dec-19 17:29N 31°42' E 121°10'443115.6
2014-Dec-19 17:28N 31°58' E 120°21'1314.2
2014-Dec-19 16:34N 32°01' E 120°36'21153.9
2014-Dec-19 16:33N 32°00' E 120°33'655294752.4
2014-Dec-19 16:33N 23°05' E 113°27'655294880.0
2014-Dec-19 16:33N 32°02' E 120°32'7326180.8
2014-Dec-19 16:33N 31°07' E 121°28'3923115.9
2014-Dec-19 16:33N 31°42' E 121°10'661216278.3
2014-Dec-19 16:33N 23°02' E 113°31'42432182032.6
2014-Dec-19 16:33S 20°09' E 057°30'026.8
2014-Dec-19 16:32S 20°09' E 057°30'4915333844.4
2014-Dec-19 16:31N 31°29' E 121°24'66030475.9
2014-Dec-19 16:30N 22°59' E 113°33'64312250.8
2014-Dec-19 16:27N 31°57' E 120°10'10318.2
2014-Dec-19 16:25N 31°58' E 120°21'193326.9
2014-Dec-19 16:24N 32°02' E 120°43'65186.1
2014-Dec-19 16:04N 31°10' E 121°28'2039.9
2014-Dec-19 15:34N 31°29' E 121°24'539494.1
2014-Dec-19 15:33N 32°00' E 120°33'655589303.9
2014-Dec-19 15:33N 23°05' E 113°28'643771287.6
2014-Dec-19 15:33N 31°57' E 120°15'4824827.6
2014-Dec-19 15:33N 31°42' E 121°10'3834649.2
2014-Dec-19 15:33N 31°07' E 121°28'651180219.3
2014-Dec-19 15:33N 22°54' E 113°30'42383814350.9
2014-Dec-19 15:33S 20°09' E 057°30'026.6
2014-Dec-19 15:32S 20°09' E 057°30'4884247643.9
2014-Dec-19 15:31N 31°58' E 120°21'65029994.6
2014-Dec-19 15:30N 22°59' E 113°33'4062043.8
2014-Dec-19 15:18N 26°46' E 119°43'32016715.8
2014-Dec-19 15:16N 32°02' E 120°43'340.5
2014-Dec-19 15:13N 32°01' E 120°46'6621019.1
2014-Dec-19 14:34N 23°03' E 113°31'658215434.9
2014-Dec-19 14:33N 31°29' E 121°24'467908.7
2014-Dec-19 14:33N 32°00' E 120°43'666399844.0
2014-Dec-19 14:33N 22°54' E 113°34'4241898037.1
2014-Dec-19 14:33S 20°09' E 057°30'4905551809.0
2014-Dec-19 14:32N 31°07' E 121°28'49055886248.9
2014-Dec-19 14:32S 20°09' E 057°30'4884244204.6
2014-Dec-19 14:31N 31°58' E 120°21'65041778.5
2014-Dec-19 14:30N 22°59' E 113°33'66227096.5
2014-Dec-19 14:28N 31°42' E 121°10'301158.4
2014-Dec-19 14:27N 32°02' E 120°43'6692183.3
2014-Dec-19 14:08N 23°04' E 113°16'6661141.6
2014-Dec-19 13:33N 31°29' E 121°24'97735.2
2014-Dec-19 13:33N 31°24' E 121°31'615632.8
2014-Dec-19 13:33N 32°00' E 120°34'48951957865.6
2014-Dec-19 13:33S 20°09' E 057°30'025.9
2014-Dec-19 13:32S 20°09' E 057°30'424315273303.7
2014-Dec-19 13:32N 22°59' E 113°32'64644734.7
2014-Dec-19 13:31N 31°07' E 121°28'771466.0
2014-Dec-19 13:28N 31°58' E 120°21'648105963.1
2014-Dec-19 13:28N 23°03' E 113°31'6638558.7
2014-Dec-19 13:23N 32°01' E 120°48'481.1
2014-Dec-19 13:20N 32°02' E 120°43'66840053.4
2014-Dec-19 13:19N 22°54' E 113°35'6653984.9
2014-Dec-19 13:09N 31°42' E 121°10'6601115.3
2014-Dec-19 12:33N 23°03' E 113°31'92064.4
2014-Dec-19 12:33N 22°55' E 113°28'664597495.0
2014-Dec-19 12:33N 32°00' E 120°34'655102599.6
2014-Dec-19 12:33N 23°05' E 113°28'42427635534.9
2014-Dec-19 12:33S 20°09' E 057°30'4917885085.0
2014-Dec-19 12:32N 31°28' E 121°27'4917983474.7
2014-Dec-19 12:32S 20°09' E 057°30'4904367771.4
2014-Dec-19 12:31N 32°02' E 120°43'198755.5
2014-Dec-19 12:31N 31°58' E 120°21'65358778.4
2014-Dec-19 12:30N 22°54' E 113°35'649467185.7
2014-Dec-19 12:30N 31°07' E 121°28'381382.9
2014-Dec-19 12:29N 31°42' E 121°10'22212.2
2014-Dec-19 12:22N 31°58' E 120°52'43755.1
2014-Dec-19 12:19N 31°17' E 121°06'6803372.2
2014-Dec-19 12:07N 22°11' E 113°32'6911242.8
2014-Dec-19 11:33N 31°15' E 121°29'651292759.6
2014-Dec-19 11:33N 23°03' E 113°31'656471960.1
2014-Dec-19 11:33N 32°00' E 120°34'48951036517.1
2014-Dec-19 11:33S 20°09' E 057°30'49188852799.9
2014-Dec-19 11:33N 31°25' E 121°32'698628305.8
2014-Dec-19 11:33N 22°10' E 113°37'704180916.1
2014-Dec-19 11:33N 32°02' E 120°43'191187.3
2014-Dec-19 11:32N 31°58' E 120°21'4884428838.4
2014-Dec-19 11:31S 20°09' E 057°30'4896204944.5
2014-Dec-19 11:30N 31°17' E 121°09'26176.0
2014-Dec-19 11:21N 31°42' E 121°10'261843.5
2014-Dec-19 11:20N 31°23' E 121°30'66329477.3
2014-Dec-19 11:19N 23°03' E 113°19'17172.4
2014-Dec-19 11:13N 22°54' E 113°35'6611008.8
2014-Dec-19 10:33N 31°21' E 121°32'4916842750.6
2014-Dec-19 10:33S 20°09' E 057°30'4243449291.9
2014-Dec-19 10:32N 23°03' E 113°31'64840897.5
2014-Dec-19 10:31N 31°58' E 120°21'4884703293.8
2014-Dec-19 10:31S 20°09' E 057°30'4912104627.0
2014-Dec-19 10:28N 31°42' E 121°10'6653771.5
2014-Dec-19 10:18N 22°54' E 113°35'401138.8
2014-Dec-19 10:15N 22°15' E 113°47'51337.6
2014-Dec-19 10:06N 23°03' E 113°30'1 2.3
2014-Dec-19 09:33N 23°03' E 113°31'6521173450.5
2014-Dec-19 09:33N 31°15' E 121°31'4912884163.6
2014-Dec-19 09:33S 20°09' E 057°30'4895440592.3
2014-Dec-19 09:32N 32°01' E 120°35'12824.1
2014-Dec-19 09:31N 31°58' E 120°21'4884517128.4
2014-Dec-19 09:31S 20°09' E 057°30'4907118562.8
2014-Dec-19 09:28N 31°58' E 120°51'81195.5
2014-Dec-19 09:28N 32°02' E 120°43'6683826.7
2014-Dec-19 09:18N 22°54' E 113°35'11155.2
2014-Dec-19 09:13N 23°04' E 113°29'657994.7
2014-Dec-19 08:33N 31°23' E 121°30'132692.9
2014-Dec-19 08:33N 31°10' E 121°28'49071104034.5
2014-Dec-19 08:33S 20°09' E 057°30'42431697313.0
2014-Dec-19 08:33N 23°03' E 113°31'657131494.9
2014-Dec-19 08:32N 32°03' E 120°33'627992.8
2014-Dec-19 08:32N 31°21' E 121°27'659103130.8
2014-Dec-19 08:32N 23°02' E 113°24'4238346726.2
2014-Dec-19 08:31S 20°09' E 057°30'424343273.5
2014-Dec-19 08:25N 23°04' E 113°29'66266178.9
2014-Dec-19 08:24N 32°02' E 120°43'6816929.3
2014-Dec-19 08:19N 22°18' E 114°09'473087.5
2014-Dec-19 08:18N 22°54' E 113°35'1582.0
2014-Dec-19 08:07N 23°02' E 113°21'4682.4
2014-Dec-19 07:33N 22°28' E 113°54'659474472.6
2014-Dec-19 07:33N 31°09' E 121°27'7413998.1
2014-Dec-19 07:33N 32°04' E 120°30'661792919.9
2014-Dec-19 07:33N 23°02' E 113°24'61493.2
2014-Dec-19 07:33N 23°03' E 113°31'62517.7
2014-Dec-19 07:33N 23°03' E 113°25'663795905.5
2014-Dec-19 07:33N 31°42' E 121°10'263083.0
2014-Dec-19 07:32N 31°21' E 121°27'672307.4
2014-Dec-19 07:30N 31°58' E 120°21'488455464.5
2014-Dec-19 07:25S 20°09' E 057°30'019.7
2014-Dec-19 07:24S 20°09' E 057°30'4241526492.0
2014-Dec-19 07:24N 22°54' E 113°35'11750.2
2014-Dec-19 07:23N 23°04' E 113°30'65537404.1
2014-Dec-19 07:22N 31°17' E 121°34'6708899.3
2014-Dec-19 07:17N 22°19' E 114°06'6833158.6
2014-Dec-19 07:04N 31°59' E 120°51'73813.3
2014-Dec-19 07:04N 32°02' E 120°44'6621303.6
2014-Dec-19 06:33N 23°04' E 113°30'619861.8
2014-Dec-19 06:33N 23°02' E 113°24'665239475.6
2014-Dec-19 06:33N 31°14' E 121°47'661169888.7
2014-Dec-19 06:33N 23°03' E 113°31'643771977.0
2014-Dec-19 06:33N 31°06' E 121°27'49048827191.6
2014-Dec-19 06:33S 20°09' E 057°30'4913360943.8
2014-Dec-19 06:32N 31°21' E 121°27'672072.2
2014-Dec-19 06:30N 31°58' E 120°21'4415817.1
2014-Dec-19 06:30N 31°42' E 121°09'324025.7
2014-Dec-19 06:30N 31°14' E 121°29'66526018.8
2014-Dec-19 06:28N 22°18' E 114°09'67724626.3
2014-Dec-19 06:26N 31°42' E 121°10'491263376.3
2014-Dec-19 06:22S 20°09' E 057°30'4904259602.9
2014-Dec-19 06:21N 32°02' E 120°44'66239045.7
2014-Dec-19 06:20N 23°04' E 113°30'1 1.8
2014-Dec-19 05:33N 23°03' E 113°31'1859.6
2014-Dec-19 05:33N 23°04' E 113°30'619870.2
2014-Dec-19 05:33N 23°02' E 113°24'6702410612.7
2014-Dec-19 05:33N 31°20' E 121°48'8375037.0
2014-Dec-19 05:33N 31°58' E 120°21'7429559.6
2014-Dec-19 05:33N 31°11' E 121°28'518284.7
2014-Dec-19 05:33N 31°06' E 121°27'49044413595.8
2014-Dec-19 05:33S 20°09' E 057°30'0 8.9
2014-Dec-19 05:31S 20°09' E 057°30'4913491331.4
2014-Dec-19 05:30N 31°21' E 121°27'30315.8
2014-Dec-19 05:24N 31°45' E 121°05'55556.8
2014-Dec-19 05:18N 31°58' E 120°02'5912567.1
2014-Dec-19 05:18N 31°42' E 121°09'121.7
2014-Dec-19 05:16N 31°42' E 121°09'451709.8
2014-Dec-19 05:15N 31°59' E 120°20'648945.5
2014-Dec-19 04:33N 23°03' E 113°31'643463172.8
2014-Dec-19 04:33N 31°06' E 121°27'6431157186.2
2014-Dec-19 04:33N 23°04' E 113°30'647388122.2
2014-Dec-19 04:33N 31°58' E 120°21'48841034208.5
2014-Dec-19 04:33S 20°09' E 057°30'423815255009.9
2014-Dec-19 04:33N 23°02' E 113°24'665217484.9
2014-Dec-19 04:33N 31°42' E 121°09'3810613.7
2014-Dec-19 04:33N 31°07' E 121°28'142045.1
2014-Dec-19 04:32N 31°21' E 121°27'152490.6
2014-Dec-19 04:32N 31°27' E 121°44'4929290914.3
2014-Dec-19 04:31S 20°09' E 057°30'424793235.0
2014-Dec-19 04:28N 22°18' E 114°09'661793033.1
2014-Dec-19 04:28N 31°57' E 120°08'31611.2
2014-Dec-19 04:25N 32°02' E 120°43'14272.2
2014-Dec-19 04:22N 32°02' E 120°27'22111.9
2014-Dec-19 04:10N 31°58' E 120°02'90146.9
2014-Dec-19 03:33N 31°05' E 121°28'643289133.2
2014-Dec-19 03:33N 23°04' E 113°30'656787031.2
2014-Dec-19 03:33N 32°01' E 120°34'112909.0
2014-Dec-19 03:33N 31°58' E 120°21'75940.7
2014-Dec-19 03:33N 31°56' E 120°14'48778778426.0
2014-Dec-19 03:33S 20°09' E 057°30'49041103399.0
2014-Dec-19 03:33N 31°06' E 121°27'396722.9
2014-Dec-19 03:32N 31°42' E 121°09'663265265.0
2014-Dec-19 03:32N 22°58' E 113°32'8395.8
2014-Dec-19 03:31N 23°02' E 113°24'4238953496.3
2014-Dec-19 03:31S 20°09' E 057°30'4907767976.1
2014-Dec-19 03:30N 31°55' E 120°53'45195.9
2014-Dec-19 03:17N 31°21' E 121°27'48273.5
2014-Dec-19 03:06N 31°58' E 120°51'6701234.5
2014-Dec-19 02:34N 22°53' E 113°34'653783296.4
2014-Dec-19 02:33N 31°58' E 120°18'645290327.1
2014-Dec-19 02:33N 23°04' E 113°30'310226.3
2014-Dec-19 02:33N 23°05' E 113°27'636208274.1
2014-Dec-19 02:33N 31°09' E 121°11'6558804.2
2014-Dec-19 02:33N 31°58' E 120°21'48842930304.3
2014-Dec-19 02:33S 20°09' E 057°30'4913680276.2
2014-Dec-19 02:33N 31°21' E 121°27'152914.9
2014-Dec-19 02:32N 31°06' E 121°27'1222.2
2014-Dec-19 02:32N 31°05' E 121°28'643115654.4
2014-Dec-19 02:32N 23°04' E 113°30'644144873.8
2014-Dec-19 02:31N 31°07' E 121°28'4905490516.0
2014-Dec-19 02:31S 20°09' E 057°30'49041103304.3
2014-Dec-19 02:30N 32°02' E 120°43'30807.6
2014-Dec-19 02:28N 31°42' E 121°09'1287.5
2014-Dec-19 02:20N 31°47' E 120°56'121419.1
2014-Dec-19 02:19N 31°59' E 120°51'45522.1
2014-Dec-19 02:14N 32°01' E 119°58'39313.1
2014-Dec-19 02:07N 32°01' E 120°44'4216910.0
2014-Dec-19 02:06N 32°06' E 119°55'4887.4
2014-Dec-19 01:34N 31°58' E 120°51'2588862.4
2014-Dec-19 01:33N 31°60' E 120°22'7834938.5
2014-Dec-19 01:33N 31°06' E 121°27'7714569.0
2014-Dec-19 01:33N 31°58' E 120°21'48843516331.7
2014-Dec-19 01:33S 20°09' E 057°30'49035884044.2
2014-Dec-19 01:33N 32°02' E 120°43'672100757.0
2014-Dec-19 01:33N 22°47' E 113°38'669240797.9
2014-Dec-19 01:32N 31°46' E 121°03'465972.8
2014-Dec-19 01:32N 31°05' E 121°28'643136063.0
2014-Dec-19 01:32N 23°04' E 113°30'1107.5
2014-Dec-19 01:31N 23°04' E 113°29'655124011.1
2014-Dec-19 01:31N 31°21' E 121°27'49131263423.5
2014-Dec-19 01:31S 20°09' E 057°30'4905735774.0
2014-Dec-19 01:30N 31°07' E 121°28'611861.6
2014-Dec-19 01:28N 31°59' E 120°51'502329.0
2014-Dec-19 01:27N 31°11' E 121°09'316278.5
2014-Dec-19 01:27N 31°42' E 121°10'286813.6
2014-Dec-19 01:27N 32°01' E 120°44'6679164.3
2014-Dec-19 01:22N 22°54' E 113°35'6447602.1
2014-Dec-19 01:17N 31°58' E 120°02'39392.2
2014-Dec-19 01:11N 32°01' E 120°47'66321492.1
2014-Dec-19 01:09N 23°04' E 113°30'6521092.0
2014-Dec-19 00:33N 32°03' E 120°25'6522348899.9
2014-Dec-19 00:33N 23°04' E 113°30'643462877.8
2014-Dec-19 00:33N 31°06' E 121°27'8644449.6
2014-Dec-19 00:33N 31°58' E 120°06'87157260.4
2014-Dec-19 00:33N 31°05' E 121°28'7825473.6
2014-Dec-19 00:33N 31°58' E 120°21'48844395459.6
2014-Dec-19 00:33S 20°09' E 057°30'4911654862.9
2014-Dec-19 00:33N 31°42' E 121°10'3834591.0
2014-Dec-19 00:32N 31°07' E 121°28'674464.7
2014-Dec-19 00:32N 32°02' E 120°43'72445.0
2014-Dec-19 00:31N 31°59' E 120°51'4907504769.9
2014-Dec-19 00:31S 20°09' E 057°30'4895489469.9
2014-Dec-19 00:30N 31°14' E 121°09'28919.3
2014-Dec-19 00:28N 31°42' E 121°09'6594092.7
2014-Dec-19 00:19N 23°04' E 113°30'6623137.9
2014-Dec-19 00:06N 31°58' E 120°50'1935.9
2014-Dec-18 23:33N 32°04' E 120°28'77138354.6
2014-Dec-18 23:33N 31°06' E 121°27'1198.8
2014-Dec-18 23:33N 31°05' E 121°28'7856068.9
2014-Dec-18 23:33N 31°58' E 120°21'48843516334.7
2014-Dec-18 23:33S 20°09' E 057°30'4876923834.2
2014-Dec-18 23:33N 31°57' E 120°12'6412308537.8
2014-Dec-18 23:33N 23°04' E 113°29'66252945.2
2014-Dec-18 23:32N 32°02' E 120°43'6748219.1
2014-Dec-18 23:32N 31°07' E 121°28'4905294310.0
2014-Dec-18 23:31S 20°09' E 057°30'424195431.4
2014-Dec-18 23:28N 22°54' E 113°35'6277708.3
2014-Dec-18 23:23N 31°08' E 120°48'63923980.0
2014-Dec-18 23:22N 22°27' E 113°53'438063.4
2014-Dec-18 23:21N 23°04' E 113°30'66065973.4
2014-Dec-18 23:21N 31°42' E 121°10'6623335.4
2014-Dec-18 23:09N 22°57' E 113°36'9256.4
2014-Dec-18 23:07N 23°04' E 113°30'6391156.1
2014-Dec-18 22:33N 31°17' E 121°07'5599774.7
2014-Dec-18 22:33N 32°04' E 120°32'7415711.1
2014-Dec-18 22:33N 31°06' E 121°27'643165374.3
2014-Dec-18 22:33N 23°04' E 113°29'424315274329.5
2014-Dec-18 22:33S 20°09' E 057°30'49111178752.3
2014-Dec-18 22:33N 31°42' E 121°10'4912151128.3
2014-Dec-18 22:31S 20°09' E 057°30'42435092139.9
2014-Dec-18 22:31N 23°04' E 113°30'64545512.0
2014-Dec-18 22:30N 31°58' E 120°17'66531936.5
2014-Dec-18 22:29N 22°27' E 113°53'361900.8
2014-Dec-18 22:27N 22°59' E 113°34'664597711.6
2014-Dec-18 22:27N 32°02' E 120°43'10375.8
2014-Dec-18 22:26N 31°55' E 120°52'4614.5
2014-Dec-18 22:25N 31°59' E 120°51'66338489.9
2014-Dec-18 22:24N 23°04' E 113°30'647136996.7
2014-Dec-18 22:24N 31°58' E 120°21'78585.4
2014-Dec-18 22:16N 31°05' E 121°28'64530540.6
2014-Dec-18 22:15N 22°57' E 113°36'339.5
2014-Dec-18 22:10N 22°54' E 113°35'6481061.6
2014-Dec-18 21:33N 31°06' E 121°27'70253775.2
2014-Dec-18 21:33N 32°01' E 120°36'6632385312.0
2014-Dec-18 21:33N 22°54' E 113°35'649778626.8
2014-Dec-18 21:33N 31°07' E 121°28'644579493.6
2014-Dec-18 21:33N 23°04' E 113°30'43269.3
2014-Dec-18 21:33N 23°01' E 113°31'649179641.7
2014-Dec-18 21:33N 31°58' E 120°21'48843516339.9
2014-Dec-18 21:33S 20°09' E 057°30'48928805214.0
2014-Dec-18 21:33N 31°16' E 121°04'269494.7
2014-Dec-18 21:33N 31°42' E 121°10'443308.3
2014-Dec-18 21:32N 31°60' E 120°22'64956982.7
2014-Dec-18 21:31N 23°04' E 113°29'4243526727.7
2014-Dec-18 21:31S 20°09' E 057°30'42432182345.7
2014-Dec-18 21:31N 23°04' E 113°30'6623709.8
2014-Dec-18 21:20N 32°02' E 120°43'66517857.7
2014-Dec-18 21:18N 22°57' E 113°36'66511349.6
2014-Dec-18 21:14N 32°00' E 120°48'3217.3
2014-Dec-18 21:13N 31°59' E 120°51'6191.8
2014-Dec-18 20:33N 31°06' E 121°27'6442318433.1
2014-Dec-18 20:33N 23°05' E 113°27'2965.9
2014-Dec-18 20:33N 23°04' E 113°29'647145601.7
2014-Dec-18 20:33N 31°58' E 120°21'1614246.3
2014-Dec-18 20:33N 32°00' E 120°40'489917636622.3
2014-Dec-18 20:33S 20°09' E 057°30'4769903545.2
2014-Dec-18 20:33N 27°60' E 120°53'23950703.5
2014-Dec-18 20:32N 31°59' E 120°50'6118379.0
2014-Dec-18 20:32N 31°07' E 121°28'7630269.1
2014-Dec-18 20:32N 32°02' E 120°27'212141.2
2014-Dec-18 20:31N 31°59' E 120°51'4907430897.1
2014-Dec-18 20:31S 20°09' E 057°30'4904271582.6
2014-Dec-18 20:30N 32°02' E 120°43'6627658.2
2014-Dec-18 20:24N 23°04' E 113°30'6609813.9
2014-Dec-18 20:20N 31°42' E 121°10'39533.4
2014-Dec-18 20:16N 31°08' E 120°48'62286118.8
2014-Dec-18 20:16N 23°04' E 113°30'6566490.9
2014-Dec-18 20:10N 32°04' E 120°30'66010060.9
2014-Dec-18 20:06N 22°57' E 113°36'6411195.9
2014-Dec-18 19:34N 31°01' E 121°27'7084425.6
2014-Dec-18 19:33N 32°01' E 120°45'661237986.1
2014-Dec-18 19:33N 23°04' E 113°29'4243727350.3
2014-Dec-18 19:33S 20°09' E 057°30'4236847195.1
2014-Dec-18 19:33N 23°02' E 113°22'661396669.1
2014-Dec-18 19:33N 32°01' E 120°33'7251605.6
2014-Dec-18 19:32N 31°07' E 121°28'678928.8
2014-Dec-18 19:32N 32°02' E 120°43'7862.4
2014-Dec-18 19:31N 31°59' E 120°51'66359656.8
2014-Dec-18 19:31N 23°04' E 113°30'424315276419.8
2014-Dec-18 19:31S 20°09' E 057°30'424177116.4
2014-Dec-18 19:28N 22°54' E 113°35'64119241.4
2014-Dec-18 19:26N 31°20' E 120°57'316475.3
2014-Dec-18 19:25N 31°05' E 121°28'783951.4
2014-Dec-18 19:24N 31°58' E 120°21'6472637.5
2014-Dec-18 19:09N 23°04' E 113°30'66056544.5
2014-Dec-18 19:09N 31°42' E 121°09'66213248.3
2014-Dec-18 19:06N 22°57' E 113°36'6361186.5
2014-Dec-18 18:33N 30°59' E 121°21'1012516.0
2014-Dec-18 18:33N 31°07' E 121°28'6491167947.8
2014-Dec-18 18:33N 22°54' E 113°35'128479.7
2014-Dec-18 18:33N 23°04' E 113°29'643330555.3
2014-Dec-18 18:33N 31°05' E 121°28'78140225.0
2014-Dec-18 18:33N 31°58' E 120°21'48841465122.5
2014-Dec-18 18:33S 20°09' E 057°30'4243727454.5
2014-Dec-18 18:33N 22°57' E 113°36'662298089.0
2014-Dec-18 18:32N 31°42' E 121°09'4912175066.9
2014-Dec-18 18:31S 20°09' E 057°30'424381257.6
2014-Dec-18 18:28N 23°04' E 113°30'0 1.3
2014-Dec-18 18:24N 23°04' E 113°30'6554839.0
2014-Dec-18 18:16N 32°01' E 120°32'101815.9
2014-Dec-18 18:16N 32°02' E 120°43'8112.4
2014-Dec-18 18:11N 31°58' E 120°52'89745.8
2014-Dec-18 18:11N 32°00' E 120°43'66148558.8
2014-Dec-18 18:11N 23°02' E 113°31'5 8.0
2014-Dec-18 17:33N 23°05' E 113°27'6312270735.4
2014-Dec-18 17:33N 30°58' E 121°15'269482.6
2014-Dec-18 17:33N 31°22' E 121°28'1552380.0
2014-Dec-18 17:33N 31°07' E 121°28'7734477.4
2014-Dec-18 17:33N 31°58' E 120°21'647388235.6
2014-Dec-18 17:33N 23°04' E 113°29'424315274342.5
2014-Dec-18 17:33S 20°09' E 057°30'49041765389.2
2014-Dec-18 17:33N 31°05' E 121°28'4011148.7
2014-Dec-18 17:33N 31°42' E 121°09'4912162218.5
2014-Dec-18 17:31S 20°09' E 057°30'424327085.7
2014-Dec-18 17:21N 23°04' E 113°30'0 1.6
2014-Dec-18 17:19N 23°04' E 113°30'6639247.3
2014-Dec-18 17:14N 31°60' E 120°50'9372.4
2014-Dec-18 17:13N 31°52' E 120°54'6628989.5
2014-Dec-18 17:09N 22°57' E 113°36'339.3
2014-Dec-18 17:04N 22°54' E 113°35'1122.6
2014-Dec-18 16:33N 23°04' E 113°30'01607.5
2014-Dec-18 16:33N 23°04' E 113°29'644122044.2
2014-Dec-18 16:33N 31°07' E 121°28'49058828938.3
2014-Dec-18 16:33S 20°09' E 057°30'49041260992.3
2014-Dec-18 16:33N 31°05' E 121°28'4024155.6
2014-Dec-18 16:33N 31°42' E 121°09'452115.4
2014-Dec-18 16:31N 30°58' E 121°10'4885517280.1
2014-Dec-18 16:31S 20°09' E 057°30'42432182345.7
2014-Dec-18 16:31N 23°04' E 113°30'7215.8
2014-Dec-18 16:29N 22°58' E 113°32'65123203.8
2014-Dec-18 16:27N 31°58' E 120°21'32336.5
2014-Dec-18 16:21N 31°47' E 120°57'27518.9
2014-Dec-18 16:18N 32°02' E 120°30'11436.2
2014-Dec-18 16:17N 32°02' E 120°43'13111.7
2014-Dec-18 16:10N 31°53' E 120°54'66330191.1
2014-Dec-18 16:09N 22°57' E 113°36'6291076.6
2014-Dec-18 15:34N 31°01' E 121°06'207146.9
2014-Dec-18 15:33N 31°07' E 121°28'644773098.7
2014-Dec-18 15:33N 23°04' E 113°29'643330564.0
2014-Dec-18 15:33N 31°05' E 121°28'7831155.9
2014-Dec-18 15:33N 31°58' E 120°21'48844395428.0
2014-Dec-18 15:33S 20°09' E 057°30'42421388407.2
2014-Dec-18 15:33N 23°05' E 113°28'660396080.7
2014-Dec-18 15:33N 31°42' E 121°09'131673.8
2014-Dec-18 15:32N 31°49' E 120°56'275651.8
2014-Dec-18 15:32N 32°04' E 120°30'65698431.2
2014-Dec-18 15:32N 23°04' E 113°30'66259542.7
2014-Dec-18 15:31N 32°02' E 120°43'49041765286.8
2014-Dec-18 15:31S 20°09' E 057°30'4910242112.5
2014-Dec-18 15:29N 31°46' E 121°04'33454.3
2014-Dec-18 15:25N 32°02' E 120°30'65457439.9
2014-Dec-18 15:24N 23°04' E 113°30'644755.5
2014-Dec-18 14:33N 31°07' E 121°28'2850.5
2014-Dec-18 14:33N 31°05' E 121°28'7825484.5
2014-Dec-18 14:33N 31°58' E 120°21'48842197707.6
2014-Dec-18 14:33S 20°09' E 057°30'423615248210.3
2014-Dec-18 14:33N 23°02' E 113°21'726252.1
2014-Dec-18 14:33N 23°04' E 113°29'662264710.1
2014-Dec-18 14:33N 32°02' E 120°43'243195.0
2014-Dec-18 14:32N 31°46' E 121°04'347251.3
2014-Dec-18 14:32N 32°04' E 120°30'4894223037.9
2014-Dec-18 14:31S 20°09' E 057°30'49122526203.5
2014-Dec-18 14:31N 31°42' E 121°10'125.9
2014-Dec-18 14:28N 31°42' E 121°09'39138645.7
2014-Dec-18 14:28N 32°02' E 120°30'654181156.8
2014-Dec-18 14:28N 23°04' E 113°30'6595676.5
2014-Dec-18 14:21N 31°41' E 121°10'6594707.8
2014-Dec-18 14:13N 23°04' E 113°30'621106483.5
2014-Dec-18 14:12N 31°01' E 120°56'241373.6
2014-Dec-18 13:33N 34°49' E 119°23'7701386674.2
2014-Dec-18 13:33N 23°04' E 113°30'643144585.4
2014-Dec-18 13:33N 31°05' E 121°28'3911633.2
2014-Dec-18 13:33N 31°41' E 121°10'65979111.6
2014-Dec-18 13:32N 23°04' E 113°29'64145272.2
2014-Dec-18 13:32N 32°06' E 119°55'7014727.3
2014-Dec-18 13:31N 31°41' E 121°12'4912431322.0
2014-Dec-18 13:31S 20°09' E 057°30'4884488399.4
2014-Dec-18 13:30N 31°58' E 120°21'191111.9
2014-Dec-18 13:29N 32°02' E 120°43'11811.6
2014-Dec-18 13:28N 32°01' E 120°30'65410802.4
2014-Dec-18 13:25N 23°04' E 113°30'6604059.6
2014-Dec-18 13:15N 31°42' E 121°09'660957.9
2014-Dec-18 12:33N 23°02' E 113°31'771308299.4
2014-Dec-18 12:33N 34°48' E 119°24'24663316.3
2014-Dec-18 12:33N 31°05' E 121°28'49044413431.2
2014-Dec-18 12:33S 20°09' E 057°30'42393815450.7
2014-Dec-18 12:33N 23°04' E 113°25'664239137.9
2014-Dec-18 12:33N 32°02' E 120°43'401608.0
2014-Dec-18 12:31N 31°36' E 121°18'4914491435.6
2014-Dec-18 12:31S 20°09' E 057°30'4893303700.1
2014-Dec-18 12:30N 32°01' E 120°30'733616.1
2014-Dec-18 12:28N 31°07' E 121°28'383645.1
2014-Dec-18 12:28N 31°42' E 121°09'6654938.0
2014-Dec-18 12:20N 23°02' E 113°22'6686834.6
2014-Dec-18 12:14N 31°59' E 120°51'6638677.4
2014-Dec-18 12:09N 23°04' E 113°30'6621107.8
2014-Dec-18 11:33N 32°02' E 120°43'6927401.7
2014-Dec-18 11:33N 31°05' E 121°28'24688676.6
2014-Dec-18 11:33N 34°49' E 119°24'17791014.0
2014-Dec-18 11:33N 31°58' E 120°21'48843516226.9
2014-Dec-18 11:33S 20°09' E 057°30'42413053265.6
2014-Dec-18 11:33N 23°05' E 113°26'656214555.8
2014-Dec-18 11:33N 32°01' E 120°30'736138.3
2014-Dec-18 11:32N 31°07' E 121°28'4905223527.1
2014-Dec-18 11:31S 20°09' E 057°30'4238372101.8
2014-Dec-18 11:30N 22°53' E 113°31'1180.2
2014-Dec-18 11:22N 23°04' E 113°29'65944769.5
2014-Dec-18 11:21N 31°42' E 121°09'13165.1
2014-Dec-18 11:21N 31°42' E 121°10'6647161.8
2014-Dec-18 11:15N 23°02' E 113°24'51555.2
2014-Dec-18 11:10N 22°17' E 113°50'42470.0
2014-Dec-18 11:04N 22°54' E 113°28'66542016.0
2014-Dec-18 11:03N 32°04' E 120°30'6671341.1
2014-Dec-18 10:33N 22°54' E 113°24'667343139.8
2014-Dec-18 10:33N 32°04' E 120°30'102540.6
2014-Dec-18 10:33N 31°58' E 120°21'48844395283.6
2014-Dec-18 10:33S 20°09' E 057°30'49053531577.8
2014-Dec-18 10:33N 31°07' E 121°28'24351539.3
2014-Dec-18 10:33N 34°48' E 119°26'205368892.9
2014-Dec-18 10:33N 31°42' E 121°10'397311.2
2014-Dec-18 10:32N 32°02' E 120°30'114507.8
2014-Dec-18 10:32N 32°02' E 120°43'4904205265.9
2014-Dec-18 10:31S 20°09' E 057°30'4226241505.7
2014-Dec-18 10:30N 22°14' E 113°46'690146209.6
2014-Dec-18 10:29N 31°27' E 121°29'66419592.5
2014-Dec-18 10:27N 23°02' E 113°24'64712014.2
2014-Dec-18 10:24N 31°05' E 121°28'64315124.8
2014-Dec-18 10:22N 23°04' E 113°29'0 0.1
2014-Dec-18 09:34N 23°04' E 113°29'662397064.1
2014-Dec-18 09:33N 32°02' E 120°43'164816.1
2014-Dec-18 09:33N 32°01' E 120°25'7634213.9
2014-Dec-18 09:33N 31°07' E 121°28'49052943109.0
2014-Dec-18 09:33S 20°09' E 057°30'49042522095.8
2014-Dec-18 09:33N 31°05' E 121°28'4011124.9
2014-Dec-18 09:33N 31°42' E 121°10'205245621.1
2014-Dec-18 09:33N 34°48' E 119°26'17631646.9
2014-Dec-18 09:32N 31°58' E 120°20'65090052.9
2014-Dec-18 09:32N 23°02' E 113°24'66451988.5
2014-Dec-18 09:31N 31°25' E 121°32'4919737807.9
2014-Dec-18 09:31S 20°09' E 057°30'421915187043.1
2014-Dec-18 09:31N 22°11' E 113°38'6987976.9
2014-Dec-18 09:25N 31°41' E 121°10'41144.8
2014-Dec-18 09:08N 32°04' E 120°30'6561133.5
2014-Dec-18 08:34N 23°04' E 113°29'42431909356.2
2014-Dec-18 08:33S 20°09' E 057°30'490517658639.8
2014-Dec-18 08:33N 31°07' E 121°28'2975.4
2014-Dec-18 08:33N 31°05' E 121°28'49041176967.1
2014-Dec-18 08:33S 20°09' E 057°30'48941101260.4
2014-Dec-18 08:33N 32°04' E 120°30'40144305.7
2014-Dec-18 08:33N 31°42' E 121°10'1165.6
2014-Dec-18 08:32N 31°41' E 121°10'517354.4
2014-Dec-18 08:32N 31°56' E 120°13'6451161559.2
2014-Dec-18 08:32N 23°02' E 113°24'66431466.5
2014-Dec-18 08:30N 31°25' E 121°32'52367.3
2014-Dec-18 08:22N 32°01' E 120°47'3228.6
2014-Dec-18 08:21N 32°02' E 120°43'0 0.0
2014-Dec-18 07:33N 32°02' E 120°43'490417652868.4
2014-Dec-18 07:33S 20°09' E 057°30'49138842578.3
2014-Dec-18 07:33N 31°41' E 121°12'3811548.7
2014-Dec-18 07:33N 31°05' E 121°28'7792320.0
2014-Dec-18 07:33N 32°04' E 120°30'48942517148.4
2014-Dec-18 07:33S 20°09' E 057°30'42341385800.2
2014-Dec-18 07:33N 23°03' E 113°19'651468687.9
2014-Dec-18 07:33N 31°07' E 121°28'385128.8
2014-Dec-18 07:32N 31°42' E 121°10'252761.7
2014-Dec-18 07:32N 31°25' E 121°32'6605484.7
2014-Dec-18 07:25N 23°04' E 113°29'63817024.3
2014-Dec-18 07:22N 31°57' E 120°06'359097.7
2014-Dec-18 07:22N 32°01' E 120°47'360.1
2014-Dec-18 07:19N 31°59' E 120°50'2025.8
2014-Dec-18 06:34N 32°04' E 120°27'48912515609.6
2014-Dec-18 06:33S 20°09' E 057°30'49051038709.1
2014-Dec-18 06:33N 31°07' E 121°28'648179364.1
2014-Dec-18 06:33N 23°03' E 113°25'66554417.4
2014-Dec-18 06:32N 32°02' E 120°43'5515290.3
2014-Dec-18 06:32N 31°25' E 121°32'66412390.8
2014-Dec-18 06:29N 23°02' E 113°24'665132951.1
2014-Dec-18 06:28N 31°41' E 121°12'66010289.4
2014-Dec-18 06:25N 23°04' E 113°29'6637230.4
2014-Dec-18 06:19N 32°01' E 120°47'661834.7
2014-Dec-18 06:17N 31°05' E 121°28'402129.3
2014-Dec-18 06:16N 31°42' E 121°10'23268.6
2014-Dec-18 06:11N 31°59' E 120°51'6097.5
2014-Dec-18 05:34N 31°07' E 121°28'77277976.0
2014-Dec-18 05:33N 32°01' E 120°24'48881955085.6
2014-Dec-18 05:33S 20°09' E 057°30'4243509172.0
2014-Dec-18 05:33N 23°03' E 113°30'643771340.0
2014-Dec-18 05:33N 31°05' E 121°28'406585.5
2014-Dec-18 05:32N 31°42' E 121°09'252284.3
2014-Dec-18 05:32N 31°25' E 121°32'552722.7
2014-Dec-18 05:31N 32°02' E 120°43'66622207.1
2014-Dec-18 05:29N 23°02' E 113°24'66513148.3
2014-Dec-18 05:26N 31°41' E 121°12'29425.5
2014-Dec-18 05:22N 32°01' E 120°47'6633277.5
2014-Dec-18 05:10N 23°04' E 113°29'42437058.6
2014-Dec-18 04:33S 20°09' E 057°30'0159.5
2014-Dec-18 04:33S 20°09' E 057°30'4895429779.0
2014-Dec-18 04:33N 32°00' E 120°34'611539.8
2014-Dec-18 04:30N 31°24' E 121°31'5610587.3
2014-Dec-18 04:30N 32°02' E 120°43'66818487.7
2014-Dec-18 04:28N 23°03' E 113°20'66627248.4
2014-Dec-18 04:26N 31°42' E 121°09'27750.6
2014-Dec-18 04:24N 32°01' E 120°47'66315005.5
2014-Dec-18 04:22N 23°04' E 113°29'66033477.2
2014-Dec-18 04:20N 31°41' E 121°12'67045480.1
2014-Dec-18 04:19N 22°55' E 113°26'6734665.2
2014-Dec-18 04:11N 31°59' E 120°51'602577.9
2014-Dec-18 04:09N 31°07' E 121°28'49058179.5
2014-Dec-18 03:33S 20°09' E 057°30'49065887464.2
2014-Dec-18 03:33N 31°09' E 121°27'72260623.4
2014-Dec-18 03:33N 32°02' E 120°29'48928805719.3
2014-Dec-18 03:33S 20°09' E 057°30'48815857114.3
2014-Dec-18 03:33N 31°57' E 120°18'699233.2
2014-Dec-18 03:33N 31°21' E 121°27'246610.3
2014-Dec-18 03:33N 31°41' E 121°12'32837.7
2014-Dec-18 03:30N 32°02' E 120°43'6780751.7
2014-Dec-18 03:30N 31°06' E 121°27'6577433.5
2014-Dec-18 03:30N 32°01' E 120°47'27711.7
2014-Dec-18 03:28N 31°42' E 121°09'66011368.3
2014-Dec-18 03:25N 23°04' E 113°29'4972465.5
2014-Dec-18 03:12N 27°59' E 120°52'47677324.9
2014-Dec-18 02:33S 20°09' E 057°30'48875864710.2
2014-Dec-18 02:33N 32°00' E 120°24'2070763.4
2014-Dec-18 02:33N 32°01' E 120°47'6143963.6
2014-Dec-18 02:33N 31°11' E 121°28'2357.0
2014-Dec-18 02:33N 31°12' E 121°30'3511338.7
2014-Dec-18 02:33N 31°42' E 121°10'664149357.3
2014-Dec-18 02:32N 23°02' E 113°25'645387106.9
2014-Dec-18 02:32N 31°56' E 120°14'4877650257.9
2014-Dec-18 02:32S 20°09' E 057°30'4767161912.9
2014-Dec-18 02:30N 27°59' E 120°52'4975400.2
2014-Dec-18 02:25N 23°04' E 113°29'6626387.3
2014-Dec-18 02:18N 32°02' E 120°43'7101.9
2014-Dec-18 02:14N 31°59' E 120°51'4 6.1
2014-Dec-18 01:33N 32°01' E 120°47'490617659870.6
2014-Dec-18 01:33S 20°09' E 057°30'49101964118.4
2014-Dec-18 01:33N 31°14' E 121°29'756727.8
2014-Dec-18 01:33N 31°57' E 120°17'4919468.8
2014-Dec-18 01:32N 31°41' E 121°12'4912465391.6
2014-Dec-18 01:32S 20°09' E 057°30'424215269424.6
2014-Dec-18 01:32N 23°05' E 113°27'660792169.3
2014-Dec-18 01:32N 31°41' E 121°10'312703.2
2014-Dec-18 01:31N 32°02' E 120°43'551748.4
2014-Dec-18 01:29N 31°21' E 121°27'4829063.5
2014-Dec-18 01:29N 31°59' E 120°51'371537.1
2014-Dec-18 01:28N 31°56' E 120°08'553165.4
2014-Dec-18 01:27N 31°42' E 121°10'66040254.0
2014-Dec-18 01:26N 23°04' E 113°30'147.7
2014-Dec-18 01:25N 23°04' E 113°29'6692574.6
2014-Dec-18 01:09N 31°25' E 121°48'3559.1
2014-Dec-18 00:34N 31°41' E 121°12'3719016.1
2014-Dec-18 00:33N 31°21' E 121°48'492817742257.4
2014-Dec-18 00:33S 20°09' E 057°30'4903588404.1
2014-Dec-18 00:33N 32°02' E 120°43'302906.8
2014-Dec-18 00:32N 31°42' E 121°10'236294.9
2014-Dec-18 00:32N 31°59' E 120°51'4907929826.3
2014-Dec-18 00:32S 20°09' E 057°30'49151040907.2
2014-Dec-18 00:31N 31°17' E 121°34'7276.0
2014-Dec-18 00:30N 31°21' E 121°27'821576.0
2014-Dec-18 00:27N 31°58' E 120°01'6379029.9
2014-Dec-18 00:23N 23°04' E 113°30'147.6
2014-Dec-18 00:22N 23°04' E 113°29'0 0.1
2014-Dec-17 23:34N 23°04' E 113°29'4452233.9
2014-Dec-17 23:33N 22°27' E 113°53'42392543438.6
2014-Dec-17 23:33S 20°09' E 057°30'491217684580.4
2014-Dec-17 23:33N 31°41' E 121°12'392435.7
2014-Dec-17 23:32N 31°16' E 121°46'4172953.9
2014-Dec-17 23:32N 31°42' E 121°10'235478.6
2014-Dec-17 23:32N 31°59' E 120°51'4829063.5
2014-Dec-17 23:32N 31°21' E 121°27'49131105477.9
2014-Dec-17 23:32S 20°09' E 057°30'49061261538.7
2014-Dec-17 23:32N 31°58' E 120°50'503753.5
2014-Dec-17 23:31N 31°21' E 121°30'111.1
2014-Dec-17 23:26N 31°21' E 121°31'6563165.7
2014-Dec-17 23:14N 23°04' E 113°30'1 1.1
2014-Dec-17 22:34N 23°04' E 113°29'42431697101.7
2014-Dec-17 22:33S 20°09' E 057°30'4903767481.9
2014-Dec-17 22:33N 32°02' E 120°43'303266.4
2014-Dec-17 22:32N 31°42' E 121°10'21839.9
2014-Dec-17 22:32N 31°41' E 121°12'257447.2
2014-Dec-17 22:32N 31°59' E 120°51'4907841263.5
2014-Dec-17 22:32S 20°09' E 057°30'4913803983.9
2014-Dec-17 22:31N 31°21' E 121°27'2522701.7
2014-Dec-17 22:31N 31°09' E 121°53'256506.0
2014-Dec-17 22:31N 31°25' E 121°30'532822.4
2014-Dec-17 22:30N 32°00' E 120°43'6609028.6
2014-Dec-17 22:26N 23°04' E 113°30'6583962.5
2014-Dec-17 22:16N 31°24' E 121°31'6187.5
2014-Dec-17 21:34N 32°01' E 120°33'911211.9
2014-Dec-17 21:33N 32°02' E 120°43'682409273.5
2014-Dec-17 21:33N 22°19' E 114°05'424515281650.8
2014-Dec-17 21:33S 20°09' E 057°30'4913431394.7
2014-Dec-17 21:33N 31°21' E 121°27'486702.5
2014-Dec-17 21:32N 31°59' E 120°51'4907630953.6
2014-Dec-17 21:32S 20°09' E 057°30'4913123671.8
2014-Dec-17 21:29N 31°41' E 121°12'240.1
2014-Dec-17 21:26N 31°42' E 121°10'66050530.3
2014-Dec-17 21:26N 23°04' E 113°30'143.9
2014-Dec-17 21:25N 23°04' E 113°29'540.8
2014-Dec-17 21:17N 22°60' E 113°32'42435872.4
2014-Dec-17 20:33S 20°09' E 057°30'4243803905.7
2014-Dec-17 20:33N 22°60' E 113°32'6512343069.6
2014-Dec-17 20:33N 31°60' E 120°23'466089.1
2014-Dec-17 20:33N 31°41' E 121°12'2485547.1
2014-Dec-17 20:33N 31°21' E 121°27'4810257.7
2014-Dec-17 20:32N 31°59' E 120°51'4907609191.4
2014-Dec-17 20:32S 20°09' E 057°30'42455094426.6
2014-Dec-17 20:32N 22°13' E 114°10'68535242.6
2014-Dec-17 20:31N 32°02' E 120°43'6626545.0
2014-Dec-17 20:25N 23°04' E 113°29'123.3
2014-Dec-17 20:23N 23°04' E 113°30'65810671.8
2014-Dec-17 20:19N 31°32' E 121°20'49146465.6
2014-Dec-17 19:33S 20°09' E 057°30'4911465297.3
2014-Dec-17 19:33N 31°42' E 121°10'3017962.7
2014-Dec-17 19:33N 32°02' E 120°43'329589.9
2014-Dec-17 19:32N 31°41' E 121°12'528972.9
2014-Dec-17 19:32N 31°56' E 120°13'3311871.8
2014-Dec-17 19:32N 31°59' E 120°51'49072944422.3
2014-Dec-17 19:32S 20°09' E 057°30'4913589588.2
2014-Dec-17 19:31N 31°21' E 121°27'65646302.1
2014-Dec-17 19:30N 22°60' E 113°32'66115545.6
2014-Dec-17 19:28N 31°36' E 121°17'65917063.8
2014-Dec-17 19:26N 23°04' E 113°30'140.8
2014-Dec-17 19:25N 23°04' E 113°29'691110.9
2014-Dec-17 19:21N 22°13' E 114°19'6987.8
2014-Dec-17 18:34N 23°04' E 113°29'42431174918.6
2014-Dec-17 18:33S 20°09' E 057°30'4913589573.2
2014-Dec-17 18:33N 31°21' E 121°27'246580.5
2014-Dec-17 18:33N 31°41' E 121°12'2353.2
2014-Dec-17 18:32N 31°42' E 121°10'4912707269.9
2014-Dec-17 18:32S 20°09' E 057°30'5162489010.6
2014-Dec-17 18:31N 36°50' E 122°38'3048054.9
2014-Dec-17 18:29N 31°59' E 120°51'66574797.6
2014-Dec-17 18:28N 22°60' E 113°32'63920553.3
2014-Dec-17 18:27N 31°58' E 120°02'63745876.8
2014-Dec-17 18:26N 23°04' E 113°30'42434861.8
2014-Dec-17 17:33S 20°09' E 057°30'51561160060.3
2014-Dec-17 17:33N 36°54' E 122°27'31825416.2
2014-Dec-17 17:32N 31°43' E 121°07'286613.5
2014-Dec-17 17:32N 31°21' E 121°27'245347.8
2014-Dec-17 17:32N 31°41' E 121°12'49138842529.0
2014-Dec-17 17:32S 20°09' E 057°30'424350250.6
2014-Dec-17 17:27N 23°04' E 113°30'120.6
2014-Dec-17 17:25N 23°04' E 113°29'517.7
2014-Dec-17 17:06N 22°60' E 113°32'42437695.0
2014-Dec-17 16:33S 20°09' E 057°30'49131473933.0
2014-Dec-17 16:33N 31°21' E 121°27'4913229709.9
2014-Dec-17 16:32S 20°09' E 057°30'4913680194.7
2014-Dec-17 16:31N 31°41' E 121°12'662113446.7
2014-Dec-17 16:31N 22°60' E 113°32'953107197.9
2014-Dec-17 16:30N 36°53' E 122°26'3154979.8
2014-Dec-17 16:27N 31°45' E 121°03'65918106.9
2014-Dec-17 16:25N 23°04' E 113°29'6609858.5
2014-Dec-17 16:20N 31°42' E 121°10'30417.2
2014-Dec-17 16:16N 32°00' E 120°42'6624864.6
2014-Dec-17 16:08N 23°03' E 113°25'4 6.6
2014-Dec-17 15:34N 23°04' E 113°29'655785428.0
2014-Dec-17 15:33N 31°21' E 121°27'2421430.4
2014-Dec-17 15:33N 31°41' E 121°12'6622382094.5
2014-Dec-17 15:33N 22°60' E 113°32'42433054923.0
2014-Dec-17 15:33S 20°09' E 057°30'4908353404.0
2014-Dec-17 15:32N 31°45' E 121°03'66761572.7
2014-Dec-17 15:32N 22°54' E 113°30'423715254148.7
2014-Dec-17 15:32S 20°09' E 057°30'515541984.2
2014-Dec-17 15:24N 36°53' E 122°26'3174945.5
2014-Dec-17 15:21N 31°42' E 121°09'49116232.3
2014-Dec-17 14:33S 20°09' E 057°30'4913401981.4
2014-Dec-17 14:33N 31°21' E 121°27'242043.5
2014-Dec-17 14:32N 31°41' E 121°12'49128842381.8
2014-Dec-17 14:32S 20°09' E 057°30'490986620.9
2014-Dec-17 14:28N 31°45' E 121°03'6187.6
2014-Dec-17 14:26N 31°42' E 121°09'66020839.9
2014-Dec-17 14:25N 23°04' E 113°29'533.3
2014-Dec-17 14:15N 23°00' E 113°32'42436119.6
2014-Dec-17 13:33S 20°09' E 057°30'4912360904.3
2014-Dec-17 13:32N 31°41' E 121°12'249538.4
2014-Dec-17 13:32N 31°21' E 121°27'4913570569.2
2014-Dec-17 13:32S 20°09' E 057°30'424336717.1
2014-Dec-17 13:25N 23°04' E 113°29'65919932.7
2014-Dec-17 13:23N 31°45' E 121°03'6153.3
2014-Dec-17 13:20N 31°42' E 121°10'6643177.2
2014-Dec-17 13:08N 22°55' E 113°36'42437346.6
2014-Dec-17 12:33S 20°09' E 057°30'4913982682.5
2014-Dec-17 12:33N 31°22' E 121°28'322919.4
2014-Dec-17 12:32N 31°45' E 121°03'81238.9
2014-Dec-17 12:32N 31°41' E 121°12'491296638.0
2014-Dec-17 12:29S 20°09' E 057°30'424361342.6
2014-Dec-17 12:25N 23°04' E 113°29'6609102.9
2014-Dec-17 12:20N 31°42' E 121°10'660846.4
2014-Dec-17 11:34N 23°04' E 113°29'4243848547.9
2014-Dec-17 11:33S 20°09' E 057°30'4911310197.8
2014-Dec-17 11:32N 31°42' E 121°10'267123.4
2014-Dec-17 11:32N 31°22' E 121°28'4914804034.2
2014-Dec-17 11:32S 20°09' E 057°30'4910192134.2
2014-Dec-17 11:30N 31°43' E 121°07'27567.6
2014-Dec-17 11:27N 32°02' E 120°43'21330.2
2014-Dec-17 11:23N 31°47' E 120°59'4282228.4
2014-Dec-17 11:12N 24°53' E 118°57'7745379.5
2014-Dec-17 11:03N 37°31' E 121°57'515610272.1
2014-Dec-17 10:33S 20°09' E 057°30'49138844141.6
2014-Dec-17 10:33N 31°22' E 121°28'261780.8
2014-Dec-17 10:32N 31°42' E 121°10'4912465309.3
2014-Dec-17 10:32S 20°09' E 057°30'4569164473.5
2014-Dec-17 10:30N 24°53' E 118°57'3193511.6
2014-Dec-17 10:25N 23°04' E 113°29'6578504.7
2014-Dec-17 10:20N 31°48' E 120°55'6658801.7
2014-Dec-17 10:15N 22°54' E 113°30'1115.2
2014-Dec-17 09:33N 23°04' E 113°29'661339786.0
2014-Dec-17 09:33N 31°55' E 120°52'49062207656.2
2014-Dec-17 09:33S 20°09' E 057°30'4914431468.9
2014-Dec-17 09:33N 31°22' E 121°28'268460.5
2014-Dec-17 09:32N 31°42' E 121°10'4912420994.1
2014-Dec-17 09:32S 20°09' E 057°30'4569158147.6
2014-Dec-17 09:30N 24°53' E 118°57'4381421.7
2014-Dec-17 09:11N 31°59' E 120°51'438682.0
2014-Dec-17 08:33N 24°53' E 118°57'4569632571.1
2014-Dec-17 08:32S 20°09' E 057°30'49128840875.3
2014-Dec-17 08:32N 31°42' E 121°10'272989.6
2014-Dec-17 08:32N 32°00' E 120°46'49041358014.7
2014-Dec-17 08:32S 20°09' E 057°30'4916610277.7
2014-Dec-17 08:31N 31°23' E 121°30'335120500.9
2014-Dec-17 08:31N 36°54' E 122°28'9528747.0
2014-Dec-17 08:25N 23°04' E 113°29'66318209.9
2014-Dec-17 08:22N 31°59' E 120°49'663814.1
2014-Dec-17 07:33N 23°04' E 113°29'659474293.5
2014-Dec-17 07:33N 31°26' E 121°29'4917368779.3
2014-Dec-17 07:33S 20°09' E 057°30'48961258993.4
2014-Dec-17 07:32N 31°60' E 120°36'4896429900.5
2014-Dec-17 07:32S 20°09' E 057°30'4570329066.9
2014-Dec-17 07:31N 24°47' E 119°03'733.6
2014-Dec-17 07:18N 24°52' E 118°58'4268118.9
2014-Dec-17 07:14N 31°42' E 121°10'544701.6
2014-Dec-17 07:14N 31°56' E 120°09'3213313.0
2014-Dec-17 07:08N 36°56' E 122°28'310538.0
2014-Dec-17 06:33N 32°02' E 120°27'437112323.4
2014-Dec-17 06:33N 24°53' E 118°55'428140157.4
2014-Dec-17 06:33N 31°56' E 120°12'4876923782.9
2014-Dec-17 06:33S 20°09' E 057°30'490717666673.7
2014-Dec-17 06:33N 31°59' E 120°51'4907315476.8
2014-Dec-17 06:32S 20°09' E 057°30'48981175601.7
2014-Dec-17 06:31N 31°60' E 120°39'30934793.7
2014-Dec-17 06:31N 36°55' E 122°28'97948955.2
2014-Dec-17 06:30N 22°27' E 113°48'68423225.2
2014-Dec-17 06:28N 32°02' E 120°44'301195.8
2014-Dec-17 06:26N 31°42' E 121°10'66023524.2
2014-Dec-17 06:25N 23°04' E 113°29'3273269.1
2014-Dec-17 06:19N 24°44' E 119°10'443579.3
2014-Dec-17 05:33N 32°00' E 120°34'135749.1
2014-Dec-17 05:33N 31°59' E 120°19'1144.7
2014-Dec-17 05:32N 31°58' E 120°20'669344264.8
2014-Dec-17 05:32N 22°27' E 113°48'4236586484.3
2014-Dec-17 05:32S 20°09' E 057°30'0 8.9
2014-Dec-17 05:32S 20°09' E 057°30'4573357896.6
2014-Dec-17 05:31N 24°43' E 119°09'426255544.2
2014-Dec-17 05:31N 31°34' E 121°19'11163.6
2014-Dec-17 05:26N 31°42' E 121°10'66019799.1
2014-Dec-17 05:24N 23°04' E 113°29'6635865.1
2014-Dec-17 05:18N 31°59' E 120°51'2229.6
2014-Dec-17 04:33N 32°02' E 120°26'122873.6
2014-Dec-17 04:33N 31°56' E 120°13'161082.3
2014-Dec-17 04:32N 32°01' E 120°31'4894518148.4
2014-Dec-17 04:32S 20°09' E 057°30'491258940.0
2014-Dec-17 04:27N 31°42' E 121°10'680102069.2
2014-Dec-17 04:26N 22°27' E 113°48'68035458.2
2014-Dec-17 04:25N 31°38' E 121°14'65911251.2
2014-Dec-17 04:21N 23°04' E 113°29'10235.4
2014-Dec-17 04:19N 22°54' E 113°28'44632.2
2014-Dec-17 04:15N 22°11' E 113°25'5477.7
2014-Dec-17 03:33N 23°04' E 113°29'66033943.7
2014-Dec-17 03:32N 31°42' E 121°10'2242.6
2014-Dec-17 03:32N 31°40' E 121°11'49121178828.3
2014-Dec-17 03:32S 20°09' E 057°30'423917481.8
2014-Dec-17 03:17N 22°57' E 113°30'6603165.5
2014-Dec-17 03:04N 32°01' E 120°31'6551267.2
2014-Dec-17 02:33N 23°04' E 113°29'659593216.0
2014-Dec-17 02:33N 31°42' E 121°08'362960.2
2014-Dec-17 02:33N 32°01' E 120°31'387509.7
2014-Dec-17 02:32N 31°42' E 121°10'66113668.9
2014-Dec-17 02:29N 23°02' E 113°31'4243272771.1
2014-Dec-17 02:29S 20°09' E 057°30'489318104.8
2014-Dec-17 02:12N 32°01' E 120°31'112009.5
2014-Dec-17 02:12N 32°02' E 120°44'73336.6
2014-Dec-17 02:12N 31°59' E 120°51'68232293.0
2014-Dec-17 02:11N 22°19' E 114°09'38318.3
2014-Dec-17 02:04N 22°09' E 113°29'55109.7
2014-Dec-17 01:33N 23°04' E 113°29'0112.7
2014-Dec-17 01:33N 23°04' E 113°29'413154.8
2014-Dec-17 01:33N 22°27' E 113°48'685352163.9
2014-Dec-17 01:32N 31°59' E 120°51'70652925.8
2014-Dec-17 01:32N 22°11' E 113°33'42143034269.2
2014-Dec-17 01:32S 20°09' E 057°30'4904147106.6
2014-Dec-17 01:30N 32°02' E 120°43'25121.1
2014-Dec-17 01:17N 31°45' E 121°05'659902.1
2014-Dec-17 00:33N 23°04' E 113°29'4339092.5
2014-Dec-17 00:33N 22°27' E 113°53'675243007.3
2014-Dec-17 00:33N 32°01' E 120°31'696167100.7
2014-Dec-17 00:33N 22°11' E 113°36'4217197149.6
2014-Dec-17 00:32S 20°09' E 057°30'4399195515.7
2014-Dec-17 00:30N 23°06' E 116°43'57748278.4
2014-Dec-17 00:29N 31°59' E 120°51'16665.2
2014-Dec-17 00:28N 31°46' E 121°02'22661.3
2014-Dec-17 00:26N 32°02' E 120°43'66225345.3
2014-Dec-17 00:24N 23°04' E 113°29'41621.7
2014-Dec-17 00:20N 22°27' E 113°48'30431.8
2014-Dec-17 00:16N 22°55' E 113°36'1115.9
2014-Dec-16 23:33N 23°04' E 113°29'6531174839.5
2014-Dec-16 23:33N 32°02' E 120°27'3018189.6
2014-Dec-16 23:33N 31°46' E 120°57'2529799.1
2014-Dec-16 23:33N 31°32' E 121°22'659124924.9
2014-Dec-16 23:33N 23°04' E 113°29'66388421.8
2014-Dec-16 23:33N 31°59' E 120°51'7689.6
2014-Dec-16 23:32N 32°02' E 120°43'4904767513.1
2014-Dec-16 23:32S 20°09' E 057°30'421668067.8
2014-Dec-16 23:28N 22°11' E 113°35'1901503.2
2014-Dec-16 23:20N 23°12' E 116°50'185237.3
2014-Dec-16 22:33N 23°04' E 113°29'649101546.1
2014-Dec-16 22:33N 31°58' E 120°24'173132.1
2014-Dec-16 22:33N 32°02' E 120°44'73161.5
2014-Dec-16 22:33N 31°59' E 120°51'4907267679.7
2014-Dec-16 22:31S 20°09' E 057°30'4904840767.5
2014-Dec-16 22:31N 31°46' E 120°57'20954.4
2014-Dec-16 22:30N 32°02' E 120°43'70353863.0
2014-Dec-16 22:29N 22°11' E 113°35'19513524.8
2014-Dec-16 22:28N 23°16' E 116°55'190729.8
2014-Dec-16 22:13N 23°04' E 113°29'66030055.3
2014-Dec-16 22:11N 31°28' E 121°28'3 4.5
2014-Dec-16 21:34N 31°26' E 121°30'3515573.7
2014-Dec-16 21:33N 31°46' E 120°57'174102.7
2014-Dec-16 21:33N 32°01' E 120°48'6631193693.8
2014-Dec-16 21:33N 23°04' E 113°29'66388421.1
2014-Dec-16 21:33N 31°59' E 120°51'7672.4
2014-Dec-16 21:32N 32°02' E 120°43'4904588426.2
2014-Dec-16 21:32S 20°09' E 057°30'4216103259.3
2014-Dec-16 21:29N 22°11' E 113°35'53700.5
2014-Dec-16 21:24N 23°04' E 113°29'59528.2
2014-Dec-16 21:18N 22°18' E 114°09'5878.4
2014-Dec-16 20:33N 23°04' E 113°30'66399432.8
2014-Dec-16 20:33N 31°59' E 120°51'71678.5
2014-Dec-16 20:32N 32°02' E 120°43'3384.1
2014-Dec-16 20:32N 31°60' E 120°41'198761.3
2014-Dec-16 20:32N 31°46' E 120°57'4904767657.3
2014-Dec-16 20:31S 20°09' E 057°30'421629588.9
2014-Dec-16 20:23N 22°11' E 113°35'53305.7
2014-Dec-16 20:12N 23°04' E 113°29'63910905.4
2014-Dec-16 20:09N 31°56' E 120°09'3050.9
2014-Dec-16 19:34N 32°02' E 120°43'6621191203.6
2014-Dec-16 19:33N 23°04' E 113°29'1123.2
2014-Dec-16 19:33N 23°04' E 113°30'663119319.3
2014-Dec-16 19:33N 31°59' E 120°51'1513124.3
2014-Dec-16 19:33N 32°00' E 120°34'241487.4
2014-Dec-16 19:32N 31°46' E 120°57'49041261151.2
2014-Dec-16 19:31S 20°09' E 057°30'4906327045.3
2014-Dec-16 19:31N 32°01' E 120°47'7042151.5
2014-Dec-16 19:11N 22°11' E 113°35'5385.4
2014-Dec-16 18:33N 23°04' E 113°29'11358.7
2014-Dec-16 18:33N 23°04' E 113°30'653335892.2
2014-Dec-16 18:33N 32°02' E 120°27'6952502984.5
2014-Dec-16 18:33N 22°11' E 113°35'4216137992.1
2014-Dec-16 18:31S 20°09' E 057°30'490643074.3
2014-Dec-16 18:25N 32°01' E 120°47'415654.3
2014-Dec-16 18:24N 31°59' E 119°59'51313.0
2014-Dec-16 18:14N 31°46' E 120°57'656962.3
2014-Dec-16 17:33N 23°04' E 113°29'12717.3
2014-Dec-16 17:33N 23°04' E 113°30'5331804.4
2014-Dec-16 17:33N 22°11' E 113°35'219621.0
2014-Dec-16 17:33N 22°25' E 113°53'67068935.3
2014-Dec-16 17:33N 31°59' E 120°22'4885266452.4
2014-Dec-16 17:32S 20°09' E 057°30'421520700.6
2014-Dec-16 17:19N 22°11' E 113°34'7055959.2
2014-Dec-16 17:12N 32°01' E 120°47'1727.0
2014-Dec-16 16:33N 31°46' E 120°57'6562361638.8
2014-Dec-16 16:33N 23°04' E 113°30'66379546.2
2014-Dec-16 16:33N 31°59' E 120°51'301407.3
2014-Dec-16 16:32N 31°57' E 120°16'48791463824.8
2014-Dec-16 16:31S 20°09' E 057°30'42171012131.4
2014-Dec-16 16:31N 22°10' E 113°37'70428802.6
2014-Dec-16 16:30N 32°01' E 120°47'70431689.8
2014-Dec-16 16:28N 22°12' E 113°34'45319.2
2014-Dec-16 16:20N 22°56' E 113°33'7 8.9
2014-Dec-16 15:34N 23°03' E 113°30'23651.3
2014-Dec-16 15:33N 23°04' E 113°29'5218783.9
2014-Dec-16 15:33N 22°13' E 113°42'5218668.8
2014-Dec-16 15:33N 23°04' E 113°29'663298422.6
2014-Dec-16 15:33N 31°59' E 120°51'41351.8
2014-Dec-16 15:33N 32°01' E 120°47'4906220755.6
2014-Dec-16 15:31S 20°09' E 057°30'4216244778.7
2014-Dec-16 15:30N 22°11' E 113°34'5355.6
2014-Dec-16 14:34N 23°04' E 113°29'656196891.9
2014-Dec-16 14:33N 31°46' E 120°57'143329.3
2014-Dec-16 14:33N 31°59' E 120°51'41351.8
2014-Dec-16 14:33N 32°01' E 120°47'66366270.2
2014-Dec-16 14:32N 23°03' E 113°30'4244332105.7
2014-Dec-16 14:32S 20°09' E 057°30'4216252942.9
2014-Dec-16 14:31N 22°12' E 113°34'70366643.0
2014-Dec-16 14:30N 32°02' E 120°43'66115865.9
2014-Dec-16 14:27N 23°05' E 113°29'115.1
2014-Dec-16 14:24N 23°04' E 113°29'1 0.8
2014-Dec-16 13:33N 23°05' E 113°29'64041895.1
2014-Dec-16 13:32N 31°56' E 120°11'4875331160.6
2014-Dec-16 13:32S 20°09' E 057°30'421624244.9
2014-Dec-16 13:21N 22°11' E 113°35'53376.9
2014-Dec-16 13:13N 23°04' E 113°29'7162.0
2014-Dec-16 13:10N 22°57' E 113°30'3 5.5
2014-Dec-16 12:33N 22°54' E 113°30'64770533.0
2014-Dec-16 12:33N 31°01' E 121°27'4901210026.9
2014-Dec-16 12:31S 20°09' E 057°30'4244215163.7
2014-Dec-16 12:30N 23°05' E 113°29'64051204.3
2014-Dec-16 12:30N 31°56' E 120°11'6417562.8
2014-Dec-16 12:24N 23°04' E 113°29'53340.6
2014-Dec-16 12:15N 22°11' E 113°35'69718058.0
2014-Dec-16 12:13N 31°24' E 121°30'52828.0
2014-Dec-16 12:09N 32°01' E 120°47'177836.7
2014-Dec-16 12:09N 31°46' E 120°57'6561111.7
2014-Dec-16 11:33N 23°04' E 113°29'657473234.3
2014-Dec-16 11:33N 31°23' E 121°30'657337693.2
2014-Dec-16 11:33N 23°05' E 113°29'641104942.4
2014-Dec-16 11:33N 31°04' E 121°28'4904210150.5
2014-Dec-16 11:32S 20°09' E 057°30'4243242462.2
2014-Dec-16 11:30N 23°02' E 113°31'64226256.9
2014-Dec-16 11:29N 31°56' E 120°11'68310738.9
2014-Dec-16 11:25N 22°11' E 113°35'70411022.0
2014-Dec-16 11:21N 31°59' E 120°51'231109.5
2014-Dec-16 11:20N 31°42' E 121°10'660849.1
2014-Dec-16 10:33N 23°04' E 113°29'5327006.5
2014-Dec-16 10:33N 22°13' E 113°40'680116553.5
2014-Dec-16 10:33N 31°56' E 120°11'8249022.4
2014-Dec-16 10:33N 31°07' E 121°28'4905210220.6
2014-Dec-16 10:32S 20°09' E 057°30'490666895.7
2014-Dec-16 10:27N 32°01' E 120°47'68231477.7
2014-Dec-16 10:26N 22°18' E 114°09'592274.7
2014-Dec-16 10:24N 23°05' E 113°29'6607047.8
2014-Dec-16 10:19N 31°42' E 121°10'660877.6
2014-Dec-16 09:33N 23°04' E 113°29'646581644.0
2014-Dec-16 09:33N 31°10' E 121°28'8012512.2
2014-Dec-16 09:33N 31°56' E 120°11'47224249.5
2014-Dec-16 09:32N 24°17' E 118°13'4512773539.5
2014-Dec-16 09:32S 20°09' E 057°30'4904117685.0
2014-Dec-16 09:29N 32°02' E 120°43'209058.1
2014-Dec-16 09:29N 31°46' E 120°57'372159.6
2014-Dec-16 09:28N 31°57' E 120°15'48528.1
2014-Dec-16 09:22N 31°42' E 121°10'65933904.7
2014-Dec-16 09:21N 23°05' E 113°29'685.0
2014-Dec-16 09:17N 23°02' E 113°24'6677823.7
2014-Dec-16 09:12N 32°01' E 120°47'6631027.5
2014-Dec-16 08:33N 23°04' E 113°29'345537.6
2014-Dec-16 08:33N 22°34' E 113°46'663170431.7
2014-Dec-16 08:33N 31°12' E 121°30'7515084.8
2014-Dec-16 08:33N 32°01' E 120°23'47438792.5
2014-Dec-16 08:32N 24°20' E 118°20'4520561113.1
2014-Dec-16 08:31S 20°09' E 057°30'4244141451.8
2014-Dec-16 08:30N 23°05' E 113°29'65943151.5
2014-Dec-16 08:29N 31°42' E 121°10'522774.5
2014-Dec-16 08:28N 31°56' E 120°11'31293.4
2014-Dec-16 08:21N 32°01' E 120°47'317.8
2014-Dec-16 08:10N 32°02' E 120°43'6627357.8
2014-Dec-16 08:04N 23°03' E 113°30'6511219.4
2014-Dec-16 07:32N 31°15' E 121°29'65044164.0
2014-Dec-16 07:32N 23°04' E 113°30'149.1
2014-Dec-16 07:30N 23°05' E 113°29'64076807.1
2014-Dec-16 07:30N 31°56' E 120°11'66030083.7
2014-Dec-16 07:28N 22°29' E 113°52'41352.6
2014-Dec-16 07:21N 23°04' E 113°29'65913953.4
2014-Dec-16 07:19N 31°52' E 120°53'72004.4
2014-Dec-16 07:18N 31°59' E 120°51'76708.9
2014-Dec-16 07:18N 32°02' E 120°43'32022.1
2014-Dec-16 07:18N 32°01' E 120°47'27534.9
2014-Dec-16 07:15N 31°42' E 121°10'6654885.2
2014-Dec-16 07:07N 23°03' E 113°22'712.0
2014-Dec-16 06:33N 23°04' E 113°29'43155569.6
2014-Dec-16 06:33N 22°27' E 113°53'682350630.6
2014-Dec-16 06:33N 32°01' E 120°47'662158896.7
2014-Dec-16 06:33N 23°05' E 113°29'652234798.9
2014-Dec-16 06:33N 31°15' E 121°32'33118552.1
2014-Dec-16 06:33N 31°42' E 121°10'4912707278.1
2014-Dec-16 06:32S 20°09' E 057°30'4243254604.7
2014-Dec-16 06:31N 23°04' E 113°30'64121551.2
2014-Dec-16 06:30N 31°56' E 120°11'6596568.2
2014-Dec-16 06:24N 22°31' E 113°50'5 6.0
2014-Dec-16 05:33N 22°27' E 113°53'4240339202.0
2014-Dec-16 05:33S 20°09' E 057°30'491680078.2
2014-Dec-16 05:29N 31°18' E 121°34'674074.7
2014-Dec-16 05:28N 32°00' E 120°33'19347.6
2014-Dec-16 05:25N 31°56' E 120°11'64030317.6
2014-Dec-16 05:24N 23°05' E 113°29'41347.9
2014-Dec-16 05:16N 22°28' E 113°50'3 4.5
2014-Dec-16 04:33N 22°27' E 113°53'37718836.7
2014-Dec-16 04:32N 25°49' E 119°41'37418458.0
2014-Dec-16 04:31N 31°60' E 120°41'66119829.1
2014-Dec-16 04:29N 23°04' E 113°25'64341319.6
2014-Dec-16 04:28N 31°56' E 120°11'64119894.0
2014-Dec-16 04:26N 23°05' E 113°27'65717655.1
2014-Dec-16 04:24N 31°21' E 121°32'6562249.3
2014-Dec-16 04:06N 23°05' E 113°29'373661.3
2014-Dec-16 03:32N 25°44' E 119°39'372446671.6
2014-Dec-16 03:32N 22°27' E 113°53'4325822.9
2014-Dec-16 03:32N 23°04' E 113°29'124.3
2014-Dec-16 03:30N 23°05' E 113°29'65690801.0
2014-Dec-16 03:30N 31°22' E 121°30'592042.0
2014-Dec-16 03:28N 31°60' E 120°36'332362.5
2014-Dec-16 03:27N 31°42' E 121°10'528450.0
2014-Dec-16 03:27N 31°56' E 120°11'6412019.2
2014-Dec-16 03:08N 23°04' E 113°30'6631160.2
2014-Dec-16 02:33N 32°01' E 120°47'66333605.8
2014-Dec-16 02:32N 23°04' E 113°29'4313978.5
2014-Dec-16 02:32N 22°28' E 113°53'47449.2
2014-Dec-16 02:26N 23°03' E 113°20'66955993.7
2014-Dec-16 02:25N 31°59' E 120°51'46370.9
2014-Dec-16 02:18N 31°26' E 121°29'603403.2
2014-Dec-16 02:17N 32°01' E 120°32'18792.3
2014-Dec-16 02:15N 31°56' E 120°11'17872.9
2014-Dec-16 02:14N 32°01' E 120°31'6544518.6
2014-Dec-16 02:05N 23°05' E 113°29'654906.0
2014-Dec-16 01:22N 32°01' E 120°32'6758584.0
2014-Dec-16 01:17N 22°28' E 113°52'1661225.5
2014-Dec-16 01:09N 23°21' E 116°42'17845874.6
2014-Dec-16 01:09N 23°05' E 113°29'658107621.8
2014-Dec-16 01:09N 31°30' E 121°23'69710375.0
2014-Dec-16 01:04N 22°11' E 113°35'683307420.7
2014-Dec-16 01:04N 31°56' E 120°11'1832.7
2014-Dec-16 00:31N 32°01' E 120°32'6551627.3
2014-Dec-16 00:07N 23°03' E 113°30'6622384603.8
2014-Dec-16 00:07N 31°58' E 120°51'7031255.8
2014-Dec-15 23:33N 22°11' E 113°35'7031265800.8
2014-Dec-15 23:33N 32°02' E 120°43'31514.6
2014-Dec-15 23:33N 32°01' E 120°47'132458.3
2014-Dec-15 23:33N 32°01' E 120°32'654168190.0
2014-Dec-15 23:33N 23°05' E 113°29'66224300.1
2014-Dec-15 23:31N 31°58' E 120°51'68123142.6
2014-Dec-15 23:29N 22°28' E 113°52'25161.0
2014-Dec-15 23:20N 22°10' E 113°32'48877.4
2014-Dec-15 23:17N 22°58' E 113°32'764.6
2014-Dec-15 23:10N 23°04' E 113°29'4268.6
2014-Dec-15 22:34N 22°28' E 113°52'675220845.8
2014-Dec-15 22:33N 32°01' E 120°32'69420989.5
2014-Dec-15 22:31N 22°12' E 113°40'70145082.9
2014-Dec-15 22:30N 32°01' E 120°47'66258135.9
2014-Dec-15 22:30N 23°05' E 113°29'64011295.1
2014-Dec-15 22:26N 31°56' E 120°11'64137203.9
2014-Dec-15 22:25N 23°04' E 113°29'4248.7
2014-Dec-15 21:34N 22°28' E 113°52'675269922.6
2014-Dec-15 21:33N 32°01' E 120°32'65453514.6
2014-Dec-15 21:33N 23°05' E 113°29'554022.1
2014-Dec-15 21:32N 22°10' E 113°32'13339.1
2014-Dec-15 21:30N 22°16' E 113°44'50691.1
2014-Dec-15 21:25N 23°04' E 113°29'6623665.2
2014-Dec-15 21:14N 32°02' E 120°43'318.4
2014-Dec-15 21:03N 32°01' E 120°47'3 6.8
2014-Dec-15 20:34N 32°02' E 120°43'107138.7
2014-Dec-15 20:33N 32°01' E 120°32'67569407.6
2014-Dec-15 20:33N 22°28' E 113°52'439065.7
2014-Dec-15 20:33N 23°05' E 113°29'554479.2
2014-Dec-15 20:32N 22°10' E 113°32'1710219.8
2014-Dec-15 20:32N 22°23' E 113°44'68963643.5
2014-Dec-15 20:31N 31°58' E 120°50'6626812.6
2014-Dec-15 20:25N 23°04' E 113°29'3416466.4
2014-Dec-15 20:22N 25°08' E 119°18'41114102.0
2014-Dec-15 20:20N 31°56' E 120°11'3139.5
2014-Dec-15 19:34N 32°01' E 120°47'11109.8
2014-Dec-15 19:33N 32°01' E 120°47'3399.2
2014-Dec-15 19:33N 32°02' E 120°43'661108181.4
2014-Dec-15 19:33N 23°05' E 113°29'3365445.9
2014-Dec-15 19:29N 25°03' E 119°13'33618058.3
2014-Dec-15 19:28N 23°04' E 113°29'402984.7
2014-Dec-15 19:27N 22°28' E 113°48'6634128.1
2014-Dec-15 19:17N 31°56' E 120°11'2534.4
2014-Dec-15 18:33N 31°60' E 120°41'6621192255.3
2014-Dec-15 18:33N 22°59' E 113°30'65933877.8
2014-Dec-15 18:32N 32°01' E 120°32'65411430.2
2014-Dec-15 18:29N 23°05' E 113°29'551132.7
2014-Dec-15 18:26N 22°10' E 113°32'6867762.9
2014-Dec-15 18:21N 31°56' E 120°11'28767.3
2014-Dec-15 18:18N 32°02' E 120°43'69210257.5
2014-Dec-15 18:14N 22°17' E 113°48'6934308.8
2014-Dec-15 18:05N 32°01' E 120°47'67525832.9
2014-Dec-15 18:03N 22°43' E 113°41'2958.6
2014-Dec-15 17:33N 22°14' E 113°44'692311387.1
2014-Dec-15 17:33N 32°01' E 120°35'610499.5
2014-Dec-15 17:33N 32°02' E 120°28'132584.9
2014-Dec-15 17:33N 32°02' E 120°43'66188145.8
2014-Dec-15 17:32N 23°05' E 113°29'320143872.8
2014-Dec-15 17:32N 24°41' E 119°03'33935898.8
2014-Dec-15 17:32N 22°10' E 113°32'7077829.2
2014-Dec-15 17:26N 31°60' E 120°50'67213005.9
2014-Dec-15 17:23N 22°55' E 113°27'65014093.8
2014-Dec-15 17:21N 31°56' E 120°11'433552.0
2014-Dec-15 16:33N 24°48' E 118°57'444133229.5
2014-Dec-15 16:33N 32°04' E 120°31'82891.6
2014-Dec-15 16:33N 31°60' E 120°23'251934.7
2014-Dec-15 16:32N 31°56' E 120°52'70211707.4
2014-Dec-15 16:29N 22°10' E 113°37'55199475.8
2014-Dec-15 16:29N 23°05' E 113°29'640144007.7
2014-Dec-15 16:28N 31°56' E 120°11'6 6.0
2014-Dec-15 15:33N 31°57' E 120°18'916211.0
2014-Dec-15 15:33N 32°03' E 120°26'44864580.0
2014-Dec-15 15:33N 24°42' E 118°51'764781.7
2014-Dec-15 15:32N 25°44' E 119°39'3735761.1
2014-Dec-15 15:28N 23°01' E 113°31'66311936.1
2014-Dec-15 15:25N 32°02' E 120°43'14255.0
2014-Dec-15 15:21N 31°51' E 120°54'37282.2
2014-Dec-15 15:13N 31°56' E 120°11'65926647.1
2014-Dec-15 15:12N 22°48' E 113°20'6671029.2
2014-Dec-15 14:33N 32°00' E 120°22'18267.0
2014-Dec-15 14:29N 32°02' E 120°44'6822454587.7
2014-Dec-15 14:29N 22°19' E 114°08'34649.6
2014-Dec-15 14:26N 22°10' E 113°32'68698740.9
2014-Dec-15 14:25N 31°56' E 120°11'66420604.6
2014-Dec-15 14:23N 22°27' E 113°48'20167.4
2014-Dec-15 14:16N 22°10' E 113°36'422.1
2014-Dec-15 14:05N 22°11' E 113°32'6891321.7
2014-Dec-15 13:33N 31°58' E 120°19'371506.9
2014-Dec-15 13:32N 31°47' E 121°01'7018577.7
2014-Dec-15 13:27N 22°11' E 113°32'68423923.0
2014-Dec-15 13:25N 31°56' E 120°11'6852566.2
2014-Dec-15 13:09N 22°11' E 113°32'7056734.8
2014-Dec-15 13:03N 32°02' E 120°44'2548.8
2014-Dec-15 12:32N 31°56' E 120°15'3212.0
2014-Dec-15 12:31N 31°56' E 120°11'28173.4
2014-Dec-15 12:21N 32°02' E 120°44'6845388.5
2014-Dec-15 12:14N 22°27' E 113°48'97732551.8
2014-Dec-15 12:12N 36°53' E 122°26'9981549.4
2014-Dec-15 11:33N 22°09' E 113°32'70340819.5
2014-Dec-15 11:32N 31°40' E 121°12'3197854.4
2014-Dec-15 11:30N 36°53' E 122°28'318937.2
2014-Dec-15 11:09N 31°56' E 120°07'464.0
2014-Dec-15 11:06N 31°56' E 120°11'60108.3
2014-Dec-15 10:33N 31°36' E 121°18'542243759.3
2014-Dec-15 10:33N 22°38' E 120°11'558100513.6
2014-Dec-15 10:32N 31°56' E 120°12'271611.5
2014-Dec-15 10:31N 32°02' E 120°44'30615736.8
2014-Dec-15 10:30N 36°54' E 122°37'32224685.6
2014-Dec-15 10:29N 31°57' E 120°03'66291702.0
2014-Dec-15 10:29N 22°26' E 113°47'6653639.1
2014-Dec-15 10:18N 31°56' E 120°11'3539935.8
2014-Dec-15 10:16N 26°05' E 119°31'4031891.9
2014-Dec-15 10:03N 22°11' E 113°32'6881393.9
2014-Dec-15 09:33N 31°58' E 120°18'6217038.3
2014-Dec-15 09:33N 31°32' E 121°23'664021.7
2014-Dec-15 09:32N 31°56' E 120°11'2850338.0
2014-Dec-15 09:32N 32°02' E 120°44'36762999.8
2014-Dec-15 09:32N 26°01' E 119°29'3991011.8
2014-Dec-15 09:08N 22°10' E 113°32'6941196.2
2014-Dec-15 08:33N 32°00' E 120°22'36622329.6
2014-Dec-15 08:32N 25°58' E 119°26'676270348.9
2014-Dec-15 08:32N 36°55' E 122°28'33234133.7
2014-Dec-15 08:32N 31°27' E 121°29'669456.1
2014-Dec-15 08:31N 32°03' E 120°25'69871810.0
2014-Dec-15 08:31N 22°10' E 113°31'706847562.8
2014-Dec-15 08:30N 32°02' E 120°44'5711402.7
2014-Dec-15 08:30N 31°10' E 121°09'4145623.9
2014-Dec-15 08:26N 24°42' E 118°27'4442360.2
2014-Dec-15 08:14N 31°56' E 120°11'1115.3
2014-Dec-15 07:33N 32°01' E 120°23'7031461.3
2014-Dec-15 07:33N 31°21' E 121°31'6782440287.9
2014-Dec-15 07:33N 22°27' E 113°43'679188056.0
2014-Dec-15 07:33N 32°04' E 120°26'37047530.1
2014-Dec-15 07:32N 25°58' E 119°26'361216543.8
2014-Dec-15 07:32N 31°56' E 120°11'3207624.3
2014-Dec-15 07:30N 36°56' E 122°28'3065792.3
2014-Dec-15 07:26N 32°02' E 120°44'5302472.2
2014-Dec-15 07:14N 24°42' E 115°09'1331215.5
2014-Dec-15 07:07N 23°05' E 113°28'0 0.0
2014-Dec-15 06:33N 23°05' E 113°28'652335290.3
2014-Dec-15 06:33N 31°15' E 121°32'7616149.8
2014-Dec-15 06:33N 31°57' E 120°17'36225548.5
2014-Dec-15 06:32N 25°58' E 119°26'37144499.8
2014-Dec-15 06:32N 32°04' E 120°32'68740552.2
2014-Dec-15 06:31N 22°21' E 113°43'6917172.1
2014-Dec-15 06:25N 32°02' E 120°44'28441.6
2014-Dec-15 06:21N 31°56' E 120°11'4292577.0
2014-Dec-15 06:11N 24°53' E 118°57'319506.2
2014-Dec-15 05:33N 23°05' E 113°28'646581690.9
2014-Dec-15 05:33N 31°11' E 121°28'67760962.3
2014-Dec-15 05:33N 22°15' E 113°43'38460105.3
2014-Dec-15 05:32N 25°58' E 119°26'37117568.5
2014-Dec-15 05:31N 32°02' E 120°44'7534.5
2014-Dec-15 05:30N 32°01' E 120°36'2119292.9
2014-Dec-15 05:30N 31°56' E 120°11'42925306.5
2014-Dec-15 05:29N 24°53' E 118°57'319341.2
2014-Dec-15 04:33N 23°05' E 113°28'658107691.3
2014-Dec-15 04:33N 32°00' E 120°41'668481140.7
2014-Dec-15 04:33N 22°55' E 113°26'45160227.7
2014-Dec-15 04:33N 22°12' E 113°40'38960808.7
2014-Dec-15 04:32N 25°58' E 119°26'37112363.2
2014-Dec-15 04:30N 32°02' E 120°44'44021111.6
2014-Dec-15 04:29N 24°53' E 118°57'4293222.8
2014-Dec-15 04:21N 31°56' E 120°11'6483133.6
2014-Dec-15 04:09N 23°04' E 113°16'6451098.0
2014-Dec-15 03:33N 31°57' E 120°07'6461163289.8
2014-Dec-15 03:33N 22°54' E 113°31'118025.7
2014-Dec-15 03:33N 23°05' E 113°28'661198439.6
2014-Dec-15 03:33N 32°01' E 120°46'43983122.1
2014-Dec-15 03:33N 24°52' E 119°01'331595826.0
2014-Dec-15 03:33N 23°03' E 113°19'66842173.8
2014-Dec-15 03:32N 32°02' E 120°44'7024481.3
2014-Dec-15 03:22N 22°11' E 113°38'39010105.9
2014-Dec-15 03:20N 25°58' E 119°26'368470.2
2014-Dec-15 02:33N 31°58' E 120°51'663113688.7
2014-Dec-15 02:33N 23°03' E 113°31'662216788.7
2014-Dec-15 02:33N 32°02' E 120°44'3714784.5
2014-Dec-15 02:32N 31°59' E 120°00'64011356.9
2014-Dec-15 02:29N 23°03' E 113°25'534577.9
2014-Dec-15 02:28N 22°11' E 113°38'39010405.1
2014-Dec-15 02:26N 25°58' E 119°26'3797501.2
2014-Dec-15 02:23N 23°04' E 113°16'3015467.1
2014-Dec-15 02:20N 24°41' E 118°27'289373.7
2014-Dec-15 01:33N 23°04' E 113°30'643165292.8
2014-Dec-15 01:33N 31°05' E 121°28'6822402.5
2014-Dec-15 01:33N 32°02' E 120°44'37124276.9
2014-Dec-15 01:32N 25°58' E 119°26'36934911.7
2014-Dec-15 01:31N 23°04' E 113°29'54850.9
2014-Dec-15 01:28N 22°11' E 113°38'69812088.5
2014-Dec-15 01:24N 31°52' E 120°54'4492151.3
2014-Dec-15 01:12N 24°41' E 118°27'446694.0
2014-Dec-15 00:33N 31°47' E 120°57'415663.7
2014-Dec-15 00:33N 31°51' E 120°54'6582370027.6
2014-Dec-15 00:33N 23°04' E 113°30'662170131.2
2014-Dec-15 00:33N 32°02' E 120°44'37127817.3
2014-Dec-15 00:32N 25°58' E 119°26'3696200.0
2014-Dec-15 00:29N 23°04' E 113°29'660715.2
2014-Dec-14 23:33N 31°46' E 121°05'6601187440.7
2014-Dec-14 23:33N 23°04' E 113°30'638383093.1
2014-Dec-14 23:33N 32°02' E 119°58'392119.8
2014-Dec-14 23:32N 32°02' E 120°44'66211346.8
2014-Dec-14 23:28N 23°04' E 113°29'3699410.0
2014-Dec-14 23:26N 25°58' E 119°26'3724129.4
2014-Dec-14 23:21N 22°52' E 113°33'1215.5
2014-Dec-14 22:33N 23°04' E 113°30'6621190909.4
2014-Dec-14 22:33N 32°02' E 120°44'67249337.8
2014-Dec-14 22:33N 22°55' E 113°26'3763452.4
2014-Dec-14 22:26N 25°58' E 119°26'3654084.0
2014-Dec-14 22:21N 32°02' E 119°58'44814011.3
2014-Dec-14 22:19N 24°41' E 118°27'446178455.8
2014-Dec-14 22:19N 31°57' E 120°17'644849.3
2014-Dec-14 21:33N 23°04' E 113°30'63879260.0
2014-Dec-14 21:33N 32°02' E 119°58'350.7
2014-Dec-14 21:29N 31°60' E 120°00'691512.2
2014-Dec-14 21:27N 31°37' E 121°17'33931.2
2014-Dec-14 21:24N 31°05' E 121°28'41627227.3
2014-Dec-14 21:24N 24°41' E 118°27'931620.6
2014-Dec-14 21:20N 25°58' E 119°26'3691748.2
2014-Dec-14 21:07N 23°04' E 113°29'6431137.2
2014-Dec-14 20:33N 31°05' E 121°28'643771361.0
2014-Dec-14 20:33N 23°04' E 113°30'662793939.6
2014-Dec-14 20:33N 32°02' E 120°44'393587.3
2014-Dec-14 20:33N 32°02' E 119°58'7215194.5
2014-Dec-14 20:32N 31°37' E 121°17'66138356.1
2014-Dec-14 20:31N 23°04' E 113°29'639229993.6
2014-Dec-14 20:31N 31°58' E 120°05'4458339.0
2014-Dec-14 20:28N 24°41' E 118°27'457501.7
2014-Dec-14 19:33N 32°02' E 120°44'66264391.0
2014-Dec-14 19:33N 23°04' E 113°29'641329559.0
2014-Dec-14 19:33N 31°57' E 120°11'428256688.7
2014-Dec-14 19:33N 24°53' E 119°03'421216522.9
2014-Dec-14 19:32N 31°37' E 121°17'331050.4
2014-Dec-14 19:31N 31°05' E 121°28'6435589.6
2014-Dec-14 19:24N 23°04' E 113°30'2891414.0
2014-Dec-14 19:11N 24°41' E 118°27'289453.1
2014-Dec-14 18:33N 23°04' E 113°29'165.9
2014-Dec-14 18:33N 23°04' E 113°30'644772788.5
2014-Dec-14 18:33N 31°57' E 120°17'5522073.0
2014-Dec-14 18:32N 31°37' E 121°17'3834178.0
2014-Dec-14 18:32N 32°02' E 120°44'682324.8
2014-Dec-14 18:31N 31°05' E 121°28'3968010.3
2014-Dec-14 18:28N 24°53' E 118°57'328984.7
2014-Dec-14 18:08N 22°54' E 113°22'65018436.4
2014-Dec-14 18:06N 32°02' E 119°58'6391180.8
2014-Dec-14 17:33N 23°04' E 113°29'649467225.8
2014-Dec-14 17:33N 32°00' E 120°22'649116776.1
2014-Dec-14 17:33N 23°04' E 113°30'660169765.1
2014-Dec-14 17:32N 31°37' E 121°17'67026234.1
2014-Dec-14 17:31N 22°55' E 113°25'2845.8
2014-Dec-14 17:31N 22°55' E 113°27'65212547.3
2014-Dec-14 17:28N 31°05' E 121°28'396475275.5
2014-Dec-14 17:28N 24°53' E 118°57'4405350.4
2014-Dec-14 17:23N 32°02' E 120°44'4572692.3
2014-Dec-14 17:13N 24°41' E 118°27'453696.1
2014-Dec-14 16:33N 32°02' E 120°27'6532350907.6
2014-Dec-14 16:33N 23°04' E 113°29'1110082.8
2014-Dec-14 16:33N 22°53' E 113°31'11991.6
2014-Dec-14 16:33N 23°04' E 113°30'662183216.8
2014-Dec-14 16:32N 32°02' E 120°44'682324.8
2014-Dec-14 16:31N 31°05' E 121°28'331574.8
2014-Dec-14 16:29N 31°37' E 121°17'66889053.8
2014-Dec-14 16:29N 22°52' E 113°34'31914019.6
2014-Dec-14 16:28N 24°53' E 118°57'29289.4
2014-Dec-14 16:22N 24°41' E 118°27'4482137.0
2014-Dec-14 16:09N 32°02' E 119°58'6391078.9
2014-Dec-14 15:33N 23°04' E 113°29'656471976.7
2014-Dec-14 15:33N 32°02' E 120°32'452964.6
2014-Dec-14 15:32N 31°37' E 121°17'331184.8
2014-Dec-14 15:31N 31°05' E 121°28'3967624.7
2014-Dec-14 15:28N 24°53' E 118°57'4072285.6
2014-Dec-14 15:17N 31°09' E 121°53'6607447.5
2014-Dec-14 15:12N 23°04' E 113°30'662170129.9
2014-Dec-14 15:11N 32°02' E 120°44'5 8.0
2014-Dec-14 14:33N 32°00' E 120°38'402843.2
2014-Dec-14 14:32N 31°37' E 121°17'344094.6
2014-Dec-14 14:32N 31°14' E 121°47'721059.5
2014-Dec-14 14:28N 32°02' E 120°44'68123213.7
2014-Dec-14 14:28N 31°05' E 121°28'396118818.9
2014-Dec-14 14:28N 24°53' E 118°57'3184914.5
2014-Dec-14 14:24N 23°04' E 113°30'1064.4
2014-Dec-14 14:14N 22°55' E 113°26'2952024.1
2014-Dec-14 14:06N 24°41' E 118°27'436810.5
2014-Dec-14 13:33N 31°20' E 121°48'665399010.9
2014-Dec-14 13:33N 23°04' E 113°29'66044861.9
2014-Dec-14 13:32N 31°37' E 121°17'725888.8
2014-Dec-14 13:32N 32°02' E 119°58'65967751.4
2014-Dec-14 13:31N 22°28' E 113°54'657157738.6
2014-Dec-14 13:31N 31°05' E 121°28'666299.3
2014-Dec-14 13:30N 32°01' E 120°45'4399871.6
2014-Dec-14 13:28N 24°53' E 118°57'3184852.1
2014-Dec-14 13:24N 23°04' E 113°30'936.6
2014-Dec-14 13:09N 22°55' E 113°30'6491097.5
2014-Dec-14 12:33N 31°05' E 121°28'2545444.8
2014-Dec-14 12:33N 31°27' E 121°43'975196.6
2014-Dec-14 12:32N 32°02' E 119°56'6442318851.4
2014-Dec-14 12:32N 22°57' E 113°30'6675256.4
2014-Dec-14 12:25N 32°02' E 120°43'66239043.2
2014-Dec-14 12:24N 23°04' E 113°30'3183.1
2014-Dec-14 12:23N 23°01' E 113°31'7201.2
2014-Dec-14 12:20N 22°56' E 113°36'3163987.4
2014-Dec-14 12:16N 24°53' E 118°57'43630172.1
2014-Dec-14 12:15N 31°56' E 120°52'6086.5
2014-Dec-14 11:34N 31°05' E 121°28'64796994.0
2014-Dec-14 11:33N 22°57' E 113°32'66422778.8
2014-Dec-14 11:31N 31°37' E 121°17'381604.5
2014-Dec-14 11:30N 32°02' E 120°44'142455.8
2014-Dec-14 11:30N 31°51' E 120°54'43113266.9
2014-Dec-14 11:28N 24°53' E 118°57'32561513.4
2014-Dec-14 11:27N 22°55' E 113°26'1089.8
2014-Dec-14 11:21N 23°04' E 113°30'1048.9
2014-Dec-14 11:09N 22°55' E 113°27'29481418.7
2014-Dec-14 11:08N 24°41' E 118°27'45560681.7
2014-Dec-14 11:08N 32°10' E 119°53'6431082.4
2014-Dec-14 10:32N 23°05' E 113°29'66040268.5
2014-Dec-14 10:31N 31°37' E 121°17'669114618.8
2014-Dec-14 10:31N 22°54' E 113°29'6671200313.1
2014-Dec-14 10:31N 31°47' E 121°01'48441.3
2014-Dec-14 10:25N 31°05' E 121°28'3968010.6
2014-Dec-14 10:22N 24°52' E 118°57'31810047.6
2014-Dec-14 10:20N 23°04' E 113°30'0 0.6
2014-Dec-14 10:03N 23°04' E 113°29'6601284.7
2014-Dec-14 09:33N 31°43' E 121°08'447134020.3
2014-Dec-14 09:32N 24°40' E 118°27'28833454.1
2014-Dec-14 09:32N 23°05' E 113°29'1160.1
2014-Dec-14 09:32N 23°04' E 113°30'660182894.6
2014-Dec-14 09:31N 31°37' E 121°17'332917.7
2014-Dec-14 09:31N 31°05' E 121°28'3266941.1
2014-Dec-14 09:28N 25°58' E 119°26'7028134.1
2014-Dec-14 09:28N 24°52' E 118°57'31927980.4
2014-Dec-14 09:27N 23°04' E 113°29'66237226.6
2014-Dec-14 09:26N 32°02' E 120°44'66539269.9
2014-Dec-14 09:25N 22°55' E 113°36'643749.3
2014-Dec-14 08:33N 31°58' E 120°06'63225113.3
2014-Dec-14 08:33N 31°38' E 121°16'425191119.0
2014-Dec-14 08:33N 24°51' E 118°60'320127916.4
2014-Dec-14 08:33N 23°03' E 113°30'1397.1
2014-Dec-14 08:33N 23°04' E 113°30'66039626.6
2014-Dec-14 08:32N 31°37' E 121°17'331660.9
2014-Dec-14 08:31N 31°05' E 121°28'3266780.6
2014-Dec-14 08:28N 25°58' E 119°26'368662533.1
2014-Dec-14 08:28N 23°05' E 113°29'28832415.6
2014-Dec-14 08:27N 24°40' E 118°27'28864910.1
2014-Dec-14 08:27N 23°04' E 113°29'41179.8
2014-Dec-14 08:13N 22°28' E 113°49'662986.1
2014-Dec-14 07:33N 31°58' E 120°06'6916589.4
2014-Dec-14 07:33N 31°32' E 121°21'67827424.4
2014-Dec-14 07:31N 22°28' E 113°49'66167947.6
2014-Dec-14 07:31N 31°05' E 121°28'41883577.0
2014-Dec-14 07:30N 24°40' E 118°27'44430748.6
2014-Dec-14 07:30N 31°37' E 121°17'66025564.1
2014-Dec-14 07:28N 23°04' E 113°30'36894626.8
2014-Dec-14 07:28N 25°58' E 119°26'36927074.9
2014-Dec-14 07:27N 23°04' E 113°29'66215674.5
2014-Dec-14 07:24N 32°02' E 120°44'66276832.4
2014-Dec-14 07:24N 23°04' E 113°30'583939.2
2014-Dec-14 07:23N 22°19' E 114°09'65579.1
2014-Dec-14 07:16N 23°03' E 113°17'11264.2
2014-Dec-14 07:14N 23°05' E 113°29'44396.5
2014-Dec-14 07:07N 22°27' E 113°52'1831.6
2014-Dec-14 06:33N 22°19' E 114°10'66035465.3
2014-Dec-14 06:32N 31°58' E 120°06'638328362.5
2014-Dec-14 06:32N 23°05' E 113°29'659395380.9
2014-Dec-14 06:32N 31°28' E 121°28'231424.9
2014-Dec-14 06:31N 31°05' E 121°28'66285067.1
2014-Dec-14 06:30N 22°27' E 113°48'68137700.5
2014-Dec-14 06:29N 31°37' E 121°17'66032123.8
2014-Dec-14 06:28N 23°04' E 113°30'36888318.4
2014-Dec-14 06:28N 25°58' E 119°26'37118041.7
2014-Dec-14 06:27N 32°02' E 120°43'25619.9
2014-Dec-14 06:24N 31°57' E 120°14'642231177.4
2014-Dec-14 06:24N 23°04' E 113°30'2863075.3
2014-Dec-14 06:18N 24°33' E 118°27'2972227.4
2014-Dec-14 06:10N 23°03' E 113°17'6451053.8
2014-Dec-14 05:34N 31°58' E 120°06'64542193.1
2014-Dec-14 05:33N 23°02' E 113°21'289346819.4
2014-Dec-14 05:33N 24°30' E 118°22'44461517.5
2014-Dec-14 05:32N 31°22' E 121°30'7111052.5
2014-Dec-14 05:32N 31°58' E 120°19'36429758.4
2014-Dec-14 05:31N 25°58' E 119°26'32618329.7
2014-Dec-14 05:30N 31°05' E 121°28'64319610.8
2014-Dec-14 05:28N 23°04' E 113°30'660237677.5
2014-Dec-14 05:28N 31°37' E 121°17'6649332.5
2014-Dec-14 05:24N 22°58' E 113°32'66524947.2
2014-Dec-14 05:22N 32°02' E 120°43'66236641.1
2014-Dec-14 05:21N 23°04' E 113°30'1163.5
2014-Dec-14 05:10N 23°03' E 113°17'4675.6
2014-Dec-14 04:33N 22°27' E 113°48'673403609.5
2014-Dec-14 04:33N 32°00' E 120°23'65068853.4
2014-Dec-14 04:33N 23°05' E 113°27'655196642.2
2014-Dec-14 04:33N 31°17' E 121°34'44328000.3
2014-Dec-14 04:32N 24°30' E 118°14'27410843.8
2014-Dec-14 04:30N 23°04' E 113°30'643462959.8
2014-Dec-14 04:30N 31°05' E 121°28'33759.1
2014-Dec-14 04:27N 31°37' E 121°18'391060.0
2014-Dec-14 04:25N 32°02' E 120°43'66622403.1
2014-Dec-14 04:23N 22°55' E 113°36'1160.6
2014-Dec-14 04:13N 23°04' E 113°30'0 0.1
2014-Dec-14 03:33N 23°04' E 113°30'643462845.6
2014-Dec-14 03:33N 31°05' E 121°28'89199.4
2014-Dec-14 03:33N 31°13' E 121°30'44773077.8
2014-Dec-14 03:33N 24°23' E 118°11'46557705.3
2014-Dec-14 03:32N 31°37' E 121°18'4919614.9
2014-Dec-14 03:32N 32°02' E 120°28'20171.3
2014-Dec-14 03:25N 31°58' E 120°06'64511335.1
2014-Dec-14 03:22N 23°03' E 113°17'66837020.4
2014-Dec-14 03:21N 32°02' E 120°44'66217641.4
2014-Dec-14 03:18N 23°04' E 113°30'6359604.9
2014-Dec-14 03:14N 31°10' E 121°09'655956.2
2014-Dec-14 02:33N 22°27' E 113°48'4116443.5
2014-Dec-14 02:33N 23°04' E 113°30'6432314228.2
2014-Dec-14 02:33N 31°05' E 121°28'643165374.9
2014-Dec-14 02:33N 23°04' E 113°29'6452321437.5
2014-Dec-14 02:33N 31°08' E 121°28'449124266.9
2014-Dec-14 02:33N 24°15' E 118°09'4835818.2
2014-Dec-14 02:28N 32°01' E 120°35'66215780.9
2014-Dec-14 02:25N 23°02' E 113°22'3335053.8
2014-Dec-14 02:21N 24°45' E 119°08'3251312.0
2014-Dec-14 02:06N 23°04' E 113°30'6631205.7
2014-Dec-14 01:33N 32°01' E 120°48'6632386042.1
2014-Dec-14 01:33N 23°04' E 113°30'641768786.7
2014-Dec-14 01:33N 31°02' E 121°29'6591186915.7
2014-Dec-14 01:33N 22°27' E 113°48'4121147.2
2014-Dec-14 01:33N 23°04' E 113°30'066.2
2014-Dec-14 01:33N 23°04' E 113°29'260155745.5
2014-Dec-14 01:33N 24°11' E 118°03'4798379.5
2014-Dec-14 01:29N 31°40' E 121°13'43012697.2
2014-Dec-14 01:27N 24°44' E 119°08'44415079.8
2014-Dec-14 01:25N 32°00' E 120°41'70841.8
2014-Dec-14 01:20N 31°03' E 121°28'820494053.0
2014-Dec-14 01:15S 01°48' W 101°22'8335136394.6
2014-Dec-14 01:12N 25°58' E 119°26'3659116.1
2014-Dec-14 01:09N 31°59' E 120°20'602057.0
2014-Dec-14 01:07N 31°16' E 121°09'17301.2
2014-Dec-14 01:04N 30°59' E 121°08'1835.1
2014-Dec-14 00:33N 31°05' E 121°28'203401.1
2014-Dec-14 00:33N 31°17' E 121°09'484240.0
2014-Dec-14 00:32N 32°01' E 120°47'161.8
2014-Dec-14 00:31N 31°60' E 120°47'497105345.0
2014-Dec-14 00:31N 24°05' E 117°58'25319837.5
2014-Dec-14 00:30N 22°60' E 113°31'5212.0
2014-Dec-14 00:29N 23°04' E 113°29'1 8.8
2014-Dec-14 00:24N 23°04' E 113°30'3256601.4
2014-Dec-14 00:21N 24°44' E 119°07'38911674.0
2014-Dec-14 00:19N 30°57' E 121°11'628822.7
2014-Dec-13 23:33N 23°04' E 113°26'644773386.3
2014-Dec-13 23:33N 31°05' E 121°28'6431156846.0
2014-Dec-13 23:33N 23°04' E 113°30'6621191373.4
2014-Dec-13 23:33N 31°57' E 120°52'443797685.6
2014-Dec-13 23:33N 24°44' E 119°07'44537238.8
2014-Dec-13 23:32N 31°60' E 120°47'673380.5
2014-Dec-13 23:31N 30°57' E 121°13'63520791.6
2014-Dec-13 23:29N 22°53' E 113°31'6631975.3
2014-Dec-13 23:09N 32°02' E 120°30'1279.7
2014-Dec-13 23:09N 32°01' E 120°32'73123.2
2014-Dec-13 22:34N 30°58' E 121°14'7318747.4
2014-Dec-13 22:33N 32°01' E 120°32'66712132.1
2014-Dec-13 22:30N 22°54' E 113°21'66923835.6
2014-Dec-13 22:28N 32°01' E 120°34'66330588.1
2014-Dec-13 22:27N 23°03' E 113°17'11115.1
2014-Dec-13 22:21N 23°04' E 113°30'2431430.6
2014-Dec-13 22:11N 23°55' E 117°48'462737.7
2014-Dec-13 21:33N 30°58' E 121°18'759335.6
2014-Dec-13 21:33N 32°02' E 120°31'510262156.8
2014-Dec-13 21:33N 23°53' E 117°46'51297054.4
2014-Dec-13 21:32N 31°60' E 120°47'6614741.8
2014-Dec-13 21:24N 23°04' E 113°30'41729.3
2014-Dec-13 21:21N 22°27' E 113°48'2288.6
2014-Dec-13 21:06N 22°10' E 113°32'251063.6
2014-Dec-13 21:04N 22°26' E 113°53'6721316.2
2014-Dec-13 20:34N 32°01' E 120°25'674485583.2
2014-Dec-13 20:33N 22°27' E 113°48'650780305.2
2014-Dec-13 20:33N 30°58' E 121°18'469422193.4
2014-Dec-13 20:33N 23°50' E 117°41'51643227.8
2014-Dec-13 20:33N 31°60' E 120°47'25241.3
2014-Dec-13 20:26N 31°43' E 121°08'65917717.9
2014-Dec-13 20:24N 23°04' E 113°30'232274.4
2014-Dec-13 19:33N 23°44' E 117°39'514462941.2
2014-Dec-13 19:33N 31°58' E 120°20'7827984.3
2014-Dec-13 19:33N 30°58' E 121°18'631324663.8
2014-Dec-13 19:33N 23°04' E 113°30'66091354.0
2014-Dec-13 19:33N 31°39' E 121°14'70213523.6
2014-Dec-13 19:30N 22°10' E 113°32'3653973.8
2014-Dec-13 19:24N 22°45' E 120°05'52910292.0
2014-Dec-13 19:21N 31°26' E 121°45'7999.5
2014-Dec-13 18:33N 31°58' E 120°20'78139711.8
2014-Dec-13 18:33N 30°58' E 121°18'481173075.0
2014-Dec-13 18:33N 23°40' E 117°35'107192366.4
2014-Dec-13 18:33N 24°50' E 119°03'323165898.1
2014-Dec-13 18:33N 23°04' E 113°30'659263747.1
2014-Dec-13 18:33N 31°35' E 121°19'29102759.1
2014-Dec-13 18:33N 31°20' E 121°48'527316288.5
2014-Dec-13 18:33N 22°40' E 120°11'3541420.7
2014-Dec-13 18:18N 22°27' E 113°48'223831.6
2014-Dec-13 18:18N 22°10' E 113°32'376512.1
2014-Dec-13 17:34N 22°36' E 120°17'5621011336.1
2014-Dec-13 17:34N 31°58' E 120°20'7839917.7
2014-Dec-13 17:33N 30°58' E 121°18'3013565.1
2014-Dec-13 17:33N 31°16' E 121°46'661297458.5
2014-Dec-13 17:33N 23°04' E 113°30'32127519.1
2014-Dec-13 17:32N 24°43' E 119°04'3204679.5
2014-Dec-13 17:28N 22°27' E 113°48'22144.3
2014-Dec-13 17:19N 22°10' E 113°32'7053502.1
2014-Dec-13 17:07N 31°60' E 120°47'2340.5
2014-Dec-13 16:34N 31°58' E 120°20'9120549.8
2014-Dec-13 16:33N 31°11' E 121°52'6797040.6
2014-Dec-13 16:27N 22°27' E 113°48'30443.6
2014-Dec-13 16:23N 22°53' E 113°31'66741420.0
2014-Dec-13 16:22N 31°28' E 121°28'82911.5
2014-Dec-13 16:17N 32°00' E 119°59'66223131.4
2014-Dec-13 16:15N 22°27' E 113°48'41786.6
2014-Dec-13 16:12N 23°04' E 113°30'5484.1
2014-Dec-13 15:33N 22°10' E 113°36'6702412131.7
2014-Dec-13 15:33N 30°58' E 121°18'358474.5
2014-Dec-13 15:33N 31°07' E 121°58'9725059.6
2014-Dec-13 15:33N 31°58' E 120°20'161335.3
2014-Dec-13 15:32N 31°58' E 120°02'912776.0
2014-Dec-13 15:30N 31°05' E 121°28'65012924.7
2014-Dec-13 15:27N 22°52' E 113°33'2913200.1
2014-Dec-13 15:27N 22°27' E 113°48'412063.5
2014-Dec-13 15:26N 23°04' E 113°29'6617237.8
2014-Dec-13 15:20N 31°60' E 120°47'6733139.7
2014-Dec-13 15:08N 22°54' E 113°22'37519.0
2014-Dec-13 15:03N 22°27' E 113°48'6501304.5
2014-Dec-13 14:33N 30°58' E 121°18'78139695.1
2014-Dec-13 14:33N 31°58' E 120°20'65729927.1
2014-Dec-13 14:32N 22°55' E 113°25'66792407.8
2014-Dec-13 14:32N 31°23' E 121°30'18831.4
2014-Dec-13 14:30N 31°05' E 121°28'65862350.1
2014-Dec-13 14:30N 22°53' E 113°17'151211.7
2014-Dec-13 14:29N 23°04' E 113°29'1040.8
2014-Dec-13 14:14N 23°03' E 113°18'64612561.5
2014-Dec-13 14:11N 31°57' E 120°08'85136.3
2014-Dec-13 13:33N 31°05' E 121°28'112236.0
2014-Dec-13 13:33N 30°58' E 121°18'8113837.0
2014-Dec-13 13:33N 31°56' E 120°12'64661166.7
2014-Dec-13 13:32N 23°02' E 113°23'651137960.2
2014-Dec-13 13:32N 31°58' E 120°20'66919590.6
2014-Dec-13 13:30N 22°27' E 113°48'412979.6
2014-Dec-13 13:29N 23°04' E 113°29'41289.3
2014-Dec-13 13:20N 22°27' E 113°48'6834007.0
2014-Dec-13 13:10N 31°60' E 120°47'2337.0
2014-Dec-13 12:34N 31°58' E 120°20'78279706.6
2014-Dec-13 12:33N 30°58' E 121°18'6511172541.9
2014-Dec-13 12:33N 22°26' E 113°47'6632385504.7
2014-Dec-13 12:33N 31°05' E 121°28'643115774.0
2014-Dec-13 12:33N 23°05' E 113°28'31811918.3
2014-Dec-13 12:32N 24°53' E 118°55'42913186.1
2014-Dec-13 12:30N 31°56' E 120°14'64262440.1
2014-Dec-13 12:29N 23°04' E 113°29'6506839.3
2014-Dec-13 12:23N 31°13' E 121°30'60738.4
2014-Dec-13 12:18N 31°60' E 120°47'3691713.5
2014-Dec-13 12:05N 25°58' E 119°26'326611.5
2014-Dec-13 11:33N 31°05' E 121°28'85895.1
2014-Dec-13 11:33N 30°59' E 121°22'8071611.2
2014-Dec-13 11:33N 31°58' E 120°19'43123171.1
2014-Dec-13 11:32N 24°53' E 118°55'317142660.7
2014-Dec-13 11:32N 22°59' E 113°31'64893247.2
2014-Dec-13 11:32N 31°09' E 121°27'67140289.7
2014-Dec-13 11:31N 22°21' E 113°43'451563.9
2014-Dec-13 11:29N 23°04' E 113°29'64215505.4
2014-Dec-13 11:26N 31°56' E 120°14'3607209.2
2014-Dec-13 11:23N 25°58' E 119°26'3691580.8
2014-Dec-13 11:09N 31°60' E 120°47'69113.9
2014-Dec-13 10:33N 31°01' E 121°27'669150627.4
2014-Dec-13 10:33N 22°15' E 113°43'32621762.0
2014-Dec-13 10:32N 24°53' E 118°55'39614411.5
2014-Dec-13 10:31N 31°05' E 121°28'32617773.0
2014-Dec-13 10:29N 25°58' E 119°26'36844210.9
2014-Dec-13 10:29N 23°04' E 113°29'4935631.0
2014-Dec-13 10:29N 22°15' E 113°39'371097.4
2014-Dec-13 10:27N 22°52' E 113°34'6496041.2
2014-Dec-13 10:20N 31°56' E 120°14'6696726.7
2014-Dec-13 10:14N 22°23' E 113°45'372941.0
2014-Dec-13 10:14N 22°55' E 113°25'6518945.1
2014-Dec-13 10:09N 31°02' E 121°29'681051.6
2014-Dec-13 10:05N 31°60' E 120°47'438798.5
2014-Dec-13 09:33N 24°53' E 118°55'320144105.4
2014-Dec-13 09:32N 22°54' E 113°30'65043332.3
2014-Dec-13 09:31N 31°04' E 121°28'68197994.8
2014-Dec-13 09:31N 22°11' E 113°35'41328.9
2014-Dec-13 09:31N 22°12' E 113°39'679143725.4
2014-Dec-13 09:31N 31°05' E 121°28'803810.3
2014-Dec-13 09:29N 31°56' E 120°14'64211380.5
2014-Dec-13 09:26N 23°04' E 113°29'3688901.6
2014-Dec-13 09:23N 25°58' E 119°26'39220175.3
2014-Dec-13 09:22N 22°10' E 113°37'3344476.5
2014-Dec-13 09:18N 24°53' E 118°55'3253161.6
2014-Dec-13 09:12N 22°17' E 113°44'38358.2
2014-Dec-13 09:05N 22°47' E 113°18'6641257.5
2014-Dec-13 08:34N 31°09' E 121°27'32934827.8
2014-Dec-13 08:33N 25°58' E 119°26'386115892.0
2014-Dec-13 08:33N 22°13' E 113°42'6721210468.7
2014-Dec-13 08:33N 31°01' E 121°28'39242799.8
2014-Dec-13 08:32N 24°52' E 118°58'33814490.6
2014-Dec-13 08:31N 22°11' E 113°34'116.9
2014-Dec-13 08:28N 22°12' E 113°34'531570.2
2014-Dec-13 08:26N 23°04' E 113°29'642330037.7
2014-Dec-13 08:26N 31°56' E 120°14'6873061.2
2014-Dec-13 08:12N 22°10' E 113°31'36650.8
2014-Dec-13 08:09N 22°45' E 113°24'6661111.9
2014-Dec-13 07:33N 31°12' E 121°29'2863.2
2014-Dec-13 07:33N 31°13' E 121°30'775166.5
2014-Dec-13 07:32N 31°56' E 120°14'68417345.0
2014-Dec-13 07:30N 22°11' E 113°35'69912390.4
2014-Dec-13 07:26N 32°01' E 120°35'65790939.3
2014-Dec-13 07:26N 23°04' E 113°29'32928236.3
2014-Dec-13 07:25N 24°52' E 119°10'3351811.8
2014-Dec-13 07:14N 22°45' E 113°31'665948.9
2014-Dec-13 06:32N 31°15' E 121°30'690155153.4
2014-Dec-13 06:32N 22°12' E 113°34'390.2
2014-Dec-13 06:30N 22°11' E 113°32'327.3
2014-Dec-13 06:24N 22°11' E 113°35'3475601.4
2014-Dec-13 06:20N 24°52' E 119°10'3323630.5
2014-Dec-13 06:15N 22°23' E 113°46'443353.0
2014-Dec-13 06:14N 23°04' E 113°29'6543627.7
2014-Dec-13 06:03N 32°03' E 120°26'74150.0
2014-Dec-13 05:33N 31°17' E 121°34'759272.2
2014-Dec-13 05:33N 32°02' E 120°24'43532608.0
2014-Dec-13 05:32N 24°52' E 119°11'4087618.8
2014-Dec-13 05:29N 31°20' E 121°33'6572364446.1
2014-Dec-13 05:29N 23°04' E 113°29'5017867.3
2014-Dec-13 05:29N 22°18' E 113°48'1449.4
2014-Dec-13 05:12N 22°11' E 113°35'6981257158.9
2014-Dec-13 05:12N 31°27' E 121°30'4 5.6
2014-Dec-13 04:33N 31°23' E 121°30'54313385.0
2014-Dec-13 04:30N 23°20' E 116°51'54120519.9
2014-Dec-13 04:29N 31°20' E 121°33'741680.9
2014-Dec-13 04:26N 31°57' E 120°18'645122171.5
2014-Dec-13 04:26N 23°04' E 113°29'53527.3
2014-Dec-13 04:20N 22°11' E 113°35'17257.4
2014-Dec-13 04:16N 22°12' E 113°54'51323.2
2014-Dec-13 04:06N 22°54' E 113°22'189343.5
2014-Dec-13 03:33N 23°19' E 116°46'54893929.4
2014-Dec-13 03:33N 31°26' E 121°29'668100258.4
2014-Dec-13 03:33N 22°55' E 113°25'666114131.1
2014-Dec-13 03:32N 31°21' E 121°30'761647.3
2014-Dec-13 03:30N 31°56' E 120°11'64065851.6
2014-Dec-13 03:29N 23°04' E 113°29'53623.1
2014-Dec-13 03:24N 22°11' E 113°35'698824.4
2014-Dec-13 02:33N 31°30' E 121°24'91275.8
2014-Dec-13 02:33N 31°24' E 121°31'54976042.3
2014-Dec-13 02:32N 23°21' E 116°35'18114840.4
2014-Dec-13 02:32N 23°03' E 113°19'15730.3
2014-Dec-13 02:30N 22°53' E 113°31'11480.9
2014-Dec-13 02:29N 23°04' E 113°29'53613.0
2014-Dec-13 02:24N 22°11' E 113°35'6857660.3
2014-Dec-13 02:18N 31°57' E 120°15'9116.3
2014-Dec-13 02:14N 31°57' E 120°04'68150000.2
2014-Dec-13 02:13N 22°12' E 113°34'7005022.8
2014-Dec-13 02:04N 31°53' E 120°53'3057.7
2014-Dec-13 01:34N 31°33' E 121°19'660198049.9
2014-Dec-13 01:33N 23°01' E 113°31'16442282.0
2014-Dec-13 01:33N 23°27' E 116°28'5498346.7
2014-Dec-13 01:29N 31°28' E 121°27'659197636.6
2014-Dec-13 01:29N 23°04' E 113°29'6622382949.4
2014-Dec-13 01:29N 31°57' E 120°51'7032873.0
2014-Dec-13 01:14N 22°12' E 113°35'0 3.0
2014-Dec-13 01:05N 22°11' E 113°35'6981321.8
2014-Dec-13 00:34N 31°31' E 121°22'658473973.0
2014-Dec-13 00:33N 23°04' E 113°29'659148360.6
2014-Dec-13 00:33N 31°38' E 121°15'521026.3
2014-Dec-13 00:30N 31°58' E 120°17'64533170.8
2014-Dec-13 00:29N 23°04' E 113°29'53431.3
2014-Dec-13 00:22N 22°11' E 113°35'6804030.1
2014-Dec-13 00:11N 31°03' E 121°28'80125.3
2014-Dec-12 23:33N 31°60' E 120°23'4431418.2
2014-Dec-12 23:33N 31°41' E 121°10'659395591.6
2014-Dec-12 23:33N 23°04' E 113°29'531064.3
2014-Dec-12 23:30N 22°11' E 113°35'532932.8
2014-Dec-12 23:29N 23°04' E 113°29'65915510.9
2014-Dec-12 23:26N 31°36' E 121°17'769410.3
2014-Dec-12 23:26N 32°05' E 119°55'8496.4
2014-Dec-12 22:33N 31°30' E 121°25'660296886.7
2014-Dec-12 22:33N 23°04' E 113°29'655168300.2
2014-Dec-12 22:33N 32°02' E 120°29'447269.7
2014-Dec-12 22:33N 31°39' E 121°13'8303.9
2014-Dec-12 22:31N 31°43' E 121°06'69930685.3
2014-Dec-12 22:30N 22°11' E 113°36'53820.1
2014-Dec-12 22:26N 23°04' E 113°29'0 0.5
2014-Dec-12 21:33N 23°04' E 113°30'65981804.4
2014-Dec-12 21:33N 31°26' E 121°30'2623752.9
2014-Dec-12 21:33N 31°43' E 121°06'698359168.2
2014-Dec-12 21:33N 22°10' E 113°38'69869758.2
2014-Dec-12 21:32N 32°01' E 120°35'356700.9
2014-Dec-12 21:32N 31°41' E 121°10'69623633.5
2014-Dec-12 21:30N 22°13' E 113°40'694124863.0
2014-Dec-12 21:30N 32°04' E 120°27'3526335.7
2014-Dec-12 21:26N 37°49' E 121°50'985141842.6
2014-Dec-12 21:26N 23°04' E 113°29'6632039.6
2014-Dec-12 21:06N 32°01' E 120°48'6951254.9
2014-Dec-12 20:33N 22°17' E 113°44'69271212.9
2014-Dec-12 20:33N 32°01' E 120°42'277040.5
2014-Dec-12 20:32N 31°43' E 121°07'117.6
2014-Dec-12 20:30N 31°43' E 121°06'193504.0
2014-Dec-12 20:29N 31°58' E 120°51'252025.1
2014-Dec-12 20:29N 31°59' E 120°21'64814059.5
2014-Dec-12 20:26N 23°04' E 113°29'534410.6
2014-Dec-12 20:25N 22°12' E 113°35'10269769.8
2014-Dec-12 20:19N 37°42' E 121°53'10144521.4
2014-Dec-12 20:05N 22°20' E 113°47'492048.1
2014-Dec-12 20:04N 23°02' E 113°21'2 4.5
2014-Dec-12 19:33N 23°02' E 113°23'44157715.0
2014-Dec-12 19:33N 22°23' E 113°45'44156893.8
2014-Dec-12 19:33N 23°04' E 113°30'659124843.7
2014-Dec-12 19:33N 31°45' E 121°04'35417472.9
2014-Dec-12 19:32N 37°37' E 121°55'35622886.7
2014-Dec-12 19:31N 31°43' E 121°06'65920105.6
2014-Dec-12 19:29N 23°04' E 113°29'53862.2
2014-Dec-12 19:25N 22°12' E 113°35'45261.1
2014-Dec-12 19:15N 22°53' E 113°17'1622.8
2014-Dec-12 18:33N 23°04' E 113°30'3847.5
2014-Dec-12 18:33N 23°05' E 113°27'660296796.2
2014-Dec-12 18:33N 31°43' E 121°06'68863537.7
2014-Dec-12 18:32N 22°16' E 113°49'100815242.2
2014-Dec-12 18:28N 37°30' E 121°57'97123461.5
2014-Dec-12 18:26N 23°04' E 113°29'534994.4
2014-Dec-12 18:25N 22°12' E 113°35'70343624.6
2014-Dec-12 18:24N 32°01' E 120°44'6813434.8
2014-Dec-12 18:12N 22°29' E 113°49'29658.7
2014-Dec-12 18:10N 22°19' E 113°19'36748.2
2014-Dec-12 18:07N 22°55' E 113°26'67012893.5
2014-Dec-12 18:04N 31°40' E 121°13'6601306.1
2014-Dec-12 17:33N 23°04' E 113°30'659118557.9
2014-Dec-12 17:33N 31°46' E 121°03'667300160.5
2014-Dec-12 17:33N 22°53' E 113°30'426236.2
2014-Dec-12 17:33N 22°13' E 113°42'694227168.0
2014-Dec-12 17:32N 31°51' E 120°53'65811392.6
2014-Dec-12 17:29N 23°04' E 113°29'532448.4
2014-Dec-12 17:28N 22°12' E 113°38'522363.0
2014-Dec-12 17:26N 23°03' E 113°32'66119992.7
2014-Dec-12 17:24N 32°01' E 120°44'6806478.0
2014-Dec-12 17:18N 22°29' E 113°51'4054.2
2014-Dec-12 16:33N 23°04' E 113°30'543499.7
2014-Dec-12 16:33N 22°10' E 113°36'69767863.5
2014-Dec-12 16:32N 31°47' E 120°56'117625.0
2014-Dec-12 16:32N 31°57' E 120°52'25394.3
2014-Dec-12 16:28N 31°40' E 121°13'66019017.3
2014-Dec-12 16:26N 23°04' E 113°29'6625651.3
2014-Dec-12 16:19N 32°01' E 120°47'6817663.7
2014-Dec-12 16:14N 22°29' E 113°51'4060.3
2014-Dec-12 15:33N 23°04' E 113°30'66016971.7
2014-Dec-12 15:31N 31°40' E 121°13'302059.1
2014-Dec-12 15:30N 32°00' E 120°47'9917.5
2014-Dec-12 15:30N 31°52' E 120°53'65957855.6
2014-Dec-12 15:29N 23°04' E 113°29'43328.0
2014-Dec-12 15:21N 22°28' E 113°54'1288.3
2014-Dec-12 15:13N 22°20' E 113°44'6911047.9
2014-Dec-12 14:34N 31°58' E 120°51'66255443.2
2014-Dec-12 14:33N 23°03' E 113°30'42991.7
2014-Dec-12 14:30N 22°24' E 113°45'68519264.9
2014-Dec-12 14:28N 31°40' E 121°13'66018008.4
2014-Dec-12 14:26N 23°04' E 113°29'6586365.8
2014-Dec-12 14:20N 31°60' E 120°40'5 6.9
2014-Dec-12 13:33N 32°00' E 120°46'931937.8
2014-Dec-12 13:33N 32°01' E 120°36'66366294.5
2014-Dec-12 13:32N 22°56' E 113°30'8137.5
2014-Dec-12 13:29N 23°04' E 113°29'59549.5
2014-Dec-12 13:23N 22°18' E 114°09'677828.3
2014-Dec-12 12:33N 32°04' E 120°32'8535.1
2014-Dec-12 12:33N 31°60' E 120°39'351781.1
2014-Dec-12 12:31N 31°40' E 121°13'66015847.5
2014-Dec-12 12:29N 23°04' E 113°29'592930.5
2014-Dec-12 12:28N 22°18' E 114°09'17136.9
2014-Dec-12 12:20N 22°27' E 113°53'676864.5
2014-Dec-12 11:33N 32°04' E 120°28'64251.0
2014-Dec-12 11:33N 32°02' E 120°35'401323.2
2014-Dec-12 11:31N 31°40' E 121°13'6607117.1
2014-Dec-12 11:26N 23°04' E 113°29'6598242.6
2014-Dec-12 11:21N 31°52' E 120°54'2733.4
2014-Dec-12 10:33N 32°02' E 120°25'52343.4
2014-Dec-12 10:33N 32°04' E 120°30'69385975.6
2014-Dec-12 10:33N 22°10' E 113°50'69326546.2
2014-Dec-12 10:31N 31°40' E 121°13'68033524.4
2014-Dec-12 10:30N 22°27' E 113°49'412503.0
2014-Dec-12 10:29N 23°04' E 113°29'6411912.7
2014-Dec-12 10:09N 31°01' E 121°29'81137.9
2014-Dec-12 09:33N 32°05' E 120°29'68960536.0
2014-Dec-12 09:33N 22°15' E 113°48'68242346.2
2014-Dec-12 09:32N 32°00' E 120°22'64913827.9
2014-Dec-12 09:29N 23°04' E 113°29'6607893.5
2014-Dec-12 09:24N 31°46' E 121°04'680306018.4
2014-Dec-12 09:24N 22°27' E 113°49'68028794.3
2014-Dec-12 09:22N 31°40' E 121°13'67718198.4
2014-Dec-12 09:20N 22°28' E 113°53'676867.4
2014-Dec-12 08:33N 32°05' E 120°29'121026.7
2014-Dec-12 08:33N 31°57' E 120°18'466922.8
2014-Dec-12 08:32N 31°42' E 121°09'453039.4
2014-Dec-12 08:31N 30°58' E 121°18'63215467.2
2014-Dec-12 08:29N 23°04' E 113°29'6602909.7
2014-Dec-12 08:15N 31°40' E 121°13'49679.8
2014-Dec-12 08:11N 31°58' E 120°20'1116.9
2014-Dec-12 07:33N 32°05' E 120°29'172835.4
2014-Dec-12 07:33N 31°56' E 120°12'9151.1
2014-Dec-12 07:29N 31°58' E 120°22'64880426.5
2014-Dec-12 07:29N 23°04' E 113°29'414012.5
2014-Dec-12 07:28N 22°27' E 113°49'6805065.6
2014-Dec-12 07:20N 31°40' E 121°13'4557.2
2014-Dec-12 06:33N 32°05' E 120°29'171872.9
2014-Dec-12 06:33N 31°57' E 120°11'650167199.0
2014-Dec-12 06:33N 22°55' E 113°27'659296630.3
2014-Dec-12 06:32N 31°59' E 120°26'18732.8
2014-Dec-12 06:31N 31°57' E 120°05'63818381.8
2014-Dec-12 06:29N 23°04' E 113°29'66014952.5
2014-Dec-12 06:26N 31°40' E 121°13'68010068.9
2014-Dec-12 06:22N 22°27' E 113°49'2076.1
2014-Dec-12 06:06N 22°19' E 114°09'6651217.2
2014-Dec-12 05:33N 31°58' E 120°17'1222244.0
2014-Dec-12 05:33N 32°05' E 120°29'69969903.5
2014-Dec-12 05:33N 22°20' E 113°19'693103958.5
2014-Dec-12 05:32N 31°59' E 120°27'4419893.9
2014-Dec-12 05:32N 31°40' E 121°13'68058309.6
2014-Dec-12 05:32N 22°27' E 113°48'66115055.3
2014-Dec-12 05:29N 31°59' E 119°59'63712679.4
2014-Dec-12 05:26N 23°04' E 113°29'41653.6
2014-Dec-12 05:22N 22°27' E 113°49'4317194.9
2014-Dec-12 05:22N 23°02' E 113°22'6653104.4
2014-Dec-12 05:09N 31°26' E 121°29'64107.4
2014-Dec-12 04:34N 32°05' E 120°29'71037.2
2014-Dec-12 04:33N 32°00' E 120°23'3543.5
2014-Dec-12 04:33N 31°59' E 120°27'65150938.2
2014-Dec-12 04:32N 23°05' E 113°27'350.0
2014-Dec-12 04:28N 23°03' E 113°30'6608903.7
2014-Dec-12 04:24N 31°24' E 121°34'233509.8
2014-Dec-12 04:23N 31°40' E 121°13'6606255.7
2014-Dec-12 04:17N 23°04' E 113°29'59419.2
2014-Dec-12 04:09N 22°18' E 114°09'21247.9
2014-Dec-12 04:03N 22°27' E 113°48'4284.3
2014-Dec-12 03:33N 23°03' E 113°25'660158303.7
2014-Dec-12 03:33N 32°05' E 120°29'65650268.8
2014-Dec-12 03:32N 23°04' E 113°30'660198021.6
2014-Dec-12 03:32N 31°40' E 121°13'564156065.2
2014-Dec-12 03:32N 23°08' E 116°47'56565647.3
2014-Dec-12 03:32N 31°59' E 120°27'21641.4
2014-Dec-12 03:30N 31°59' E 120°01'905969.0
2014-Dec-12 03:29N 31°22' E 121°37'665133036.6
2014-Dec-12 03:28N 23°06' E 113°18'493432.5
2014-Dec-12 03:27N 22°27' E 113°48'41889.1
2014-Dec-12 03:25N 23°04' E 113°29'411041.6
2014-Dec-12 03:22N 22°27' E 113°49'1 1.0
2014-Dec-12 02:33N 22°27' E 113°48'673605529.5
2014-Dec-12 02:33N 31°59' E 120°27'65041807.5
2014-Dec-12 02:32N 23°04' E 113°30'660198022.9
2014-Dec-12 02:32N 31°40' E 121°13'3013705.3
2014-Dec-12 02:32N 31°20' E 121°40'8935557.0
2014-Dec-12 02:32N 31°58' E 120°06'66110974.2
2014-Dec-12 02:28N 22°27' E 113°49'492344.8
2014-Dec-12 02:27N 23°06' E 113°18'19837566.7
2014-Dec-12 02:27N 23°13' E 116°53'1871147.2
2014-Dec-12 02:17N 23°04' E 113°30'1164.3
2014-Dec-12 02:06N 22°54' E 113°34'6631207.3
2014-Dec-12 01:33N 32°05' E 120°29'174845.1
2014-Dec-12 01:33N 31°57' E 120°11'645464178.7
2014-Dec-12 01:33N 23°06' E 113°18'66521960.1
2014-Dec-12 01:31N 31°40' E 121°13'66021029.1
2014-Dec-12 01:29N 23°04' E 113°30'41271.2
2014-Dec-12 01:20N 22°27' E 113°49'41724.9
2014-Dec-12 01:17N 23°04' E 113°30'644889.5
2014-Dec-12 00:34N 31°58' E 120°17'83678.4
2014-Dec-12 00:33N 31°59' E 120°27'441293.8
2014-Dec-12 00:31N 31°40' E 121°13'68027489.7
2014-Dec-12 00:30N 22°27' E 113°49'412843.7
2014-Dec-12 00:29N 23°04' E 113°30'20247.2
2014-Dec-12 00:24N 22°46' E 113°38'67325776.0
2014-Dec-12 00:23N 32°01' E 120°48'6672896.1
2014-Dec-12 00:09N 23°06' E 113°18'11201.5
2014-Dec-12 00:05N 23°04' E 113°30'1223.1
2014-Dec-11 23:33N 22°52' E 113°34'664478026.4
2014-Dec-11 23:33N 32°05' E 120°29'76115.6
2014-Dec-11 23:33N 32°00' E 120°23'32572.3
2014-Dec-11 23:33N 31°59' E 120°27'65046823.0
2014-Dec-11 23:32N 23°04' E 113°30'66036004.7
2014-Dec-11 23:31N 31°40' E 121°13'66016852.4
2014-Dec-11 23:29N 23°04' E 113°30'5 4.9
2014-Dec-11 22:33N 22°60' E 113°31'6481165617.2
2014-Dec-11 22:33N 31°09' E 121°27'74266979.7
2014-Dec-11 22:33N 32°05' E 120°29'65488.4
2014-Dec-11 22:33N 31°59' E 120°27'43143.7
2014-Dec-11 22:33N 32°02' E 120°30'65547136.0
2014-Dec-11 22:32N 23°04' E 113°30'66036003.4
2014-Dec-11 22:31N 31°40' E 121°13'66016851.8
2014-Dec-11 22:29N 23°04' E 113°30'44173.1
2014-Dec-11 22:14N 22°25' E 113°53'6781013.8
2014-Dec-11 21:33N 32°00' E 120°37'89301.8
2014-Dec-11 21:33N 32°05' E 120°29'65640043.8
2014-Dec-11 21:32N 23°04' E 113°30'6609658.8
2014-Dec-11 21:28N 31°40' E 121°13'66016850.7
2014-Dec-11 21:26N 23°04' E 113°30'7 8.2
2014-Dec-11 20:33N 23°02' E 113°22'6622381906.3
2014-Dec-11 20:33N 32°05' E 120°29'135321.9
2014-Dec-11 20:33N 32°01' E 120°45'157879.4
2014-Dec-11 20:33N 31°59' E 120°27'441420.1
2014-Dec-11 20:31N 31°40' E 121°13'66016850.5
2014-Dec-11 20:29N 23°04' E 113°30'2281861.3
2014-Dec-11 20:22N 23°41' E 117°35'2283296.0
2014-Dec-11 20:17N 23°04' E 113°30'650885.5
2014-Dec-11 19:33N 31°59' E 120°27'621847.7
2014-Dec-11 19:33N 32°05' E 120°29'66343419.3
2014-Dec-11 19:32N 23°03' E 113°17'1214455.2
2014-Dec-11 19:32N 23°04' E 113°30'66035998.4
2014-Dec-11 19:31N 31°40' E 121°13'51039041.1
2014-Dec-11 19:31N 23°47' E 117°39'2338921.6
2014-Dec-11 19:29N 23°04' E 113°30'66348675.4
2014-Dec-11 19:28N 32°01' E 120°47'1617.1
2014-Dec-11 18:33N 32°05' E 120°29'61105.0
2014-Dec-11 18:33N 31°59' E 120°27'69478044.0
2014-Dec-11 18:33N 22°11' E 113°33'701140138.3
2014-Dec-11 18:32N 31°43' E 121°08'680815804.4
2014-Dec-11 18:32N 22°27' E 113°48'2283796.1
2014-Dec-11 18:29N 23°47' E 117°39'2335351.2
2014-Dec-11 18:26N 23°04' E 113°30'0 1.1
2014-Dec-11 18:20N 23°04' E 113°30'6633603.1
2014-Dec-11 18:09N 32°01' E 120°47'1626.1
2014-Dec-11 17:34N 32°05' E 120°29'61557.8
2014-Dec-11 17:33N 31°59' E 120°27'65152040.4
2014-Dec-11 17:33N 23°04' E 113°29'482998.5
2014-Dec-11 17:32N 22°19' E 113°47'686164755.0
2014-Dec-11 17:31N 31°47' E 121°00'65856404.6
2014-Dec-11 17:31N 23°04' E 113°30'66376942.2
2014-Dec-11 17:30N 32°01' E 120°47'52118742.5
2014-Dec-11 17:28N 23°48' E 117°39'2353207.5
2014-Dec-11 17:24N 22°53' E 113°30'31860.6
2014-Dec-11 17:22N 22°27' E 113°48'6595343.4
2014-Dec-11 17:14N 31°01' E 121°29'65817040.9
2014-Dec-11 17:12N 22°27' E 113°49'6781051.4
2014-Dec-11 16:33N 32°05' E 120°30'657118173.6
2014-Dec-11 16:33N 23°04' E 113°29'23442079.1
2014-Dec-11 16:33N 23°48' E 117°39'513102627.0
2014-Dec-11 16:32N 31°59' E 120°27'68641829.8
2014-Dec-11 16:31N 22°11' E 113°51'69242965.5
2014-Dec-11 16:31N 31°52' E 120°53'10609.0
2014-Dec-11 16:30N 32°01' E 120°47'69583379.1
2014-Dec-11 16:29N 22°15' E 113°47'12554.2
2014-Dec-11 16:28N 22°27' E 113°48'6794596.4
2014-Dec-11 16:19N 31°19' E 121°42'7295.4
2014-Dec-11 15:33N 32°03' E 120°34'657147885.5
2014-Dec-11 15:33N 23°04' E 113°29'651334646.6
2014-Dec-11 15:33N 31°59' E 120°27'1922736.3
2014-Dec-11 15:33N 31°60' E 120°49'520311944.9
2014-Dec-11 15:33N 23°48' E 117°39'22815767.8
2014-Dec-11 15:32N 22°27' E 113°48'685492923.1
2014-Dec-11 15:32N 32°01' E 120°47'62169.8
2014-Dec-11 15:10N 31°19' E 121°42'68112.6
2014-Dec-11 14:34N 32°00' E 120°38'22190.8
2014-Dec-11 14:33N 31°60' E 120°40'112812.3
2014-Dec-11 14:33N 31°59' E 120°27'6538110.5
2014-Dec-11 14:28N 22°60' E 113°31'2338646.2
2014-Dec-11 14:27N 23°48' E 117°39'22818222.8
2014-Dec-11 14:26N 22°27' E 113°48'67935960.0
2014-Dec-11 14:25N 31°19' E 121°42'62661.4
2014-Dec-11 14:19N 32°01' E 120°47'1418.0
2014-Dec-11 13:33N 32°01' E 120°31'102841.7
2014-Dec-11 13:33N 32°01' E 120°43'143114.2
2014-Dec-11 13:33N 31°59' E 120°27'508365901.5
2014-Dec-11 13:33N 23°52' E 117°43'23216082.4
2014-Dec-11 13:32N 22°27' E 113°48'2155.2
2014-Dec-11 13:09N 22°18' E 114°09'6821141.0
2014-Dec-11 12:33N 32°00' E 120°49'216927.4
2014-Dec-11 12:33N 32°00' E 120°24'66368226.6
2014-Dec-11 12:33N 22°54' E 113°21'664119454.4
2014-Dec-11 12:32N 31°59' E 120°27'673142550.6
2014-Dec-11 12:32N 22°27' E 113°48'2392181.8
2014-Dec-11 12:25N 23°56' E 117°50'4981856.1
2014-Dec-11 12:09N 31°57' E 120°15'1117.8
2014-Dec-11 11:33N 31°59' E 120°27'76473.8
2014-Dec-11 11:33N 31°58' E 120°19'1503.3
2014-Dec-11 11:33N 31°58' E 120°19'2631178.6
2014-Dec-11 11:33N 31°60' E 120°49'5137.2
2014-Dec-11 11:30N 31°55' E 120°53'66114170.4
2014-Dec-11 11:28N 23°04' E 113°29'652710.3
2014-Dec-11 10:32N 32°01' E 120°25'3357.1
2014-Dec-11 10:32N 31°59' E 120°27'121682.7
2014-Dec-11 10:32N 31°56' E 120°13'351173.0
2014-Dec-11 10:30N 31°51' E 120°54'66318513.6
2014-Dec-11 10:28N 23°02' E 113°22'262157465.8
2014-Dec-11 10:27N 24°07' E 117°60'4913038.1
2014-Dec-11 10:18N 31°53' E 120°53'485655.4
2014-Dec-11 09:33N 24°12' E 118°05'48064045.4
2014-Dec-11 09:33N 31°47' E 120°59'467163.7
2014-Dec-11 09:33N 31°57' E 120°07'2341832.1
2014-Dec-11 09:33N 32°01' E 120°34'6455.8
2014-Dec-11 09:32N 31°59' E 120°27'65810248.4
2014-Dec-11 09:28N 23°04' E 113°16'66512462.0
2014-Dec-11 09:25N 31°48' E 120°56'657262903.8
2014-Dec-11 09:25N 23°04' E 113°29'5550.1
2014-Dec-11 09:24N 23°02' E 113°24'141107.6
2014-Dec-11 09:23N 22°48' E 113°20'6789464.6
2014-Dec-11 09:19N 31°19' E 121°42'66529577.1
2014-Dec-11 09:18N 22°54' E 113°35'30213.0
2014-Dec-11 09:09N 22°26' E 113°49'6811149.8
2014-Dec-11 08:34N 31°44' E 121°07'4494.3
2014-Dec-11 08:33N 31°46' E 121°03'66685591.9
2014-Dec-11 08:33N 23°03' E 113°20'656337474.7
2014-Dec-11 08:32N 31°59' E 120°27'24997.8
2014-Dec-11 08:31N 31°60' E 119°59'4728089.5
2014-Dec-11 08:28N 24°18' E 118°10'2671337.5
2014-Dec-11 08:16N 23°04' E 113°29'5562.9
2014-Dec-11 08:15N 23°02' E 113°24'842.2
2014-Dec-11 08:04N 22°54' E 113°22'4 7.8
2014-Dec-11 07:34N 22°55' E 113°26'660198002.4
2014-Dec-11 07:33N 31°59' E 120°27'419773.9
2014-Dec-11 07:33N 31°41' E 121°10'495044.3
2014-Dec-11 07:33N 31°56' E 120°15'64814488.2
2014-Dec-11 07:30N 23°03' E 113°20'443966.9
2014-Dec-11 07:29N 22°27' E 113°48'411497.8
2014-Dec-11 07:28N 23°04' E 113°29'3687756.0
2014-Dec-11 07:25N 25°59' E 119°26'36254284.5
2014-Dec-11 07:24N 31°59' E 119°57'641135700.1
2014-Dec-11 07:24N 23°02' E 113°24'2712197.1
2014-Dec-11 07:17N 24°19' E 118°08'467644.8
2014-Dec-11 06:33N 31°34' E 121°20'519260.3
2014-Dec-11 06:33N 31°59' E 120°27'652260764.4
2014-Dec-11 06:33N 23°04' E 113°26'66139674.8
2014-Dec-11 06:32N 31°36' E 121°18'680611744.8
2014-Dec-11 06:32N 22°27' E 113°48'67829767.2
2014-Dec-11 06:30N 31°11' E 121°50'45741128.6
2014-Dec-11 06:30N 24°19' E 118°08'4758108.8
2014-Dec-11 06:26N 31°58' E 120°25'6585271.9
2014-Dec-11 06:19N 22°52' E 113°33'667876.1
2014-Dec-11 05:33N 31°31' E 121°24'247855.3
2014-Dec-11 05:33N 31°16' E 121°46'22987.4
2014-Dec-11 05:31N 31°30' E 121°26'46510092.9
2014-Dec-11 05:29N 24°19' E 118°08'47353171.5
2014-Dec-11 05:28N 31°57' E 120°18'6676601.5
2014-Dec-11 05:22N 22°27' E 113°48'28311.7
2014-Dec-11 05:17N 22°52' E 113°33'13510.5
2014-Dec-11 05:15N 23°02' E 113°24'6595585.4
2014-Dec-11 05:08N 31°22' E 121°28'64110.4
2014-Dec-11 04:33N 31°59' E 120°27'6232037.7
2014-Dec-11 04:33N 31°26' E 121°30'1759652.8
2014-Dec-11 04:33N 31°21' E 121°48'16624.6
2014-Dec-11 04:32N 31°26' E 121°30'4639209.4
2014-Dec-11 04:29N 24°19' E 118°08'26323133.1
2014-Dec-11 04:28N 22°27' E 113°48'41628.1
2014-Dec-11 04:24N 23°02' E 113°24'  

Dump ship's entire track history